<?xml version="1.0" encoding="UTF-8" standalone="no" ?>
<gpx xmlns="http://www.topografix.com/GPX/1/1" xmlns:xsi="http://www.w3.org/2001/XMLSchema-instance" xsi:schemaLocation="http://www.topografix.com/GPX/1/1 http://www.topografix.com/GPX/1/1/gpx.xsd" version="1.1" creator="VisuGPX - https://www.visugpx.com">
  <metadata>
    <name>ST_RAD - palanges 25km 800m</name>
    <desc><![CDATA[sortie sur les Palanges de st RADEGONDE  ]]></desc>
  </metadata>
  <trk>
    <name><![CDATA[2012-12-23T07:52:05Z]]></name>
    <trkseg>
      <trkpt lat="44.33568" lon="2.62925">
        <ele>636.5302734</ele>
        <time>2012-12-23T07:52:06Z</time>
      </trkpt>
      <trkpt lat="44.33567" lon="2.62944">
        <ele>641.3366699</ele>
        <time>2012-12-23T07:52:11Z</time>
      </trkpt>
      <trkpt lat="44.33569" lon="2.62953">
        <ele>641.3366699</ele>
        <time>2012-12-23T07:52:13Z</time>
      </trkpt>
      <trkpt lat="44.33572" lon="2.62974">
        <ele>640.855957</ele>
        <time>2012-12-23T07:52:18Z</time>
      </trkpt>
      <trkpt lat="44.33573" lon="2.62996">
        <ele>642.2980957</ele>
        <time>2012-12-23T07:52:23Z</time>
      </trkpt>
      <trkpt lat="44.33573" lon="2.63016">
        <ele>641.3366699</ele>
        <time>2012-12-23T07:52:28Z</time>
      </trkpt>
      <trkpt lat="44.33572" lon="2.6303">
        <ele>639.8947754</ele>
        <time>2012-12-23T07:52:32Z</time>
      </trkpt>
      <trkpt lat="44.33564" lon="2.63041">
        <ele>637.4914551</ele>
        <time>2012-12-23T07:52:37Z</time>
      </trkpt>
      <trkpt lat="44.33563" lon="2.63062">
        <ele>638.4528809</ele>
        <time>2012-12-23T07:52:42Z</time>
      </trkpt>
      <trkpt lat="44.33561" lon="2.63079">
        <ele>637.4914551</ele>
        <time>2012-12-23T07:52:46Z</time>
      </trkpt>
      <trkpt lat="44.33556" lon="2.63104">
        <ele>638.4528809</ele>
        <time>2012-12-23T07:52:52Z</time>
      </trkpt>
      <trkpt lat="44.3355" lon="2.63121">
        <ele>637.972168</ele>
        <time>2012-12-23T07:52:57Z</time>
      </trkpt>
      <trkpt lat="44.3354" lon="2.6314">
        <ele>637.0107422</ele>
        <time>2012-12-23T07:53:03Z</time>
      </trkpt>
      <trkpt lat="44.33535" lon="2.63154">
        <ele>636.0495605</ele>
        <time>2012-12-23T07:53:07Z</time>
      </trkpt>
      <trkpt lat="44.3353" lon="2.63171">
        <ele>633.6459961</ele>
        <time>2012-12-23T07:53:12Z</time>
      </trkpt>
      <trkpt lat="44.33526" lon="2.6319">
        <ele>632.2041016</ele>
        <time>2012-12-23T07:53:17Z</time>
      </trkpt>
      <trkpt lat="44.33521" lon="2.63211">
        <ele>633.6459961</ele>
        <time>2012-12-23T07:53:22Z</time>
      </trkpt>
      <trkpt lat="44.33516" lon="2.63235">
        <ele>635.0881348</ele>
        <time>2012-12-23T07:53:28Z</time>
      </trkpt>
      <trkpt lat="44.33511" lon="2.6325">
        <ele>635.5686035</ele>
        <time>2012-12-23T07:53:32Z</time>
      </trkpt>
      <trkpt lat="44.33504" lon="2.63272">
        <ele>634.126709</ele>
        <time>2012-12-23T07:53:38Z</time>
      </trkpt>
      <trkpt lat="44.33501" lon="2.63287">
        <ele>632.2041016</ele>
        <time>2012-12-23T07:53:42Z</time>
      </trkpt>
      <trkpt lat="44.33496" lon="2.63307">
        <ele>631.7233887</ele>
        <time>2012-12-23T07:53:47Z</time>
      </trkpt>
      <trkpt lat="44.33495" lon="2.6332">
        <ele>634.126709</ele>
        <time>2012-12-23T07:53:50Z</time>
      </trkpt>
      <trkpt lat="44.33495" lon="2.63348">
        <ele>638.4528809</ele>
        <time>2012-12-23T07:53:58Z</time>
      </trkpt>
      <trkpt lat="44.33495" lon="2.63363">
        <ele>639.4140625</ele>
        <time>2012-12-23T07:54:02Z</time>
      </trkpt>
      <trkpt lat="44.33495" lon="2.63384">
        <ele>641.8173828</ele>
        <time>2012-12-23T07:54:08Z</time>
      </trkpt>
      <trkpt lat="44.33498" lon="2.63403">
        <ele>641.8173828</ele>
        <time>2012-12-23T07:54:13Z</time>
      </trkpt>
      <trkpt lat="44.33502" lon="2.63422">
        <ele>642.2980957</ele>
        <time>2012-12-23T07:54:19Z</time>
      </trkpt>
      <trkpt lat="44.33503" lon="2.63436">
        <ele>641.8173828</ele>
        <time>2012-12-23T07:54:24Z</time>
      </trkpt>
      <trkpt lat="44.33504" lon="2.63447">
        <ele>641.3366699</ele>
        <time>2012-12-23T07:54:28Z</time>
      </trkpt>
      <trkpt lat="44.33507" lon="2.63462">
        <ele>643.7399902</ele>
        <time>2012-12-23T07:54:33Z</time>
      </trkpt>
      <trkpt lat="44.33508" lon="2.63472">
        <ele>644.2207031</ele>
        <time>2012-12-23T07:54:36Z</time>
      </trkpt>
      <trkpt lat="44.33507" lon="2.63485">
        <ele>644.7011719</ele>
        <time>2012-12-23T07:54:40Z</time>
      </trkpt>
      <trkpt lat="44.33509" lon="2.63506">
        <ele>645.6625977</ele>
        <time>2012-12-23T07:54:46Z</time>
      </trkpt>
      <trkpt lat="44.33518" lon="2.63515">
        <ele>647.5852051</ele>
        <time>2012-12-23T07:54:51Z</time>
      </trkpt>
      <trkpt lat="44.33529" lon="2.63525">
        <ele>648.5463867</ele>
        <time>2012-12-23T07:54:56Z</time>
      </trkpt>
      <trkpt lat="44.33541" lon="2.63538">
        <ele>649.9885254</ele>
        <time>2012-12-23T07:55:03Z</time>
      </trkpt>
      <trkpt lat="44.33548" lon="2.63554">
        <ele>649.9885254</ele>
        <time>2012-12-23T07:55:09Z</time>
      </trkpt>
      <trkpt lat="44.33557" lon="2.63566">
        <ele>651.9111328</ele>
        <time>2012-12-23T07:55:14Z</time>
      </trkpt>
      <trkpt lat="44.3356" lon="2.63571">
        <ele>652.8725586</ele>
        <time>2012-12-23T07:55:16Z</time>
      </trkpt>
      <trkpt lat="44.33566" lon="2.63586">
        <ele>654.3146973</ele>
        <time>2012-12-23T07:55:21Z</time>
      </trkpt>
      <trkpt lat="44.33571" lon="2.63599">
        <ele>653.8339844</ele>
        <time>2012-12-23T07:55:25Z</time>
      </trkpt>
      <trkpt lat="44.33572" lon="2.63612">
        <ele>652.3918457</ele>
        <time>2012-12-23T07:55:29Z</time>
      </trkpt>
      <trkpt lat="44.33575" lon="2.63621">
        <ele>651.4304199</ele>
        <time>2012-12-23T07:55:32Z</time>
      </trkpt>
      <trkpt lat="44.33589" lon="2.63638">
        <ele>651.4304199</ele>
        <time>2012-12-23T07:55:38Z</time>
      </trkpt>
      <trkpt lat="44.33595" lon="2.63648">
        <ele>650.4692383</ele>
        <time>2012-12-23T07:55:42Z</time>
      </trkpt>
      <trkpt lat="44.33604" lon="2.6366">
        <ele>650.4692383</ele>
        <time>2012-12-23T07:55:47Z</time>
      </trkpt>
      <trkpt lat="44.33607" lon="2.63665">
        <ele>650.4692383</ele>
        <time>2012-12-23T07:55:49Z</time>
      </trkpt>
      <trkpt lat="44.3362" lon="2.63681">
        <ele>650.949707</ele>
        <time>2012-12-23T07:55:56Z</time>
      </trkpt>
      <trkpt lat="44.33627" lon="2.6369">
        <ele>651.9111328</ele>
        <time>2012-12-23T07:56:00Z</time>
      </trkpt>
      <trkpt lat="44.33635" lon="2.63702">
        <ele>652.3918457</ele>
        <time>2012-12-23T07:56:05Z</time>
      </trkpt>
      <trkpt lat="44.33646" lon="2.6372">
        <ele>653.8339844</ele>
        <time>2012-12-23T07:56:12Z</time>
      </trkpt>
      <trkpt lat="44.33653" lon="2.63735">
        <ele>655.2758789</ele>
        <time>2012-12-23T07:56:17Z</time>
      </trkpt>
      <trkpt lat="44.33658" lon="2.63748">
        <ele>655.7565918</ele>
        <time>2012-12-23T07:56:21Z</time>
      </trkpt>
      <trkpt lat="44.33662" lon="2.63764">
        <ele>658.1599121</ele>
        <time>2012-12-23T07:56:26Z</time>
      </trkpt>
      <trkpt lat="44.33668" lon="2.6378">
        <ele>659.6018066</ele>
        <time>2012-12-23T07:56:31Z</time>
      </trkpt>
      <trkpt lat="44.33675" lon="2.63801">
        <ele>659.6018066</ele>
        <time>2012-12-23T07:56:37Z</time>
      </trkpt>
      <trkpt lat="44.33681" lon="2.63814">
        <ele>658.1599121</ele>
        <time>2012-12-23T07:56:41Z</time>
      </trkpt>
      <trkpt lat="44.33686" lon="2.63831">
        <ele>656.7177734</ele>
        <time>2012-12-23T07:56:46Z</time>
      </trkpt>
      <trkpt lat="44.33691" lon="2.63847">
        <ele>654.795166</ele>
        <time>2012-12-23T07:56:51Z</time>
      </trkpt>
      <trkpt lat="44.33696" lon="2.63863">
        <ele>651.9111328</ele>
        <time>2012-12-23T07:56:56Z</time>
      </trkpt>
      <trkpt lat="44.33698" lon="2.63869">
        <ele>651.4304199</ele>
        <time>2012-12-23T07:56:58Z</time>
      </trkpt>
      <trkpt lat="44.33703" lon="2.63885">
        <ele>651.4304199</ele>
        <time>2012-12-23T07:57:03Z</time>
      </trkpt>
      <trkpt lat="44.33706" lon="2.63899">
        <ele>650.4692383</ele>
        <time>2012-12-23T07:57:08Z</time>
      </trkpt>
      <trkpt lat="44.33709" lon="2.63915">
        <ele>651.9111328</ele>
        <time>2012-12-23T07:57:13Z</time>
      </trkpt>
      <trkpt lat="44.33714" lon="2.63931">
        <ele>652.8725586</ele>
        <time>2012-12-23T07:57:18Z</time>
      </trkpt>
      <trkpt lat="44.33717" lon="2.63947">
        <ele>653.3532715</ele>
        <time>2012-12-23T07:57:23Z</time>
      </trkpt>
      <trkpt lat="44.33722" lon="2.63967">
        <ele>652.3918457</ele>
        <time>2012-12-23T07:57:29Z</time>
      </trkpt>
      <trkpt lat="44.33724" lon="2.63977">
        <ele>652.8725586</ele>
        <time>2012-12-23T07:57:32Z</time>
      </trkpt>
      <trkpt lat="44.33729" lon="2.6399">
        <ele>652.8725586</ele>
        <time>2012-12-23T07:57:37Z</time>
      </trkpt>
      <trkpt lat="44.33732" lon="2.63998">
        <ele>653.3532715</ele>
        <time>2012-12-23T07:57:40Z</time>
      </trkpt>
      <trkpt lat="44.33738" lon="2.6401">
        <ele>653.8339844</ele>
        <time>2012-12-23T07:57:44Z</time>
      </trkpt>
      <trkpt lat="44.33744" lon="2.64022">
        <ele>652.8725586</ele>
        <time>2012-12-23T07:57:48Z</time>
      </trkpt>
      <trkpt lat="44.33752" lon="2.64031">
        <ele>653.3532715</ele>
        <time>2012-12-23T07:57:53Z</time>
      </trkpt>
      <trkpt lat="44.33762" lon="2.64039">
        <ele>655.2758789</ele>
        <time>2012-12-23T07:57:59Z</time>
      </trkpt>
      <trkpt lat="44.3377" lon="2.64049">
        <ele>657.6791992</ele>
        <time>2012-12-23T07:58:04Z</time>
      </trkpt>
      <trkpt lat="44.33778" lon="2.64051">
        <ele>659.6018066</ele>
        <time>2012-12-23T07:58:08Z</time>
      </trkpt>
      <trkpt lat="44.33787" lon="2.64049">
        <ele>662.005127</ele>
        <time>2012-12-23T07:58:12Z</time>
      </trkpt>
      <trkpt lat="44.33802" lon="2.64038">
        <ele>665.3696289</ele>
        <time>2012-12-23T07:58:19Z</time>
      </trkpt>
      <trkpt lat="44.33815" lon="2.64029">
        <ele>670.1762695</ele>
        <time>2012-12-23T07:58:25Z</time>
      </trkpt>
      <trkpt lat="44.33822" lon="2.64021">
        <ele>672.098877</ele>
        <time>2012-12-23T07:58:29Z</time>
      </trkpt>
      <trkpt lat="44.33837" lon="2.6401">
        <ele>674.0214844</ele>
        <time>2012-12-23T07:58:36Z</time>
      </trkpt>
      <trkpt lat="44.33849" lon="2.63998">
        <ele>675.4633789</ele>
        <time>2012-12-23T07:58:42Z</time>
      </trkpt>
      <trkpt lat="44.3386" lon="2.6399">
        <ele>675.4633789</ele>
        <time>2012-12-23T07:58:47Z</time>
      </trkpt>
      <trkpt lat="44.33867" lon="2.64">
        <ele>675.9440918</ele>
        <time>2012-12-23T07:58:51Z</time>
      </trkpt>
      <trkpt lat="44.33871" lon="2.64023">
        <ele>675.9440918</ele>
        <time>2012-12-23T07:58:57Z</time>
      </trkpt>
      <trkpt lat="44.33873" lon="2.64038">
        <ele>675.9440918</ele>
        <time>2012-12-23T07:59:01Z</time>
      </trkpt>
      <trkpt lat="44.33875" lon="2.64056">
        <ele>674.5021973</ele>
        <time>2012-12-23T07:59:06Z</time>
      </trkpt>
      <trkpt lat="44.33876" lon="2.64079">
        <ele>672.5795898</ele>
        <time>2012-12-23T07:59:12Z</time>
      </trkpt>
      <trkpt lat="44.33876" lon="2.64102">
        <ele>673.0603027</ele>
        <time>2012-12-23T07:59:18Z</time>
      </trkpt>
      <trkpt lat="44.33877" lon="2.64109">
        <ele>673.0603027</ele>
        <time>2012-12-23T07:59:20Z</time>
      </trkpt>
      <trkpt lat="44.33888" lon="2.64114">
        <ele>673.0603027</ele>
        <time>2012-12-23T07:59:25Z</time>
      </trkpt>
      <trkpt lat="44.33901" lon="2.64115">
        <ele>674.0214844</ele>
        <time>2012-12-23T07:59:30Z</time>
      </trkpt>
      <trkpt lat="44.33918" lon="2.64113">
        <ele>675.4633789</ele>
        <time>2012-12-23T07:59:36Z</time>
      </trkpt>
      <trkpt lat="44.33932" lon="2.64113">
        <ele>674.9829102</ele>
        <time>2012-12-23T07:59:41Z</time>
      </trkpt>
      <trkpt lat="44.33942" lon="2.64114">
        <ele>675.4633789</ele>
        <time>2012-12-23T07:59:45Z</time>
      </trkpt>
      <trkpt lat="44.33957" lon="2.64112">
        <ele>675.9440918</ele>
        <time>2012-12-23T07:59:51Z</time>
      </trkpt>
      <trkpt lat="44.33971" lon="2.64112">
        <ele>675.9440918</ele>
        <time>2012-12-23T07:59:56Z</time>
      </trkpt>
      <trkpt lat="44.33982" lon="2.64111">
        <ele>675.9440918</ele>
        <time>2012-12-23T08:00:00Z</time>
      </trkpt>
      <trkpt lat="44.33984" lon="2.6411">
        <ele>675.9440918</ele>
        <time>2012-12-23T08:00:01Z</time>
      </trkpt>
      <trkpt lat="44.33997" lon="2.64119">
        <ele>676.4248047</ele>
        <time>2012-12-23T08:00:06Z</time>
      </trkpt>
      <trkpt lat="44.34007" lon="2.64143">
        <ele>677.8666992</ele>
        <time>2012-12-23T08:00:13Z</time>
      </trkpt>
      <trkpt lat="44.34017" lon="2.64168">
        <ele>677.3862305</ele>
        <time>2012-12-23T08:00:20Z</time>
      </trkpt>
      <trkpt lat="44.34024" lon="2.64186">
        <ele>678.3474121</ele>
        <time>2012-12-23T08:00:25Z</time>
      </trkpt>
      <trkpt lat="44.34031" lon="2.64203">
        <ele>678.828125</ele>
        <time>2012-12-23T08:00:30Z</time>
      </trkpt>
      <trkpt lat="44.3404" lon="2.64222">
        <ele>675.9440918</ele>
        <time>2012-12-23T08:00:36Z</time>
      </trkpt>
      <trkpt lat="44.34046" lon="2.64235">
        <ele>674.5021973</ele>
        <time>2012-12-23T08:00:40Z</time>
      </trkpt>
      <trkpt lat="44.34053" lon="2.64255">
        <ele>671.1376953</ele>
        <time>2012-12-23T08:00:46Z</time>
      </trkpt>
      <trkpt lat="44.34055" lon="2.64275">
        <ele>669.6958008</ele>
        <time>2012-12-23T08:00:51Z</time>
      </trkpt>
      <trkpt lat="44.34058" lon="2.64297">
        <ele>667.7727051</ele>
        <time>2012-12-23T08:00:57Z</time>
      </trkpt>
      <trkpt lat="44.34059" lon="2.64316">
        <ele>664.888916</ele>
        <time>2012-12-23T08:01:02Z</time>
      </trkpt>
      <trkpt lat="44.34059" lon="2.64332">
        <ele>662.9663086</ele>
        <time>2012-12-23T08:01:06Z</time>
      </trkpt>
      <trkpt lat="44.34061" lon="2.64348">
        <ele>662.005127</ele>
        <time>2012-12-23T08:01:10Z</time>
      </trkpt>
      <trkpt lat="44.34063" lon="2.64367">
        <ele>661.5244141</ele>
        <time>2012-12-23T08:01:15Z</time>
      </trkpt>
      <trkpt lat="44.34064" lon="2.64378">
        <ele>660.5629883</ele>
        <time>2012-12-23T08:01:18Z</time>
      </trkpt>
      <trkpt lat="44.34066" lon="2.64382">
        <ele>661.0437012</ele>
        <time>2012-12-23T08:01:23Z</time>
      </trkpt>
      <trkpt lat="44.34069" lon="2.64401">
        <ele>661.5244141</ele>
        <time>2012-12-23T08:01:29Z</time>
      </trkpt>
      <trkpt lat="44.34071" lon="2.64428">
        <ele>662.4855957</ele>
        <time>2012-12-23T08:01:36Z</time>
      </trkpt>
      <trkpt lat="44.34069" lon="2.6445">
        <ele>663.9274902</ele>
        <time>2012-12-23T08:01:42Z</time>
      </trkpt>
      <trkpt lat="44.34068" lon="2.64466">
        <ele>665.3696289</ele>
        <time>2012-12-23T08:01:46Z</time>
      </trkpt>
      <trkpt lat="44.34067" lon="2.64488">
        <ele>667.2922363</ele>
        <time>2012-12-23T08:01:52Z</time>
      </trkpt>
      <trkpt lat="44.3407" lon="2.64505">
        <ele>665.8503418</ele>
        <time>2012-12-23T08:01:57Z</time>
      </trkpt>
      <trkpt lat="44.34072" lon="2.64518">
        <ele>665.8503418</ele>
        <time>2012-12-23T08:02:01Z</time>
      </trkpt>
      <trkpt lat="44.34075" lon="2.64532">
        <ele>665.3696289</ele>
        <time>2012-12-23T08:02:05Z</time>
      </trkpt>
      <trkpt lat="44.34076" lon="2.64546">
        <ele>664.888916</ele>
        <time>2012-12-23T08:02:09Z</time>
      </trkpt>
      <trkpt lat="44.34082" lon="2.64568">
        <ele>662.9663086</ele>
        <time>2012-12-23T08:02:15Z</time>
      </trkpt>
      <trkpt lat="44.34086" lon="2.64587">
        <ele>662.4855957</ele>
        <time>2012-12-23T08:02:20Z</time>
      </trkpt>
      <trkpt lat="44.34089" lon="2.64612">
        <ele>659.6018066</ele>
        <time>2012-12-23T08:02:27Z</time>
      </trkpt>
      <trkpt lat="44.34093" lon="2.6463">
        <ele>657.6791992</ele>
        <time>2012-12-23T08:02:32Z</time>
      </trkpt>
      <trkpt lat="44.34098" lon="2.64647">
        <ele>656.2370605</ele>
        <time>2012-12-23T08:02:37Z</time>
      </trkpt>
      <trkpt lat="44.34104" lon="2.64665">
        <ele>655.7565918</ele>
        <time>2012-12-23T08:02:42Z</time>
      </trkpt>
      <trkpt lat="44.3411" lon="2.64681">
        <ele>656.2370605</ele>
        <time>2012-12-23T08:02:47Z</time>
      </trkpt>
      <trkpt lat="44.34116" lon="2.64696">
        <ele>657.1984863</ele>
        <time>2012-12-23T08:02:51Z</time>
      </trkpt>
      <trkpt lat="44.34119" lon="2.64705">
        <ele>657.1984863</ele>
        <time>2012-12-23T08:02:55Z</time>
      </trkpt>
      <trkpt lat="44.34123" lon="2.64716">
        <ele>657.6791992</ele>
        <time>2012-12-23T08:03:00Z</time>
      </trkpt>
      <trkpt lat="44.34124" lon="2.64719">
        <ele>657.1984863</ele>
        <time>2012-12-23T08:03:01Z</time>
      </trkpt>
      <trkpt lat="44.34131" lon="2.64739">
        <ele>659.1210938</ele>
        <time>2012-12-23T08:03:08Z</time>
      </trkpt>
      <trkpt lat="44.34131" lon="2.64741">
        <ele>659.1210938</ele>
        <time>2012-12-23T08:03:09Z</time>
      </trkpt>
      <trkpt lat="44.34132" lon="2.64754">
        <ele>660.0822754</ele>
        <time>2012-12-23T08:03:14Z</time>
      </trkpt>
      <trkpt lat="44.34132" lon="2.6476">
        <ele>661.0437012</ele>
        <time>2012-12-23T08:03:16Z</time>
      </trkpt>
      <trkpt lat="44.34134" lon="2.64778">
        <ele>662.4855957</ele>
        <time>2012-12-23T08:03:22Z</time>
      </trkpt>
      <trkpt lat="44.34136" lon="2.6479">
        <ele>663.9274902</ele>
        <time>2012-12-23T08:03:26Z</time>
      </trkpt>
      <trkpt lat="44.34135" lon="2.64803">
        <ele>664.888916</ele>
        <time>2012-12-23T08:03:30Z</time>
      </trkpt>
      <trkpt lat="44.34136" lon="2.64818">
        <ele>665.8503418</ele>
        <time>2012-12-23T08:03:35Z</time>
      </trkpt>
      <trkpt lat="44.34137" lon="2.64832">
        <ele>664.888916</ele>
        <time>2012-12-23T08:03:40Z</time>
      </trkpt>
      <trkpt lat="44.34138" lon="2.64851">
        <ele>667.7727051</ele>
        <time>2012-12-23T08:03:47Z</time>
      </trkpt>
      <trkpt lat="44.3414" lon="2.64864">
        <ele>669.6958008</ele>
        <time>2012-12-23T08:03:51Z</time>
      </trkpt>
      <trkpt lat="44.34142" lon="2.64883">
        <ele>670.6569824</ele>
        <time>2012-12-23T08:03:57Z</time>
      </trkpt>
      <trkpt lat="44.34143" lon="2.64904">
        <ele>671.1376953</ele>
        <time>2012-12-23T08:04:03Z</time>
      </trkpt>
      <trkpt lat="44.34145" lon="2.64921">
        <ele>672.098877</ele>
        <time>2012-12-23T08:04:08Z</time>
      </trkpt>
      <trkpt lat="44.34147" lon="2.64942">
        <ele>674.5021973</ele>
        <time>2012-12-23T08:04:14Z</time>
      </trkpt>
      <trkpt lat="44.34148" lon="2.64956">
        <ele>675.9440918</ele>
        <time>2012-12-23T08:04:18Z</time>
      </trkpt>
      <trkpt lat="44.34151" lon="2.64974">
        <ele>676.4248047</ele>
        <time>2012-12-23T08:04:23Z</time>
      </trkpt>
      <trkpt lat="44.34153" lon="2.64987">
        <ele>676.9055176</ele>
        <time>2012-12-23T08:04:27Z</time>
      </trkpt>
      <trkpt lat="44.34154" lon="2.65002">
        <ele>676.4248047</ele>
        <time>2012-12-23T08:04:31Z</time>
      </trkpt>
      <trkpt lat="44.34158" lon="2.6502">
        <ele>677.3862305</ele>
        <time>2012-12-23T08:04:36Z</time>
      </trkpt>
      <trkpt lat="44.3416" lon="2.65037">
        <ele>677.3862305</ele>
        <time>2012-12-23T08:04:41Z</time>
      </trkpt>
      <trkpt lat="44.34164" lon="2.65053">
        <ele>677.3862305</ele>
        <time>2012-12-23T08:04:46Z</time>
      </trkpt>
      <trkpt lat="44.34169" lon="2.65073">
        <ele>678.3474121</ele>
        <time>2012-12-23T08:04:52Z</time>
      </trkpt>
      <trkpt lat="44.34172" lon="2.65091">
        <ele>678.828125</ele>
        <time>2012-12-23T08:04:57Z</time>
      </trkpt>
      <trkpt lat="44.34174" lon="2.65109">
        <ele>678.828125</ele>
        <time>2012-12-23T08:05:02Z</time>
      </trkpt>
      <trkpt lat="44.34175" lon="2.65127">
        <ele>679.3085938</ele>
        <time>2012-12-23T08:05:07Z</time>
      </trkpt>
      <trkpt lat="44.34176" lon="2.65146">
        <ele>680.2700195</ele>
        <time>2012-12-23T08:05:12Z</time>
      </trkpt>
      <trkpt lat="44.34174" lon="2.65157">
        <ele>680.7507324</ele>
        <time>2012-12-23T08:05:15Z</time>
      </trkpt>
      <trkpt lat="44.34164" lon="2.6517">
        <ele>682.192627</ele>
        <time>2012-12-23T08:05:21Z</time>
      </trkpt>
      <trkpt lat="44.34161" lon="2.65177">
        <ele>682.192627</ele>
        <time>2012-12-23T08:05:23Z</time>
      </trkpt>
      <trkpt lat="44.34151" lon="2.65193">
        <ele>682.192627</ele>
        <time>2012-12-23T08:05:29Z</time>
      </trkpt>
      <trkpt lat="44.3414" lon="2.65208">
        <ele>682.192627</ele>
        <time>2012-12-23T08:05:35Z</time>
      </trkpt>
      <trkpt lat="44.34131" lon="2.6522">
        <ele>681.7119141</ele>
        <time>2012-12-23T08:05:40Z</time>
      </trkpt>
      <trkpt lat="44.34122" lon="2.65231">
        <ele>680.2700195</ele>
        <time>2012-12-23T08:05:45Z</time>
      </trkpt>
      <trkpt lat="44.34114" lon="2.65243">
        <ele>681.7119141</ele>
        <time>2012-12-23T08:05:49Z</time>
      </trkpt>
      <trkpt lat="44.34103" lon="2.65259">
        <ele>683.6345215</ele>
        <time>2012-12-23T08:05:55Z</time>
      </trkpt>
      <trkpt lat="44.34096" lon="2.65271">
        <ele>683.6345215</ele>
        <time>2012-12-23T08:06:00Z</time>
      </trkpt>
      <trkpt lat="44.34084" lon="2.65286">
        <ele>682.192627</ele>
        <time>2012-12-23T08:06:06Z</time>
      </trkpt>
      <trkpt lat="44.34072" lon="2.65305">
        <ele>681.2314453</ele>
        <time>2012-12-23T08:06:13Z</time>
      </trkpt>
      <trkpt lat="44.34062" lon="2.6532">
        <ele>680.7507324</ele>
        <time>2012-12-23T08:06:18Z</time>
      </trkpt>
      <trkpt lat="44.3405" lon="2.65337">
        <ele>680.7507324</ele>
        <time>2012-12-23T08:06:24Z</time>
      </trkpt>
      <trkpt lat="44.34042" lon="2.65352">
        <ele>680.7507324</ele>
        <time>2012-12-23T08:06:29Z</time>
      </trkpt>
      <trkpt lat="44.34032" lon="2.6537">
        <ele>683.1538086</ele>
        <time>2012-12-23T08:06:35Z</time>
      </trkpt>
      <trkpt lat="44.34024" lon="2.65389">
        <ele>685.557373</ele>
        <time>2012-12-23T08:06:41Z</time>
      </trkpt>
      <trkpt lat="44.34017" lon="2.65405">
        <ele>687.4799805</ele>
        <time>2012-12-23T08:06:46Z</time>
      </trkpt>
      <trkpt lat="44.34011" lon="2.6542">
        <ele>688.9221191</ele>
        <time>2012-12-23T08:06:51Z</time>
      </trkpt>
      <trkpt lat="44.34005" lon="2.65437">
        <ele>690.3640137</ele>
        <time>2012-12-23T08:06:56Z</time>
      </trkpt>
      <trkpt lat="44.33997" lon="2.65456">
        <ele>691.8059082</ele>
        <time>2012-12-23T08:07:02Z</time>
      </trkpt>
      <trkpt lat="44.33995" lon="2.65459">
        <ele>692.2866211</ele>
        <time>2012-12-23T08:07:03Z</time>
      </trkpt>
      <trkpt lat="44.3399" lon="2.65476">
        <ele>693.2478027</ele>
        <time>2012-12-23T08:07:08Z</time>
      </trkpt>
      <trkpt lat="44.33986" lon="2.65496">
        <ele>693.7285156</ele>
        <time>2012-12-23T08:07:14Z</time>
      </trkpt>
      <trkpt lat="44.33982" lon="2.65511">
        <ele>695.1704102</ele>
        <time>2012-12-23T08:07:18Z</time>
      </trkpt>
      <trkpt lat="44.33977" lon="2.65528">
        <ele>696.1318359</ele>
        <time>2012-12-23T08:07:23Z</time>
      </trkpt>
      <trkpt lat="44.3397" lon="2.65548">
        <ele>696.6125488</ele>
        <time>2012-12-23T08:07:29Z</time>
      </trkpt>
      <trkpt lat="44.33964" lon="2.65565">
        <ele>695.651123</ele>
        <time>2012-12-23T08:07:34Z</time>
      </trkpt>
      <trkpt lat="44.33958" lon="2.65582">
        <ele>695.1704102</ele>
        <time>2012-12-23T08:07:39Z</time>
      </trkpt>
      <trkpt lat="44.33952" lon="2.65595">
        <ele>694.6896973</ele>
        <time>2012-12-23T08:07:43Z</time>
      </trkpt>
      <trkpt lat="44.33944" lon="2.6561">
        <ele>693.7285156</ele>
        <time>2012-12-23T08:07:48Z</time>
      </trkpt>
      <trkpt lat="44.33937" lon="2.65634">
        <ele>695.651123</ele>
        <time>2012-12-23T08:07:54Z</time>
      </trkpt>
      <trkpt lat="44.33935" lon="2.65654">
        <ele>696.1318359</ele>
        <time>2012-12-23T08:07:59Z</time>
      </trkpt>
      <trkpt lat="44.33931" lon="2.65674">
        <ele>696.6125488</ele>
        <time>2012-12-23T08:08:04Z</time>
      </trkpt>
      <trkpt lat="44.33927" lon="2.65693">
        <ele>696.6125488</ele>
        <time>2012-12-23T08:08:09Z</time>
      </trkpt>
      <trkpt lat="44.33923" lon="2.65716">
        <ele>696.6125488</ele>
        <time>2012-12-23T08:08:15Z</time>
      </trkpt>
      <trkpt lat="44.33917" lon="2.65738">
        <ele>698.0544434</ele>
        <time>2012-12-23T08:08:21Z</time>
      </trkpt>
      <trkpt lat="44.3391" lon="2.65759">
        <ele>697.0930176</ele>
        <time>2012-12-23T08:08:27Z</time>
      </trkpt>
      <trkpt lat="44.33903" lon="2.65791">
        <ele>694.6896973</ele>
        <time>2012-12-23T08:08:35Z</time>
      </trkpt>
      <trkpt lat="44.33902" lon="2.65818">
        <ele>694.2092285</ele>
        <time>2012-12-23T08:08:42Z</time>
      </trkpt>
      <trkpt lat="44.33908" lon="2.65836">
        <ele>693.2478027</ele>
        <time>2012-12-23T08:08:47Z</time>
      </trkpt>
      <trkpt lat="44.33915" lon="2.65849">
        <ele>693.7285156</ele>
        <time>2012-12-23T08:08:51Z</time>
      </trkpt>
      <trkpt lat="44.33916" lon="2.65863">
        <ele>693.7285156</ele>
        <time>2012-12-23T08:08:55Z</time>
      </trkpt>
      <trkpt lat="44.3392" lon="2.65876">
        <ele>693.2478027</ele>
        <time>2012-12-23T08:08:59Z</time>
      </trkpt>
      <trkpt lat="44.33927" lon="2.65885">
        <ele>693.2478027</ele>
        <time>2012-12-23T08:09:03Z</time>
      </trkpt>
      <trkpt lat="44.33939" lon="2.65888">
        <ele>693.7285156</ele>
        <time>2012-12-23T08:09:08Z</time>
      </trkpt>
      <trkpt lat="44.33941" lon="2.65888">
        <ele>693.7285156</ele>
        <time>2012-12-23T08:09:09Z</time>
      </trkpt>
      <trkpt lat="44.33946" lon="2.65889">
        <ele>693.7285156</ele>
        <time>2012-12-23T08:09:11Z</time>
      </trkpt>
      <trkpt lat="44.33955" lon="2.65888">
        <ele>694.2092285</ele>
        <time>2012-12-23T08:09:15Z</time>
      </trkpt>
      <trkpt lat="44.33964" lon="2.65885">
        <ele>694.2092285</ele>
        <time>2012-12-23T08:09:19Z</time>
      </trkpt>
      <trkpt lat="44.33972" lon="2.65879">
        <ele>694.6896973</ele>
        <time>2012-12-23T08:09:25Z</time>
      </trkpt>
      <trkpt lat="44.33985" lon="2.65874">
        <ele>694.2092285</ele>
        <time>2012-12-23T08:09:30Z</time>
      </trkpt>
      <trkpt lat="44.33993" lon="2.65869">
        <ele>693.2478027</ele>
        <time>2012-12-23T08:09:34Z</time>
      </trkpt>
      <trkpt lat="44.34015" lon="2.65861">
        <ele>691.8059082</ele>
        <time>2012-12-23T08:09:43Z</time>
      </trkpt>
      <trkpt lat="44.34026" lon="2.65857">
        <ele>691.3251953</ele>
        <time>2012-12-23T08:09:47Z</time>
      </trkpt>
      <trkpt lat="44.34042" lon="2.65856">
        <ele>689.8833008</ele>
        <time>2012-12-23T08:09:53Z</time>
      </trkpt>
      <trkpt lat="44.34058" lon="2.65852">
        <ele>690.3640137</ele>
        <time>2012-12-23T08:09:59Z</time>
      </trkpt>
      <trkpt lat="44.34072" lon="2.65846">
        <ele>690.8444824</ele>
        <time>2012-12-23T08:10:04Z</time>
      </trkpt>
      <trkpt lat="44.34085" lon="2.65844">
        <ele>690.8444824</ele>
        <time>2012-12-23T08:10:09Z</time>
      </trkpt>
      <trkpt lat="44.34097" lon="2.65846">
        <ele>688.9221191</ele>
        <time>2012-12-23T08:10:14Z</time>
      </trkpt>
      <trkpt lat="44.34108" lon="2.65848">
        <ele>687.9606934</ele>
        <time>2012-12-23T08:10:18Z</time>
      </trkpt>
      <trkpt lat="44.34123" lon="2.65855">
        <ele>685.0769043</ele>
        <time>2012-12-23T08:10:24Z</time>
      </trkpt>
      <trkpt lat="44.34135" lon="2.65857">
        <ele>683.1538086</ele>
        <time>2012-12-23T08:10:28Z</time>
      </trkpt>
      <trkpt lat="44.34145" lon="2.6586">
        <ele>679.3085938</ele>
        <time>2012-12-23T08:10:32Z</time>
      </trkpt>
      <trkpt lat="44.3416" lon="2.65868">
        <ele>673.5410156</ele>
        <time>2012-12-23T08:10:37Z</time>
      </trkpt>
      <trkpt lat="44.34173" lon="2.65877">
        <ele>667.7727051</ele>
        <time>2012-12-23T08:10:42Z</time>
      </trkpt>
      <trkpt lat="44.34184" lon="2.65888">
        <ele>662.9663086</ele>
        <time>2012-12-23T08:10:47Z</time>
      </trkpt>
      <trkpt lat="44.34194" lon="2.65897">
        <ele>660.0822754</ele>
        <time>2012-12-23T08:10:52Z</time>
      </trkpt>
      <trkpt lat="44.34205" lon="2.65906">
        <ele>657.1984863</ele>
        <time>2012-12-23T08:10:57Z</time>
      </trkpt>
      <trkpt lat="44.34211" lon="2.65919">
        <ele>652.8725586</ele>
        <time>2012-12-23T08:11:01Z</time>
      </trkpt>
      <trkpt lat="44.34212" lon="2.65933">
        <ele>648.5463867</ele>
        <time>2012-12-23T08:11:05Z</time>
      </trkpt>
      <trkpt lat="44.34217" lon="2.65949">
        <ele>645.1818848</ele>
        <time>2012-12-23T08:11:09Z</time>
      </trkpt>
      <trkpt lat="44.34226" lon="2.65973">
        <ele>639.4140625</ele>
        <time>2012-12-23T08:11:15Z</time>
      </trkpt>
      <trkpt lat="44.34228" lon="2.65988">
        <ele>636.5302734</ele>
        <time>2012-12-23T08:11:19Z</time>
      </trkpt>
      <trkpt lat="44.34232" lon="2.66007">
        <ele>634.6074219</ele>
        <time>2012-12-23T08:11:24Z</time>
      </trkpt>
      <trkpt lat="44.34234" lon="2.66021">
        <ele>633.1652832</ele>
        <time>2012-12-23T08:11:28Z</time>
      </trkpt>
      <trkpt lat="44.34236" lon="2.66029">
        <ele>633.6459961</ele>
        <time>2012-12-23T08:11:30Z</time>
      </trkpt>
      <trkpt lat="44.34237" lon="2.66054">
        <ele>634.6074219</ele>
        <time>2012-12-23T08:11:36Z</time>
      </trkpt>
      <trkpt lat="44.34239" lon="2.66059">
        <ele>635.0881348</ele>
        <time>2012-12-23T08:11:38Z</time>
      </trkpt>
      <trkpt lat="44.34246" lon="2.66074">
        <ele>636.0495605</ele>
        <time>2012-12-23T08:11:43Z</time>
      </trkpt>
      <trkpt lat="44.34252" lon="2.66091">
        <ele>637.0107422</ele>
        <time>2012-12-23T08:11:48Z</time>
      </trkpt>
      <trkpt lat="44.34255" lon="2.66107">
        <ele>635.5686035</ele>
        <time>2012-12-23T08:11:53Z</time>
      </trkpt>
      <trkpt lat="44.34259" lon="2.66126">
        <ele>638.4528809</ele>
        <time>2012-12-23T08:11:58Z</time>
      </trkpt>
      <trkpt lat="44.34255" lon="2.66146">
        <ele>637.972168</ele>
        <time>2012-12-23T08:12:04Z</time>
      </trkpt>
      <trkpt lat="44.34253" lon="2.66161">
        <ele>637.0107422</ele>
        <time>2012-12-23T08:12:08Z</time>
      </trkpt>
      <trkpt lat="44.34247" lon="2.66177">
        <ele>636.0495605</ele>
        <time>2012-12-23T08:12:13Z</time>
      </trkpt>
      <trkpt lat="44.3424" lon="2.66187">
        <ele>633.6459961</ele>
        <time>2012-12-23T08:12:17Z</time>
      </trkpt>
      <trkpt lat="44.34228" lon="2.66204">
        <ele>629.8007813</ele>
        <time>2012-12-23T08:12:23Z</time>
      </trkpt>
      <trkpt lat="44.34214" lon="2.6622">
        <ele>626.9169922</ele>
        <time>2012-12-23T08:12:29Z</time>
      </trkpt>
      <trkpt lat="44.34201" lon="2.6623">
        <ele>625.9555664</ele>
        <time>2012-12-23T08:12:34Z</time>
      </trkpt>
      <trkpt lat="44.3419" lon="2.66242">
        <ele>626.9169922</ele>
        <time>2012-12-23T08:12:39Z</time>
      </trkpt>
      <trkpt lat="44.3418" lon="2.66251">
        <ele>624.9943848</ele>
        <time>2012-12-23T08:12:43Z</time>
      </trkpt>
      <trkpt lat="44.34169" lon="2.66262">
        <ele>624.032959</ele>
        <time>2012-12-23T08:12:48Z</time>
      </trkpt>
      <trkpt lat="44.3416" lon="2.66273">
        <ele>623.5524902</ele>
        <time>2012-12-23T08:12:52Z</time>
      </trkpt>
      <trkpt lat="44.34149" lon="2.66285">
        <ele>623.5524902</ele>
        <time>2012-12-23T08:12:57Z</time>
      </trkpt>
      <trkpt lat="44.3414" lon="2.66296">
        <ele>621.6296387</ele>
        <time>2012-12-23T08:13:01Z</time>
      </trkpt>
      <trkpt lat="44.3413" lon="2.6631">
        <ele>617.7841797</ele>
        <time>2012-12-23T08:13:06Z</time>
      </trkpt>
      <trkpt lat="44.34122" lon="2.66327">
        <ele>613.9389648</ele>
        <time>2012-12-23T08:13:11Z</time>
      </trkpt>
      <trkpt lat="44.34112" lon="2.66342">
        <ele>609.1325684</ele>
        <time>2012-12-23T08:13:16Z</time>
      </trkpt>
      <trkpt lat="44.3411" lon="2.66345">
        <ele>608.1713867</ele>
        <time>2012-12-23T08:13:17Z</time>
      </trkpt>
      <trkpt lat="44.34098" lon="2.66361">
        <ele>605.7680664</ele>
        <time>2012-12-23T08:13:23Z</time>
      </trkpt>
      <trkpt lat="44.34084" lon="2.66372">
        <ele>602.4030762</ele>
        <time>2012-12-23T08:13:29Z</time>
      </trkpt>
      <trkpt lat="44.34074" lon="2.66374">
        <ele>598.5578613</ele>
        <time>2012-12-23T08:13:33Z</time>
      </trkpt>
      <trkpt lat="44.34063" lon="2.66377">
        <ele>596.635498</ele>
        <time>2012-12-23T08:13:37Z</time>
      </trkpt>
      <trkpt lat="44.3405" lon="2.66381">
        <ele>591.8288574</ele>
        <time>2012-12-23T08:13:42Z</time>
      </trkpt>
      <trkpt lat="44.34033" lon="2.66388">
        <ele>589.4255371</ele>
        <time>2012-12-23T08:13:48Z</time>
      </trkpt>
      <trkpt lat="44.34024" lon="2.66387">
        <ele>587.9833984</ele>
        <time>2012-12-23T08:13:52Z</time>
      </trkpt>
      <trkpt lat="44.34013" lon="2.66384">
        <ele>583.1767578</ele>
        <time>2012-12-23T08:13:57Z</time>
      </trkpt>
      <trkpt lat="44.33994" lon="2.66381">
        <ele>582.2155762</ele>
        <time>2012-12-23T08:14:03Z</time>
      </trkpt>
      <trkpt lat="44.33989" lon="2.66381">
        <ele>580.7736816</ele>
        <time>2012-12-23T08:14:05Z</time>
      </trkpt>
      <trkpt lat="44.33973" lon="2.66382">
        <ele>579.8122559</ele>
        <time>2012-12-23T08:14:11Z</time>
      </trkpt>
      <trkpt lat="44.33964" lon="2.66384">
        <ele>580.2929688</ele>
        <time>2012-12-23T08:14:16Z</time>
      </trkpt>
      <trkpt lat="44.33956" lon="2.66386">
        <ele>580.7736816</ele>
        <time>2012-12-23T08:14:20Z</time>
      </trkpt>
      <trkpt lat="44.33942" lon="2.66397">
        <ele>588.9450684</ele>
        <time>2012-12-23T08:14:26Z</time>
      </trkpt>
      <trkpt lat="44.33929" lon="2.66408">
        <ele>588.4643555</ele>
        <time>2012-12-23T08:14:32Z</time>
      </trkpt>
      <trkpt lat="44.33926" lon="2.66409">
        <ele>587.5026855</ele>
        <time>2012-12-23T08:14:33Z</time>
      </trkpt>
      <trkpt lat="44.33917" lon="2.66414">
        <ele>588.9450684</ele>
        <time>2012-12-23T08:14:37Z</time>
      </trkpt>
      <trkpt lat="44.33903" lon="2.66422">
        <ele>587.9833984</ele>
        <time>2012-12-23T08:14:43Z</time>
      </trkpt>
      <trkpt lat="44.33891" lon="2.66426">
        <ele>587.5026855</ele>
        <time>2012-12-23T08:14:48Z</time>
      </trkpt>
      <trkpt lat="44.33881" lon="2.66429">
        <ele>587.9833984</ele>
        <time>2012-12-23T08:14:52Z</time>
      </trkpt>
      <trkpt lat="44.33866" lon="2.66431">
        <ele>591.3481445</ele>
        <time>2012-12-23T08:14:58Z</time>
      </trkpt>
      <trkpt lat="44.33861" lon="2.66432">
        <ele>590.3869629</ele>
        <time>2012-12-23T08:15:00Z</time>
      </trkpt>
      <trkpt lat="44.33846" lon="2.66429">
        <ele>589.90625</ele>
        <time>2012-12-23T08:15:06Z</time>
      </trkpt>
      <trkpt lat="44.33831" lon="2.66422">
        <ele>588.9450684</ele>
        <time>2012-12-23T08:15:12Z</time>
      </trkpt>
      <trkpt lat="44.33825" lon="2.66422">
        <ele>588.4643555</ele>
        <time>2012-12-23T08:15:15Z</time>
      </trkpt>
      <trkpt lat="44.3381" lon="2.66425">
        <ele>589.90625</ele>
        <time>2012-12-23T08:15:21Z</time>
      </trkpt>
      <trkpt lat="44.338" lon="2.66425">
        <ele>590.8674316</ele>
        <time>2012-12-23T08:15:26Z</time>
      </trkpt>
      <trkpt lat="44.33786" lon="2.66422">
        <ele>594.2321777</ele>
        <time>2012-12-23T08:15:32Z</time>
      </trkpt>
      <trkpt lat="44.33779" lon="2.66423">
        <ele>599.0385742</ele>
        <time>2012-12-23T08:15:35Z</time>
      </trkpt>
      <trkpt lat="44.33779" lon="2.66436">
        <ele>605.7680664</ele>
        <time>2012-12-23T08:15:40Z</time>
      </trkpt>
      <trkpt lat="44.33783" lon="2.6645">
        <ele>609.1325684</ele>
        <time>2012-12-23T08:15:44Z</time>
      </trkpt>
      <trkpt lat="44.33783" lon="2.6647">
        <ele>613.4584961</ele>
        <time>2012-12-23T08:15:50Z</time>
      </trkpt>
      <trkpt lat="44.33781" lon="2.66487">
        <ele>614.9003906</ele>
        <time>2012-12-23T08:15:55Z</time>
      </trkpt>
      <trkpt lat="44.33786" lon="2.66485">
        <ele>615.3811035</ele>
        <time>2012-12-23T08:16:00Z</time>
      </trkpt>
      <trkpt lat="44.33789" lon="2.66481">
        <ele>614.9003906</ele>
        <time>2012-12-23T08:16:02Z</time>
      </trkpt>
      <trkpt lat="44.33798" lon="2.66475">
        <ele>616.3422852</ele>
        <time>2012-12-23T08:16:07Z</time>
      </trkpt>
      <trkpt lat="44.33801" lon="2.66473">
        <ele>617.7841797</ele>
        <time>2012-12-23T08:16:09Z</time>
      </trkpt>
      <trkpt lat="44.33808" lon="2.66471">
        <ele>620.668457</ele>
        <time>2012-12-23T08:16:14Z</time>
      </trkpt>
      <trkpt lat="44.33816" lon="2.66471">
        <ele>624.5136719</ele>
        <time>2012-12-23T08:16:19Z</time>
      </trkpt>
      <trkpt lat="44.33828" lon="2.66473">
        <ele>626.4362793</ele>
        <time>2012-12-23T08:16:25Z</time>
      </trkpt>
      <trkpt lat="44.33829" lon="2.66473">
        <ele>626.4362793</ele>
        <time>2012-12-23T08:16:26Z</time>
      </trkpt>
      <trkpt lat="44.33836" lon="2.66475">
        <ele>626.4362793</ele>
        <time>2012-12-23T08:16:29Z</time>
      </trkpt>
      <trkpt lat="44.33847" lon="2.6648">
        <ele>626.4362793</ele>
        <time>2012-12-23T08:16:35Z</time>
      </trkpt>
      <trkpt lat="44.33849" lon="2.6648">
        <ele>626.4362793</ele>
        <time>2012-12-23T08:16:36Z</time>
      </trkpt>
      <trkpt lat="44.33859" lon="2.66486">
        <ele>628.3588867</ele>
        <time>2012-12-23T08:16:42Z</time>
      </trkpt>
      <trkpt lat="44.33866" lon="2.66491">
        <ele>632.2041016</ele>
        <time>2012-12-23T08:16:46Z</time>
      </trkpt>
      <trkpt lat="44.33875" lon="2.66499">
        <ele>635.0881348</ele>
        <time>2012-12-23T08:16:52Z</time>
      </trkpt>
      <trkpt lat="44.33883" lon="2.66505">
        <ele>637.4914551</ele>
        <time>2012-12-23T08:16:57Z</time>
      </trkpt>
      <trkpt lat="44.33888" lon="2.66509">
        <ele>637.4914551</ele>
        <time>2012-12-23T08:17:02Z</time>
      </trkpt>
      <trkpt lat="44.33896" lon="2.66509">
        <ele>642.7788086</ele>
        <time>2012-12-23T08:17:12Z</time>
      </trkpt>
      <trkpt lat="44.33908" lon="2.66513">
        <ele>648.065918</ele>
        <time>2012-12-23T08:17:20Z</time>
      </trkpt>
      <trkpt lat="44.33911" lon="2.66513">
        <ele>649.5078125</ele>
        <time>2012-12-23T08:17:24Z</time>
      </trkpt>
      <trkpt lat="44.33915" lon="2.66514">
        <ele>651.4304199</ele>
        <time>2012-12-23T08:17:29Z</time>
      </trkpt>
      <trkpt lat="44.33922" lon="2.66515">
        <ele>650.4692383</ele>
        <time>2012-12-23T08:17:36Z</time>
      </trkpt>
      <trkpt lat="44.33924" lon="2.66515">
        <ele>651.9111328</ele>
        <time>2012-12-23T08:17:38Z</time>
      </trkpt>
      <trkpt lat="44.3393" lon="2.66516">
        <ele>654.795166</ele>
        <time>2012-12-23T08:17:45Z</time>
      </trkpt>
      <trkpt lat="44.33936" lon="2.66517">
        <ele>655.7565918</ele>
        <time>2012-12-23T08:17:51Z</time>
      </trkpt>
      <trkpt lat="44.33941" lon="2.66515">
        <ele>657.1984863</ele>
        <time>2012-12-23T08:17:57Z</time>
      </trkpt>
      <trkpt lat="44.33946" lon="2.66514">
        <ele>658.6403809</ele>
        <time>2012-12-23T08:18:01Z</time>
      </trkpt>
      <trkpt lat="44.33951" lon="2.66516">
        <ele>661.5244141</ele>
        <time>2012-12-23T08:18:08Z</time>
      </trkpt>
      <trkpt lat="44.33957" lon="2.66521">
        <ele>659.1210938</ele>
        <time>2012-12-23T08:18:16Z</time>
      </trkpt>
      <trkpt lat="44.33959" lon="2.66521">
        <ele>659.6018066</ele>
        <time>2012-12-23T08:18:17Z</time>
      </trkpt>
      <trkpt lat="44.33966" lon="2.66524">
        <ele>660.0822754</ele>
        <time>2012-12-23T08:18:24Z</time>
      </trkpt>
      <trkpt lat="44.33972" lon="2.66528">
        <ele>659.6018066</ele>
        <time>2012-12-23T08:18:29Z</time>
      </trkpt>
      <trkpt lat="44.33973" lon="2.6653">
        <ele>659.6018066</ele>
        <time>2012-12-23T08:18:31Z</time>
      </trkpt>
      <trkpt lat="44.33975" lon="2.66533">
        <ele>659.6018066</ele>
        <time>2012-12-23T08:18:34Z</time>
      </trkpt>
      <trkpt lat="44.33979" lon="2.66539">
        <ele>660.0822754</ele>
        <time>2012-12-23T08:18:40Z</time>
      </trkpt>
      <trkpt lat="44.33982" lon="2.66543">
        <ele>660.0822754</ele>
        <time>2012-12-23T08:18:44Z</time>
      </trkpt>
      <trkpt lat="44.33985" lon="2.66549">
        <ele>660.5629883</ele>
        <time>2012-12-23T08:18:49Z</time>
      </trkpt>
      <trkpt lat="44.33987" lon="2.66558">
        <ele>662.005127</ele>
        <time>2012-12-23T08:18:56Z</time>
      </trkpt>
      <trkpt lat="44.3399" lon="2.6657">
        <ele>662.4855957</ele>
        <time>2012-12-23T08:19:03Z</time>
      </trkpt>
      <trkpt lat="44.33995" lon="2.66581">
        <ele>665.3696289</ele>
        <time>2012-12-23T08:19:11Z</time>
      </trkpt>
      <trkpt lat="44.33996" lon="2.66582">
        <ele>665.8503418</ele>
        <time>2012-12-23T08:19:12Z</time>
      </trkpt>
      <trkpt lat="44.34" lon="2.66586">
        <ele>666.8115234</ele>
        <time>2012-12-23T08:19:15Z</time>
      </trkpt>
      <trkpt lat="44.34006" lon="2.66592">
        <ele>669.2150879</ele>
        <time>2012-12-23T08:19:21Z</time>
      </trkpt>
      <trkpt lat="44.34019" lon="2.66597">
        <ele>670.1762695</ele>
        <time>2012-12-23T08:19:29Z</time>
      </trkpt>
      <trkpt lat="44.34028" lon="2.66598">
        <ele>670.1762695</ele>
        <time>2012-12-23T08:19:33Z</time>
      </trkpt>
      <trkpt lat="44.34038" lon="2.66599">
        <ele>671.1376953</ele>
        <time>2012-12-23T08:19:38Z</time>
      </trkpt>
      <trkpt lat="44.3404" lon="2.66601">
        <ele>671.1376953</ele>
        <time>2012-12-23T08:19:39Z</time>
      </trkpt>
      <trkpt lat="44.34049" lon="2.66613">
        <ele>671.6181641</ele>
        <time>2012-12-23T08:19:45Z</time>
      </trkpt>
      <trkpt lat="44.34055" lon="2.66624">
        <ele>670.6569824</ele>
        <time>2012-12-23T08:19:49Z</time>
      </trkpt>
      <trkpt lat="44.3406" lon="2.66634">
        <ele>670.1762695</ele>
        <time>2012-12-23T08:19:54Z</time>
      </trkpt>
      <trkpt lat="44.34068" lon="2.66652">
        <ele>668.2536621</ele>
        <time>2012-12-23T08:20:00Z</time>
      </trkpt>
      <trkpt lat="44.34076" lon="2.66665">
        <ele>667.7727051</ele>
        <time>2012-12-23T08:20:05Z</time>
      </trkpt>
      <trkpt lat="44.34083" lon="2.66678">
        <ele>667.7727051</ele>
        <time>2012-12-23T08:20:09Z</time>
      </trkpt>
      <trkpt lat="44.34085" lon="2.6668">
        <ele>668.2536621</ele>
        <time>2012-12-23T08:20:10Z</time>
      </trkpt>
      <trkpt lat="44.34095" lon="2.66688">
        <ele>669.6958008</ele>
        <time>2012-12-23T08:20:16Z</time>
      </trkpt>
      <trkpt lat="44.34102" lon="2.6668">
        <ele>672.5795898</ele>
        <time>2012-12-23T08:20:21Z</time>
      </trkpt>
      <trkpt lat="44.34104" lon="2.66678">
        <ele>673.0603027</ele>
        <time>2012-12-23T08:20:23Z</time>
      </trkpt>
      <trkpt lat="44.34108" lon="2.66675">
        <ele>674.9829102</ele>
        <time>2012-12-23T08:20:26Z</time>
      </trkpt>
      <trkpt lat="44.3411" lon="2.66673">
        <ele>676.4248047</ele>
        <time>2012-12-23T08:20:28Z</time>
      </trkpt>
      <trkpt lat="44.34114" lon="2.66667">
        <ele>679.7893066</ele>
        <time>2012-12-23T08:20:34Z</time>
      </trkpt>
      <trkpt lat="44.3412" lon="2.66664">
        <ele>681.7119141</ele>
        <time>2012-12-23T08:20:40Z</time>
      </trkpt>
      <trkpt lat="44.34127" lon="2.66668">
        <ele>681.2314453</ele>
        <time>2012-12-23T08:20:50Z</time>
      </trkpt>
      <trkpt lat="44.3413" lon="2.66671">
        <ele>681.2314453</ele>
        <time>2012-12-23T08:20:55Z</time>
      </trkpt>
      <trkpt lat="44.34135" lon="2.66672">
        <ele>680.7507324</ele>
        <time>2012-12-23T08:21:01Z</time>
      </trkpt>
      <trkpt lat="44.34143" lon="2.66669">
        <ele>684.1154785</ele>
        <time>2012-12-23T08:21:05Z</time>
      </trkpt>
      <trkpt lat="44.3416" lon="2.66663">
        <ele>687.9606934</ele>
        <time>2012-12-23T08:21:11Z</time>
      </trkpt>
      <trkpt lat="44.34169" lon="2.66655">
        <ele>688.9221191</ele>
        <time>2012-12-23T08:21:16Z</time>
      </trkpt>
      <trkpt lat="44.34178" lon="2.66651">
        <ele>693.2478027</ele>
        <time>2012-12-23T08:21:21Z</time>
      </trkpt>
      <trkpt lat="44.34185" lon="2.66644">
        <ele>692.2866211</ele>
        <time>2012-12-23T08:21:24Z</time>
      </trkpt>
      <trkpt lat="44.34199" lon="2.66638">
        <ele>688.9221191</ele>
        <time>2012-12-23T08:21:29Z</time>
      </trkpt>
      <trkpt lat="44.34212" lon="2.66627">
        <ele>686.0380859</ele>
        <time>2012-12-23T08:21:36Z</time>
      </trkpt>
      <trkpt lat="44.3422" lon="2.66619">
        <ele>684.1154785</ele>
        <time>2012-12-23T08:21:40Z</time>
      </trkpt>
      <trkpt lat="44.34236" lon="2.66609">
        <ele>683.1538086</ele>
        <time>2012-12-23T08:21:47Z</time>
      </trkpt>
      <trkpt lat="44.34248" lon="2.66598">
        <ele>686.9992676</ele>
        <time>2012-12-23T08:21:52Z</time>
      </trkpt>
      <trkpt lat="44.34254" lon="2.66584">
        <ele>687.4799805</ele>
        <time>2012-12-23T08:21:56Z</time>
      </trkpt>
      <trkpt lat="44.34263" lon="2.66569">
        <ele>685.0769043</ele>
        <time>2012-12-23T08:22:01Z</time>
      </trkpt>
      <trkpt lat="44.34268" lon="2.66564">
        <ele>683.1538086</ele>
        <time>2012-12-23T08:22:03Z</time>
      </trkpt>
      <trkpt lat="44.34279" lon="2.66552">
        <ele>679.3085938</ele>
        <time>2012-12-23T08:22:08Z</time>
      </trkpt>
      <trkpt lat="44.34294" lon="2.66549">
        <ele>676.4248047</ele>
        <time>2012-12-23T08:22:13Z</time>
      </trkpt>
      <trkpt lat="44.34311" lon="2.66552">
        <ele>674.0214844</ele>
        <time>2012-12-23T08:22:19Z</time>
      </trkpt>
      <trkpt lat="44.34326" lon="2.66557">
        <ele>672.5795898</ele>
        <time>2012-12-23T08:22:25Z</time>
      </trkpt>
      <trkpt lat="44.34342" lon="2.66563">
        <ele>671.6181641</ele>
        <time>2012-12-23T08:22:31Z</time>
      </trkpt>
      <trkpt lat="44.34352" lon="2.66559">
        <ele>672.098877</ele>
        <time>2012-12-23T08:22:35Z</time>
      </trkpt>
      <trkpt lat="44.34369" lon="2.66544">
        <ele>674.9829102</ele>
        <time>2012-12-23T08:22:41Z</time>
      </trkpt>
      <trkpt lat="44.34377" lon="2.66532">
        <ele>675.9440918</ele>
        <time>2012-12-23T08:22:45Z</time>
      </trkpt>
      <trkpt lat="44.34385" lon="2.66518">
        <ele>674.9829102</ele>
        <time>2012-12-23T08:22:49Z</time>
      </trkpt>
      <trkpt lat="44.34396" lon="2.66502">
        <ele>674.0214844</ele>
        <time>2012-12-23T08:22:54Z</time>
      </trkpt>
      <trkpt lat="44.34405" lon="2.66491">
        <ele>672.5795898</ele>
        <time>2012-12-23T08:22:58Z</time>
      </trkpt>
      <trkpt lat="44.34418" lon="2.6648">
        <ele>668.2536621</ele>
        <time>2012-12-23T08:23:03Z</time>
      </trkpt>
      <trkpt lat="44.34421" lon="2.66478">
        <ele>667.2922363</ele>
        <time>2012-12-23T08:23:04Z</time>
      </trkpt>
      <trkpt lat="44.3443" lon="2.66472">
        <ele>663.9274902</ele>
        <time>2012-12-23T08:23:08Z</time>
      </trkpt>
      <trkpt lat="44.34433" lon="2.6647">
        <ele>663.9274902</ele>
        <time>2012-12-23T08:23:09Z</time>
      </trkpt>
      <trkpt lat="44.34446" lon="2.66458">
        <ele>663.4470215</ele>
        <time>2012-12-23T08:23:14Z</time>
      </trkpt>
      <trkpt lat="44.34461" lon="2.66445">
        <ele>663.4470215</ele>
        <time>2012-12-23T08:23:20Z</time>
      </trkpt>
      <trkpt lat="44.34472" lon="2.66434">
        <ele>663.9274902</ele>
        <time>2012-12-23T08:23:25Z</time>
      </trkpt>
      <trkpt lat="44.34482" lon="2.66426">
        <ele>662.9663086</ele>
        <time>2012-12-23T08:23:29Z</time>
      </trkpt>
      <trkpt lat="44.34498" lon="2.66417">
        <ele>661.0437012</ele>
        <time>2012-12-23T08:23:35Z</time>
      </trkpt>
      <trkpt lat="44.34514" lon="2.66415">
        <ele>660.0822754</ele>
        <time>2012-12-23T08:23:40Z</time>
      </trkpt>
      <trkpt lat="44.34529" lon="2.66413">
        <ele>657.1984863</ele>
        <time>2012-12-23T08:23:45Z</time>
      </trkpt>
      <trkpt lat="44.34543" lon="2.66413">
        <ele>653.8339844</ele>
        <time>2012-12-23T08:23:50Z</time>
      </trkpt>
      <trkpt lat="44.34554" lon="2.6641">
        <ele>652.3918457</ele>
        <time>2012-12-23T08:23:54Z</time>
      </trkpt>
      <trkpt lat="44.34566" lon="2.66408">
        <ele>649.9885254</ele>
        <time>2012-12-23T08:23:58Z</time>
      </trkpt>
      <trkpt lat="44.34583" lon="2.66406">
        <ele>648.5463867</ele>
        <time>2012-12-23T08:24:04Z</time>
      </trkpt>
      <trkpt lat="44.34595" lon="2.66405">
        <ele>648.5463867</ele>
        <time>2012-12-23T08:24:08Z</time>
      </trkpt>
      <trkpt lat="44.34608" lon="2.66406">
        <ele>648.065918</ele>
        <time>2012-12-23T08:24:13Z</time>
      </trkpt>
      <trkpt lat="44.34617" lon="2.66405">
        <ele>646.1433105</ele>
        <time>2012-12-23T08:24:16Z</time>
      </trkpt>
      <trkpt lat="44.3463" lon="2.66411">
        <ele>645.6625977</ele>
        <time>2012-12-23T08:24:21Z</time>
      </trkpt>
      <trkpt lat="44.34635" lon="2.66415">
        <ele>646.6240234</ele>
        <time>2012-12-23T08:24:24Z</time>
      </trkpt>
      <trkpt lat="44.34642" lon="2.66422">
        <ele>645.6625977</ele>
        <time>2012-12-23T08:24:28Z</time>
      </trkpt>
      <trkpt lat="44.3465" lon="2.6643">
        <ele>645.1818848</ele>
        <time>2012-12-23T08:24:33Z</time>
      </trkpt>
      <trkpt lat="44.3466" lon="2.66441">
        <ele>643.7399902</ele>
        <time>2012-12-23T08:24:38Z</time>
      </trkpt>
      <trkpt lat="44.34666" lon="2.6645">
        <ele>642.2980957</ele>
        <time>2012-12-23T08:24:43Z</time>
      </trkpt>
      <trkpt lat="44.34668" lon="2.66454">
        <ele>641.3366699</ele>
        <time>2012-12-23T08:24:45Z</time>
      </trkpt>
      <trkpt lat="44.34674" lon="2.66461">
        <ele>639.8947754</ele>
        <time>2012-12-23T08:24:49Z</time>
      </trkpt>
      <trkpt lat="44.34678" lon="2.66468">
        <ele>638.9335938</ele>
        <time>2012-12-23T08:24:55Z</time>
      </trkpt>
      <trkpt lat="44.34682" lon="2.66477">
        <ele>635.0881348</ele>
        <time>2012-12-23T08:24:59Z</time>
      </trkpt>
      <trkpt lat="44.34686" lon="2.66481">
        <ele>634.126709</ele>
        <time>2012-12-23T08:25:01Z</time>
      </trkpt>
      <trkpt lat="44.34691" lon="2.66487">
        <ele>634.6074219</ele>
        <time>2012-12-23T08:25:04Z</time>
      </trkpt>
      <trkpt lat="44.34689" lon="2.6649">
        <ele>636.5302734</ele>
        <time>2012-12-23T08:25:12Z</time>
      </trkpt>
      <trkpt lat="44.34684" lon="2.6649">
        <ele>638.4528809</ele>
        <time>2012-12-23T08:25:17Z</time>
      </trkpt>
      <trkpt lat="44.3468" lon="2.6649">
        <ele>642.2980957</ele>
        <time>2012-12-23T08:25:23Z</time>
      </trkpt>
      <trkpt lat="44.34673" lon="2.6649">
        <ele>647.1044922</ele>
        <time>2012-12-23T08:25:30Z</time>
      </trkpt>
      <trkpt lat="44.34668" lon="2.66491">
        <ele>648.5463867</ele>
        <time>2012-12-23T08:25:35Z</time>
      </trkpt>
      <trkpt lat="44.34665" lon="2.6649">
        <ele>648.5463867</ele>
        <time>2012-12-23T08:25:38Z</time>
      </trkpt>
      <trkpt lat="44.3466" lon="2.66488">
        <ele>649.9885254</ele>
        <time>2012-12-23T08:25:43Z</time>
      </trkpt>
      <trkpt lat="44.3465" lon="2.66488">
        <ele>652.8725586</ele>
        <time>2012-12-23T08:25:50Z</time>
      </trkpt>
      <trkpt lat="44.34643" lon="2.66487">
        <ele>652.8725586</ele>
        <time>2012-12-23T08:25:54Z</time>
      </trkpt>
      <trkpt lat="44.34631" lon="2.66482">
        <ele>653.8339844</ele>
        <time>2012-12-23T08:26:00Z</time>
      </trkpt>
      <trkpt lat="44.34622" lon="2.66479">
        <ele>654.795166</ele>
        <time>2012-12-23T08:26:05Z</time>
      </trkpt>
      <trkpt lat="44.34613" lon="2.66477">
        <ele>655.2758789</ele>
        <time>2012-12-23T08:26:09Z</time>
      </trkpt>
      <trkpt lat="44.34597" lon="2.66483">
        <ele>655.7565918</ele>
        <time>2012-12-23T08:26:17Z</time>
      </trkpt>
      <trkpt lat="44.3459" lon="2.66486">
        <ele>653.8339844</ele>
        <time>2012-12-23T08:26:22Z</time>
      </trkpt>
      <trkpt lat="44.34577" lon="2.6649">
        <ele>653.3532715</ele>
        <time>2012-12-23T08:26:28Z</time>
      </trkpt>
      <trkpt lat="44.34573" lon="2.6649">
        <ele>652.3918457</ele>
        <time>2012-12-23T08:26:30Z</time>
      </trkpt>
      <trkpt lat="44.34563" lon="2.66489">
        <ele>649.9885254</ele>
        <time>2012-12-23T08:26:35Z</time>
      </trkpt>
      <trkpt lat="44.3456" lon="2.66488">
        <ele>649.9885254</ele>
        <time>2012-12-23T08:26:36Z</time>
      </trkpt>
      <trkpt lat="44.34546" lon="2.66487">
        <ele>648.5463867</ele>
        <time>2012-12-23T08:26:42Z</time>
      </trkpt>
      <trkpt lat="44.34537" lon="2.66486">
        <ele>649.9885254</ele>
        <time>2012-12-23T08:26:46Z</time>
      </trkpt>
      <trkpt lat="44.34523" lon="2.66489">
        <ele>650.4692383</ele>
        <time>2012-12-23T08:26:51Z</time>
      </trkpt>
      <trkpt lat="44.34518" lon="2.66489">
        <ele>650.949707</ele>
        <time>2012-12-23T08:26:53Z</time>
      </trkpt>
      <trkpt lat="44.34498" lon="2.66495">
        <ele>650.949707</ele>
        <time>2012-12-23T08:27:00Z</time>
      </trkpt>
      <trkpt lat="44.34488" lon="2.66501">
        <ele>649.9885254</ele>
        <time>2012-12-23T08:27:04Z</time>
      </trkpt>
      <trkpt lat="44.3448" lon="2.66515">
        <ele>654.3146973</ele>
        <time>2012-12-23T08:27:09Z</time>
      </trkpt>
      <trkpt lat="44.34477" lon="2.6652">
        <ele>655.7565918</ele>
        <time>2012-12-23T08:27:11Z</time>
      </trkpt>
      <trkpt lat="44.34473" lon="2.66531">
        <ele>659.6018066</ele>
        <time>2012-12-23T08:27:16Z</time>
      </trkpt>
      <trkpt lat="44.34471" lon="2.6654">
        <ele>661.5244141</ele>
        <time>2012-12-23T08:27:21Z</time>
      </trkpt>
      <trkpt lat="44.34469" lon="2.66552">
        <ele>668.734375</ele>
        <time>2012-12-23T08:27:30Z</time>
      </trkpt>
      <trkpt lat="44.34469" lon="2.66559">
        <ele>668.734375</ele>
        <time>2012-12-23T08:27:35Z</time>
      </trkpt>
      <trkpt lat="44.34469" lon="2.66569">
        <ele>672.5795898</ele>
        <time>2012-12-23T08:27:43Z</time>
      </trkpt>
      <trkpt lat="44.3447" lon="2.66577">
        <ele>674.5021973</ele>
        <time>2012-12-23T08:27:48Z</time>
      </trkpt>
      <trkpt lat="44.3447" lon="2.66586">
        <ele>677.3862305</ele>
        <time>2012-12-23T08:27:55Z</time>
      </trkpt>
      <trkpt lat="44.34472" lon="2.66595">
        <ele>680.2700195</ele>
        <time>2012-12-23T08:28:02Z</time>
      </trkpt>
      <trkpt lat="44.34474" lon="2.66603">
        <ele>682.192627</ele>
        <time>2012-12-23T08:28:08Z</time>
      </trkpt>
      <trkpt lat="44.34475" lon="2.66612">
        <ele>685.0769043</ele>
        <time>2012-12-23T08:28:15Z</time>
      </trkpt>
      <trkpt lat="44.34477" lon="2.66617">
        <ele>686.5187988</ele>
        <time>2012-12-23T08:28:20Z</time>
      </trkpt>
      <trkpt lat="44.34477" lon="2.66624">
        <ele>689.4025879</ele>
        <time>2012-12-23T08:28:26Z</time>
      </trkpt>
      <trkpt lat="44.34478" lon="2.6663">
        <ele>690.8444824</ele>
        <time>2012-12-23T08:28:32Z</time>
      </trkpt>
      <trkpt lat="44.3448" lon="2.66638">
        <ele>692.767334</ele>
        <time>2012-12-23T08:28:38Z</time>
      </trkpt>
      <trkpt lat="44.34482" lon="2.66649">
        <ele>696.1318359</ele>
        <time>2012-12-23T08:28:47Z</time>
      </trkpt>
      <trkpt lat="44.34483" lon="2.66656">
        <ele>697.0930176</ele>
        <time>2012-12-23T08:28:52Z</time>
      </trkpt>
      <trkpt lat="44.34484" lon="2.66663">
        <ele>698.0544434</ele>
        <time>2012-12-23T08:28:57Z</time>
      </trkpt>
      <trkpt lat="44.34486" lon="2.66675">
        <ele>699.9770508</ele>
        <time>2012-12-23T08:29:05Z</time>
      </trkpt>
      <trkpt lat="44.34486" lon="2.66684">
        <ele>702.861084</ele>
        <time>2012-12-23T08:29:10Z</time>
      </trkpt>
      <trkpt lat="44.34488" lon="2.66693">
        <ele>703.8225098</ele>
        <time>2012-12-23T08:29:15Z</time>
      </trkpt>
      <trkpt lat="44.34488" lon="2.66694">
        <ele>703.8225098</ele>
        <time>2012-12-23T08:29:16Z</time>
      </trkpt>
      <trkpt lat="44.34489" lon="2.66703">
        <ele>704.7836914</ele>
        <time>2012-12-23T08:29:21Z</time>
      </trkpt>
      <trkpt lat="44.34494" lon="2.66716">
        <ele>706.2255859</ele>
        <time>2012-12-23T08:29:28Z</time>
      </trkpt>
      <trkpt lat="44.34495" lon="2.66721">
        <ele>706.7062988</ele>
        <time>2012-12-23T08:29:31Z</time>
      </trkpt>
      <trkpt lat="44.34497" lon="2.66729">
        <ele>706.7062988</ele>
        <time>2012-12-23T08:29:36Z</time>
      </trkpt>
      <trkpt lat="44.34498" lon="2.66737">
        <ele>708.1484375</ele>
        <time>2012-12-23T08:29:40Z</time>
      </trkpt>
      <trkpt lat="44.34498" lon="2.6674">
        <ele>709.1096191</ele>
        <time>2012-12-23T08:29:46Z</time>
      </trkpt>
      <trkpt lat="44.34501" lon="2.6674">
        <ele>709.1096191</ele>
        <time>2012-12-23T08:29:52Z</time>
      </trkpt>
      <trkpt lat="44.34516" lon="2.6673">
        <ele>707.6677246</ele>
        <time>2012-12-23T08:29:58Z</time>
      </trkpt>
      <trkpt lat="44.34528" lon="2.66718">
        <ele>705.7451172</ele>
        <time>2012-12-23T08:30:03Z</time>
      </trkpt>
      <trkpt lat="44.34536" lon="2.66709">
        <ele>704.3032227</ele>
        <time>2012-12-23T08:30:07Z</time>
      </trkpt>
      <trkpt lat="44.34538" lon="2.66706">
        <ele>703.8225098</ele>
        <time>2012-12-23T08:30:08Z</time>
      </trkpt>
      <trkpt lat="44.34552" lon="2.66707">
        <ele>700.9384766</ele>
        <time>2012-12-23T08:30:13Z</time>
      </trkpt>
      <trkpt lat="44.34559" lon="2.66711">
        <ele>699.015625</ele>
        <time>2012-12-23T08:30:17Z</time>
      </trkpt>
      <trkpt lat="44.34559" lon="2.66712">
        <ele>698.0544434</ele>
        <time>2012-12-23T08:30:19Z</time>
      </trkpt>
      <trkpt lat="44.34564" lon="2.66725">
        <ele>696.1318359</ele>
        <time>2012-12-23T08:30:23Z</time>
      </trkpt>
      <trkpt lat="44.34569" lon="2.6674">
        <ele>693.7285156</ele>
        <time>2012-12-23T08:30:27Z</time>
      </trkpt>
      <trkpt lat="44.34574" lon="2.66758">
        <ele>689.8833008</ele>
        <time>2012-12-23T08:30:32Z</time>
      </trkpt>
      <trkpt lat="44.34577" lon="2.66782">
        <ele>686.0380859</ele>
        <time>2012-12-23T08:30:38Z</time>
      </trkpt>
      <trkpt lat="44.34579" lon="2.66799">
        <ele>684.5961914</ele>
        <time>2012-12-23T08:30:43Z</time>
      </trkpt>
      <trkpt lat="44.34579" lon="2.66807">
        <ele>684.1154785</ele>
        <time>2012-12-23T08:30:45Z</time>
      </trkpt>
      <trkpt lat="44.34578" lon="2.66832">
        <ele>682.6733398</ele>
        <time>2012-12-23T08:30:51Z</time>
      </trkpt>
      <trkpt lat="44.34578" lon="2.66857">
        <ele>683.1538086</ele>
        <time>2012-12-23T08:30:57Z</time>
      </trkpt>
      <trkpt lat="44.34577" lon="2.66878">
        <ele>682.6733398</ele>
        <time>2012-12-23T08:31:02Z</time>
      </trkpt>
      <trkpt lat="44.34575" lon="2.66897">
        <ele>682.6733398</ele>
        <time>2012-12-23T08:31:07Z</time>
      </trkpt>
      <trkpt lat="44.34569" lon="2.66911">
        <ele>681.7119141</ele>
        <time>2012-12-23T08:31:11Z</time>
      </trkpt>
      <trkpt lat="44.34565" lon="2.66926">
        <ele>680.7507324</ele>
        <time>2012-12-23T08:31:15Z</time>
      </trkpt>
      <trkpt lat="44.34561" lon="2.66945">
        <ele>679.7893066</ele>
        <time>2012-12-23T08:31:20Z</time>
      </trkpt>
      <trkpt lat="44.3456" lon="2.66961">
        <ele>678.828125</ele>
        <time>2012-12-23T08:31:24Z</time>
      </trkpt>
      <trkpt lat="44.34559" lon="2.66984">
        <ele>677.3862305</ele>
        <time>2012-12-23T08:31:30Z</time>
      </trkpt>
      <trkpt lat="44.34558" lon="2.67003">
        <ele>674.9829102</ele>
        <time>2012-12-23T08:31:35Z</time>
      </trkpt>
      <trkpt lat="44.34555" lon="2.67027">
        <ele>672.098877</ele>
        <time>2012-12-23T08:31:41Z</time>
      </trkpt>
      <trkpt lat="44.34554" lon="2.67043">
        <ele>670.1762695</ele>
        <time>2012-12-23T08:31:45Z</time>
      </trkpt>
      <trkpt lat="44.34552" lon="2.67063">
        <ele>668.734375</ele>
        <time>2012-12-23T08:31:50Z</time>
      </trkpt>
      <trkpt lat="44.3455" lon="2.67083">
        <ele>666.8115234</ele>
        <time>2012-12-23T08:31:55Z</time>
      </trkpt>
      <trkpt lat="44.34551" lon="2.67086">
        <ele>666.8115234</ele>
        <time>2012-12-23T08:31:56Z</time>
      </trkpt>
      <trkpt lat="44.34553" lon="2.67091">
        <ele>671.1376953</ele>
        <time>2012-12-23T08:32:04Z</time>
      </trkpt>
      <trkpt lat="44.34555" lon="2.67092">
        <ele>671.1376953</ele>
        <time>2012-12-23T08:32:06Z</time>
      </trkpt>
      <trkpt lat="44.34562" lon="2.67099">
        <ele>669.2150879</ele>
        <time>2012-12-23T08:32:11Z</time>
      </trkpt>
      <trkpt lat="44.34556" lon="2.67099">
        <ele>668.2536621</ele>
        <time>2012-12-23T08:32:15Z</time>
      </trkpt>
      <trkpt lat="44.3455" lon="2.67098">
        <ele>669.2150879</ele>
        <time>2012-12-23T08:32:19Z</time>
      </trkpt>
      <trkpt lat="44.34548" lon="2.67102">
        <ele>669.2150879</ele>
        <time>2012-12-23T08:32:21Z</time>
      </trkpt>
      <trkpt lat="44.34546" lon="2.67107">
        <ele>668.734375</ele>
        <time>2012-12-23T08:32:24Z</time>
      </trkpt>
      <trkpt lat="44.34541" lon="2.67114">
        <ele>665.8503418</ele>
        <time>2012-12-23T08:32:31Z</time>
      </trkpt>
      <trkpt lat="44.34542" lon="2.6711">
        <ele>666.8115234</ele>
        <time>2012-12-23T08:32:35Z</time>
      </trkpt>
      <trkpt lat="44.34549" lon="2.67104">
        <ele>667.7727051</ele>
        <time>2012-12-23T08:32:40Z</time>
      </trkpt>
      <trkpt lat="44.34559" lon="2.67103">
        <ele>668.734375</ele>
        <time>2012-12-23T08:32:45Z</time>
      </trkpt>
      <trkpt lat="44.3457" lon="2.67098">
        <ele>667.7727051</ele>
        <time>2012-12-23T08:32:49Z</time>
      </trkpt>
      <trkpt lat="44.34579" lon="2.67094">
        <ele>666.3308105</ele>
        <time>2012-12-23T08:32:53Z</time>
      </trkpt>
      <trkpt lat="44.34593" lon="2.67093">
        <ele>666.3308105</ele>
        <time>2012-12-23T08:32:59Z</time>
      </trkpt>
      <trkpt lat="44.34608" lon="2.6709">
        <ele>665.3696289</ele>
        <time>2012-12-23T08:33:04Z</time>
      </trkpt>
      <trkpt lat="44.34625" lon="2.67086">
        <ele>663.9274902</ele>
        <time>2012-12-23T08:33:10Z</time>
      </trkpt>
      <trkpt lat="44.34636" lon="2.67082">
        <ele>662.4855957</ele>
        <time>2012-12-23T08:33:14Z</time>
      </trkpt>
      <trkpt lat="44.34652" lon="2.67073">
        <ele>660.0822754</ele>
        <time>2012-12-23T08:33:20Z</time>
      </trkpt>
      <trkpt lat="44.34668" lon="2.67064">
        <ele>655.7565918</ele>
        <time>2012-12-23T08:33:26Z</time>
      </trkpt>
      <trkpt lat="44.34673" lon="2.67061">
        <ele>654.3146973</ele>
        <time>2012-12-23T08:33:28Z</time>
      </trkpt>
      <trkpt lat="44.34682" lon="2.67051">
        <ele>652.3918457</ele>
        <time>2012-12-23T08:33:32Z</time>
      </trkpt>
      <trkpt lat="44.34694" lon="2.67041">
        <ele>649.9885254</ele>
        <time>2012-12-23T08:33:37Z</time>
      </trkpt>
      <trkpt lat="44.34698" lon="2.67038">
        <ele>649.0270996</ele>
        <time>2012-12-23T08:33:39Z</time>
      </trkpt>
      <trkpt lat="44.34711" lon="2.67026">
        <ele>646.1433105</ele>
        <time>2012-12-23T08:33:45Z</time>
      </trkpt>
      <trkpt lat="44.34719" lon="2.67014">
        <ele>644.2207031</ele>
        <time>2012-12-23T08:33:49Z</time>
      </trkpt>
      <trkpt lat="44.3473" lon="2.67009">
        <ele>642.2980957</ele>
        <time>2012-12-23T08:33:53Z</time>
      </trkpt>
      <trkpt lat="44.34744" lon="2.67011">
        <ele>640.855957</ele>
        <time>2012-12-23T08:33:58Z</time>
      </trkpt>
      <trkpt lat="44.34753" lon="2.67016">
        <ele>638.9335938</ele>
        <time>2012-12-23T08:34:02Z</time>
      </trkpt>
      <trkpt lat="44.34768" lon="2.67026">
        <ele>635.0881348</ele>
        <time>2012-12-23T08:34:08Z</time>
      </trkpt>
      <trkpt lat="44.3478" lon="2.67039">
        <ele>632.2041016</ele>
        <time>2012-12-23T08:34:14Z</time>
      </trkpt>
      <trkpt lat="44.34788" lon="2.67044">
        <ele>631.2429199</ele>
        <time>2012-12-23T08:34:17Z</time>
      </trkpt>
      <trkpt lat="44.34807" lon="2.67051">
        <ele>629.8007813</ele>
        <time>2012-12-23T08:34:23Z</time>
      </trkpt>
      <trkpt lat="44.3482" lon="2.67059">
        <ele>628.8395996</ele>
        <time>2012-12-23T08:34:28Z</time>
      </trkpt>
      <trkpt lat="44.34823" lon="2.6706">
        <ele>628.3588867</ele>
        <time>2012-12-23T08:34:29Z</time>
      </trkpt>
      <trkpt lat="44.34837" lon="2.67057">
        <ele>628.8395996</ele>
        <time>2012-12-23T08:34:34Z</time>
      </trkpt>
      <trkpt lat="44.34855" lon="2.67046">
        <ele>626.9169922</ele>
        <time>2012-12-23T08:34:41Z</time>
      </trkpt>
      <trkpt lat="44.34868" lon="2.67037">
        <ele>624.9943848</ele>
        <time>2012-12-23T08:34:46Z</time>
      </trkpt>
      <trkpt lat="44.34882" lon="2.67028">
        <ele>623.5524902</ele>
        <time>2012-12-23T08:34:51Z</time>
      </trkpt>
      <trkpt lat="44.34891" lon="2.67019">
        <ele>622.5910645</ele>
        <time>2012-12-23T08:34:55Z</time>
      </trkpt>
      <trkpt lat="44.349" lon="2.67008">
        <ele>622.5910645</ele>
        <time>2012-12-23T08:34:59Z</time>
      </trkpt>
      <trkpt lat="44.34909" lon="2.66999">
        <ele>622.1103516</ele>
        <time>2012-12-23T08:35:03Z</time>
      </trkpt>
      <trkpt lat="44.34911" lon="2.66995">
        <ele>621.6296387</ele>
        <time>2012-12-23T08:35:04Z</time>
      </trkpt>
      <trkpt lat="44.34919" lon="2.66987">
        <ele>621.1491699</ele>
        <time>2012-12-23T08:35:07Z</time>
      </trkpt>
      <trkpt lat="44.34933" lon="2.66975">
        <ele>620.1877441</ele>
        <time>2012-12-23T08:35:13Z</time>
      </trkpt>
      <trkpt lat="44.34946" lon="2.66963">
        <ele>618.7456055</ele>
        <time>2012-12-23T08:35:19Z</time>
      </trkpt>
      <trkpt lat="44.34957" lon="2.66953">
        <ele>617.3037109</ele>
        <time>2012-12-23T08:35:24Z</time>
      </trkpt>
      <trkpt lat="44.34964" lon="2.66961">
        <ele>615.3811035</ele>
        <time>2012-12-23T08:35:27Z</time>
      </trkpt>
      <trkpt lat="44.34975" lon="2.66975">
        <ele>612.0166016</ele>
        <time>2012-12-23T08:35:32Z</time>
      </trkpt>
      <trkpt lat="44.34977" lon="2.66977">
        <ele>611.0551758</ele>
        <time>2012-12-23T08:35:33Z</time>
      </trkpt>
      <trkpt lat="44.34986" lon="2.66995">
        <ele>606.729248</ele>
        <time>2012-12-23T08:35:39Z</time>
      </trkpt>
      <trkpt lat="44.34994" lon="2.67013">
        <ele>605.7680664</ele>
        <time>2012-12-23T08:35:44Z</time>
      </trkpt>
      <trkpt lat="44.34999" lon="2.67027">
        <ele>604.3261719</ele>
        <time>2012-12-23T08:35:48Z</time>
      </trkpt>
      <trkpt lat="44.35004" lon="2.67049">
        <ele>600.4807129</ele>
        <time>2012-12-23T08:35:54Z</time>
      </trkpt>
      <trkpt lat="44.35007" lon="2.67073">
        <ele>597.5966797</ele>
        <time>2012-12-23T08:36:00Z</time>
      </trkpt>
      <trkpt lat="44.35008" lon="2.67097">
        <ele>594.2321777</ele>
        <time>2012-12-23T08:36:06Z</time>
      </trkpt>
      <trkpt lat="44.35007" lon="2.67114">
        <ele>592.7902832</ele>
        <time>2012-12-23T08:36:10Z</time>
      </trkpt>
      <trkpt lat="44.35007" lon="2.6713">
        <ele>591.8288574</ele>
        <time>2012-12-23T08:36:14Z</time>
      </trkpt>
      <trkpt lat="44.35007" lon="2.6715">
        <ele>590.3869629</ele>
        <time>2012-12-23T08:36:19Z</time>
      </trkpt>
      <trkpt lat="44.35007" lon="2.67167">
        <ele>589.4255371</ele>
        <time>2012-12-23T08:36:23Z</time>
      </trkpt>
      <trkpt lat="44.35006" lon="2.67182">
        <ele>587.9833984</ele>
        <time>2012-12-23T08:36:27Z</time>
      </trkpt>
      <trkpt lat="44.35006" lon="2.67186">
        <ele>587.9833984</ele>
        <time>2012-12-23T08:36:28Z</time>
      </trkpt>
      <trkpt lat="44.35005" lon="2.67206">
        <ele>586.5415039</ele>
        <time>2012-12-23T08:36:33Z</time>
      </trkpt>
      <trkpt lat="44.35006" lon="2.67218">
        <ele>584.6188965</ele>
        <time>2012-12-23T08:36:37Z</time>
      </trkpt>
      <trkpt lat="44.3501" lon="2.67227">
        <ele>583.6574707</ele>
        <time>2012-12-23T08:36:42Z</time>
      </trkpt>
      <trkpt lat="44.35018" lon="2.67245">
        <ele>582.6962891</ele>
        <time>2012-12-23T08:36:47Z</time>
      </trkpt>
      <trkpt lat="44.35023" lon="2.67259">
        <ele>580.2929688</ele>
        <time>2012-12-23T08:36:51Z</time>
      </trkpt>
      <trkpt lat="44.35026" lon="2.67274">
        <ele>579.331543</ele>
        <time>2012-12-23T08:36:55Z</time>
      </trkpt>
      <trkpt lat="44.3503" lon="2.67281">
        <ele>578.3703613</ele>
        <time>2012-12-23T08:36:57Z</time>
      </trkpt>
      <trkpt lat="44.35036" lon="2.673">
        <ele>576.4477539</ele>
        <time>2012-12-23T08:37:03Z</time>
      </trkpt>
      <trkpt lat="44.35042" lon="2.67307">
        <ele>575.4863281</ele>
        <time>2012-12-23T08:37:07Z</time>
      </trkpt>
      <trkpt lat="44.35053" lon="2.67312">
        <ele>574.0444336</ele>
        <time>2012-12-23T08:37:12Z</time>
      </trkpt>
      <trkpt lat="44.35066" lon="2.67315">
        <ele>573.083252</ele>
        <time>2012-12-23T08:37:17Z</time>
      </trkpt>
      <trkpt lat="44.35081" lon="2.67319">
        <ele>572.6025391</ele>
        <time>2012-12-23T08:37:22Z</time>
      </trkpt>
      <trkpt lat="44.35098" lon="2.67325">
        <ele>571.6408691</ele>
        <time>2012-12-23T08:37:28Z</time>
      </trkpt>
      <trkpt lat="44.35113" lon="2.67333">
        <ele>574.5251465</ele>
        <time>2012-12-23T08:37:33Z</time>
      </trkpt>
      <trkpt lat="44.35125" lon="2.67338">
        <ele>575.4863281</ele>
        <time>2012-12-23T08:37:38Z</time>
      </trkpt>
      <trkpt lat="44.35137" lon="2.67341">
        <ele>576.4477539</ele>
        <time>2012-12-23T08:37:42Z</time>
      </trkpt>
      <trkpt lat="44.35148" lon="2.67346">
        <ele>576.4477539</ele>
        <time>2012-12-23T08:37:46Z</time>
      </trkpt>
      <trkpt lat="44.35164" lon="2.67352">
        <ele>576.4477539</ele>
        <time>2012-12-23T08:37:51Z</time>
      </trkpt>
      <trkpt lat="44.35169" lon="2.67355">
        <ele>575.967041</ele>
        <time>2012-12-23T08:37:53Z</time>
      </trkpt>
      <trkpt lat="44.35184" lon="2.67359">
        <ele>575.0058594</ele>
        <time>2012-12-23T08:37:58Z</time>
      </trkpt>
      <trkpt lat="44.35199" lon="2.67365">
        <ele>574.0444336</ele>
        <time>2012-12-23T08:38:03Z</time>
      </trkpt>
      <trkpt lat="44.35208" lon="2.67369">
        <ele>573.083252</ele>
        <time>2012-12-23T08:38:06Z</time>
      </trkpt>
      <trkpt lat="44.35221" lon="2.67378">
        <ele>573.083252</ele>
        <time>2012-12-23T08:38:11Z</time>
      </trkpt>
      <trkpt lat="44.35237" lon="2.67389">
        <ele>574.0444336</ele>
        <time>2012-12-23T08:38:17Z</time>
      </trkpt>
      <trkpt lat="44.3525" lon="2.67399">
        <ele>575.4863281</ele>
        <time>2012-12-23T08:38:22Z</time>
      </trkpt>
      <trkpt lat="44.35261" lon="2.67412">
        <ele>575.0058594</ele>
        <time>2012-12-23T08:38:27Z</time>
      </trkpt>
      <trkpt lat="44.35266" lon="2.67418">
        <ele>575.0058594</ele>
        <time>2012-12-23T08:38:29Z</time>
      </trkpt>
      <trkpt lat="44.35273" lon="2.67427">
        <ele>574.0444336</ele>
        <time>2012-12-23T08:38:33Z</time>
      </trkpt>
      <trkpt lat="44.35288" lon="2.67438">
        <ele>573.083252</ele>
        <time>2012-12-23T08:38:39Z</time>
      </trkpt>
      <trkpt lat="44.35303" lon="2.67452">
        <ele>573.5639648</ele>
        <time>2012-12-23T08:38:45Z</time>
      </trkpt>
      <trkpt lat="44.35315" lon="2.67466">
        <ele>573.083252</ele>
        <time>2012-12-23T08:38:51Z</time>
      </trkpt>
      <trkpt lat="44.35325" lon="2.67475">
        <ele>572.6025391</ele>
        <time>2012-12-23T08:38:55Z</time>
      </trkpt>
      <trkpt lat="44.35337" lon="2.67491">
        <ele>572.1218262</ele>
        <time>2012-12-23T08:39:01Z</time>
      </trkpt>
      <trkpt lat="44.35347" lon="2.67506">
        <ele>571.1604004</ele>
        <time>2012-12-23T08:39:06Z</time>
      </trkpt>
      <trkpt lat="44.35358" lon="2.67518">
        <ele>571.6408691</ele>
        <time>2012-12-23T08:39:11Z</time>
      </trkpt>
      <trkpt lat="44.35367" lon="2.67524">
        <ele>571.6408691</ele>
        <time>2012-12-23T08:39:15Z</time>
      </trkpt>
      <trkpt lat="44.35382" lon="2.6753">
        <ele>572.6025391</ele>
        <time>2012-12-23T08:39:21Z</time>
      </trkpt>
      <trkpt lat="44.35396" lon="2.67536">
        <ele>573.5639648</ele>
        <time>2012-12-23T08:39:26Z</time>
      </trkpt>
      <trkpt lat="44.35411" lon="2.67538">
        <ele>573.5639648</ele>
        <time>2012-12-23T08:39:31Z</time>
      </trkpt>
      <trkpt lat="44.35426" lon="2.6754">
        <ele>572.1218262</ele>
        <time>2012-12-23T08:39:37Z</time>
      </trkpt>
      <trkpt lat="44.35435" lon="2.67542">
        <ele>572.1218262</ele>
        <time>2012-12-23T08:39:41Z</time>
      </trkpt>
      <trkpt lat="44.35453" lon="2.67547">
        <ele>571.1604004</ele>
        <time>2012-12-23T08:39:47Z</time>
      </trkpt>
      <trkpt lat="44.35463" lon="2.67551">
        <ele>570.6796875</ele>
        <time>2012-12-23T08:39:51Z</time>
      </trkpt>
      <trkpt lat="44.35475" lon="2.67556">
        <ele>570.1989746</ele>
        <time>2012-12-23T08:39:55Z</time>
      </trkpt>
      <trkpt lat="44.35488" lon="2.67565">
        <ele>568.7570801</ele>
        <time>2012-12-23T08:40:00Z</time>
      </trkpt>
      <trkpt lat="44.35501" lon="2.67574">
        <ele>568.2763672</ele>
        <time>2012-12-23T08:40:05Z</time>
      </trkpt>
      <trkpt lat="44.3551" lon="2.6758">
        <ele>568.2763672</ele>
        <time>2012-12-23T08:40:09Z</time>
      </trkpt>
      <trkpt lat="44.35516" lon="2.67583">
        <ele>568.2763672</ele>
        <time>2012-12-23T08:40:11Z</time>
      </trkpt>
      <trkpt lat="44.35525" lon="2.67589">
        <ele>568.7570801</ele>
        <time>2012-12-23T08:40:15Z</time>
      </trkpt>
      <trkpt lat="44.35531" lon="2.67592">
        <ele>569.7185059</ele>
        <time>2012-12-23T08:40:17Z</time>
      </trkpt>
      <trkpt lat="44.35545" lon="2.67602">
        <ele>571.1604004</ele>
        <time>2012-12-23T08:40:23Z</time>
      </trkpt>
      <trkpt lat="44.35556" lon="2.67611">
        <ele>572.1218262</ele>
        <time>2012-12-23T08:40:28Z</time>
      </trkpt>
      <trkpt lat="44.3556" lon="2.67614">
        <ele>572.1218262</ele>
        <time>2012-12-23T08:40:31Z</time>
      </trkpt>
      <trkpt lat="44.35565" lon="2.67617">
        <ele>574.5251465</ele>
        <time>2012-12-23T08:40:39Z</time>
      </trkpt>
      <trkpt lat="44.35568" lon="2.67617">
        <ele>575.0058594</ele>
        <time>2012-12-23T08:40:45Z</time>
      </trkpt>
      <trkpt lat="44.35571" lon="2.67618">
        <ele>577.4091797</ele>
        <time>2012-12-23T08:40:51Z</time>
      </trkpt>
      <trkpt lat="44.35573" lon="2.6762">
        <ele>575.4863281</ele>
        <time>2012-12-23T08:41:02Z</time>
      </trkpt>
      <trkpt lat="44.35572" lon="2.67619">
        <ele>578.8510742</ele>
        <time>2012-12-23T08:41:12Z</time>
      </trkpt>
      <trkpt lat="44.35572" lon="2.67618">
        <ele>584.6188965</ele>
        <time>2012-12-23T08:41:22Z</time>
      </trkpt>
      <trkpt lat="44.3557" lon="2.67617">
        <ele>585.0996094</ele>
        <time>2012-12-23T08:41:29Z</time>
      </trkpt>
      <trkpt lat="44.35572" lon="2.67617">
        <ele>584.1381836</ele>
        <time>2012-12-23T08:41:36Z</time>
      </trkpt>
      <trkpt lat="44.3558" lon="2.67619">
        <ele>581.7348633</ele>
        <time>2012-12-23T08:41:41Z</time>
      </trkpt>
      <trkpt lat="44.3559" lon="2.67626">
        <ele>580.7736816</ele>
        <time>2012-12-23T08:41:46Z</time>
      </trkpt>
      <trkpt lat="44.35598" lon="2.67632">
        <ele>579.8122559</ele>
        <time>2012-12-23T08:41:50Z</time>
      </trkpt>
      <trkpt lat="44.35608" lon="2.67636">
        <ele>579.331543</ele>
        <time>2012-12-23T08:41:55Z</time>
      </trkpt>
      <trkpt lat="44.3561" lon="2.67642">
        <ele>579.331543</ele>
        <time>2012-12-23T08:41:57Z</time>
      </trkpt>
      <trkpt lat="44.35615" lon="2.67663">
        <ele>579.8122559</ele>
        <time>2012-12-23T08:42:03Z</time>
      </trkpt>
      <trkpt lat="44.35619" lon="2.67678">
        <ele>580.2929688</ele>
        <time>2012-12-23T08:42:07Z</time>
      </trkpt>
      <trkpt lat="44.35623" lon="2.67696">
        <ele>579.331543</ele>
        <time>2012-12-23T08:42:12Z</time>
      </trkpt>
      <trkpt lat="44.35626" lon="2.67714">
        <ele>579.331543</ele>
        <time>2012-12-23T08:42:17Z</time>
      </trkpt>
      <trkpt lat="44.35628" lon="2.67737">
        <ele>579.331543</ele>
        <time>2012-12-23T08:42:23Z</time>
      </trkpt>
      <trkpt lat="44.3563" lon="2.67755">
        <ele>579.8122559</ele>
        <time>2012-12-23T08:42:27Z</time>
      </trkpt>
      <trkpt lat="44.35638" lon="2.67777">
        <ele>579.331543</ele>
        <time>2012-12-23T08:42:33Z</time>
      </trkpt>
      <trkpt lat="44.35644" lon="2.6779">
        <ele>578.8510742</ele>
        <time>2012-12-23T08:42:37Z</time>
      </trkpt>
      <trkpt lat="44.35646" lon="2.67806">
        <ele>578.8510742</ele>
        <time>2012-12-23T08:42:41Z</time>
      </trkpt>
      <trkpt lat="44.35649" lon="2.67825">
        <ele>577.4091797</ele>
        <time>2012-12-23T08:42:46Z</time>
      </trkpt>
      <trkpt lat="44.35654" lon="2.67844">
        <ele>575.4863281</ele>
        <time>2012-12-23T08:42:51Z</time>
      </trkpt>
      <trkpt lat="44.35655" lon="2.6786">
        <ele>574.0444336</ele>
        <time>2012-12-23T08:42:55Z</time>
      </trkpt>
      <trkpt lat="44.35658" lon="2.67875">
        <ele>573.083252</ele>
        <time>2012-12-23T08:42:59Z</time>
      </trkpt>
      <trkpt lat="44.35667" lon="2.67886">
        <ele>572.6025391</ele>
        <time>2012-12-23T08:43:03Z</time>
      </trkpt>
      <trkpt lat="44.35676" lon="2.67894">
        <ele>572.6025391</ele>
        <time>2012-12-23T08:43:07Z</time>
      </trkpt>
      <trkpt lat="44.35684" lon="2.67907">
        <ele>572.6025391</ele>
        <time>2012-12-23T08:43:12Z</time>
      </trkpt>
      <trkpt lat="44.35685" lon="2.6791">
        <ele>572.6025391</ele>
        <time>2012-12-23T08:43:13Z</time>
      </trkpt>
      <trkpt lat="44.35696" lon="2.6793">
        <ele>572.6025391</ele>
        <time>2012-12-23T08:43:19Z</time>
      </trkpt>
      <trkpt lat="44.357" lon="2.67945">
        <ele>572.1218262</ele>
        <time>2012-12-23T08:43:23Z</time>
      </trkpt>
      <trkpt lat="44.35707" lon="2.67962">
        <ele>571.1604004</ele>
        <time>2012-12-23T08:43:28Z</time>
      </trkpt>
      <trkpt lat="44.35715" lon="2.67977">
        <ele>570.1989746</ele>
        <time>2012-12-23T08:43:33Z</time>
      </trkpt>
      <trkpt lat="44.35724" lon="2.67992">
        <ele>569.237793</ele>
        <time>2012-12-23T08:43:38Z</time>
      </trkpt>
      <trkpt lat="44.35727" lon="2.68001">
        <ele>568.2763672</ele>
        <time>2012-12-23T08:43:41Z</time>
      </trkpt>
      <trkpt lat="44.35737" lon="2.68018">
        <ele>567.3151855</ele>
        <time>2012-12-23T08:43:47Z</time>
      </trkpt>
      <trkpt lat="44.35741" lon="2.68026">
        <ele>566.8344727</ele>
        <time>2012-12-23T08:43:50Z</time>
      </trkpt>
      <trkpt lat="44.35746" lon="2.68036">
        <ele>566.8344727</ele>
        <time>2012-12-23T08:43:54Z</time>
      </trkpt>
      <trkpt lat="44.35753" lon="2.68047">
        <ele>567.3151855</ele>
        <time>2012-12-23T08:43:58Z</time>
      </trkpt>
      <trkpt lat="44.35755" lon="2.68049">
        <ele>567.3151855</ele>
        <time>2012-12-23T08:43:59Z</time>
      </trkpt>
      <trkpt lat="44.35766" lon="2.68067">
        <ele>568.2763672</ele>
        <time>2012-12-23T08:44:05Z</time>
      </trkpt>
      <trkpt lat="44.35772" lon="2.6808">
        <ele>569.237793</ele>
        <time>2012-12-23T08:44:10Z</time>
      </trkpt>
      <trkpt lat="44.35779" lon="2.68092">
        <ele>573.083252</ele>
        <time>2012-12-23T08:44:14Z</time>
      </trkpt>
      <trkpt lat="44.35786" lon="2.68105">
        <ele>576.4477539</ele>
        <time>2012-12-23T08:44:19Z</time>
      </trkpt>
      <trkpt lat="44.35793" lon="2.68118">
        <ele>579.331543</ele>
        <time>2012-12-23T08:44:25Z</time>
      </trkpt>
      <trkpt lat="44.35801" lon="2.68126">
        <ele>581.7348633</ele>
        <time>2012-12-23T08:44:29Z</time>
      </trkpt>
      <trkpt lat="44.35814" lon="2.6813">
        <ele>583.6574707</ele>
        <time>2012-12-23T08:44:34Z</time>
      </trkpt>
      <trkpt lat="44.35824" lon="2.6813">
        <ele>587.0219727</ele>
        <time>2012-12-23T08:44:38Z</time>
      </trkpt>
      <trkpt lat="44.35835" lon="2.68131">
        <ele>588.9450684</ele>
        <time>2012-12-23T08:44:42Z</time>
      </trkpt>
      <trkpt lat="44.35844" lon="2.68144">
        <ele>589.4255371</ele>
        <time>2012-12-23T08:44:47Z</time>
      </trkpt>
      <trkpt lat="44.35845" lon="2.68151">
        <ele>588.9450684</ele>
        <time>2012-12-23T08:44:49Z</time>
      </trkpt>
      <trkpt lat="44.35844" lon="2.68169">
        <ele>588.4643555</ele>
        <time>2012-12-23T08:44:54Z</time>
      </trkpt>
      <trkpt lat="44.35837" lon="2.68187">
        <ele>588.4643555</ele>
        <time>2012-12-23T08:44:59Z</time>
      </trkpt>
      <trkpt lat="44.35829" lon="2.68199">
        <ele>587.0219727</ele>
        <time>2012-12-23T08:45:04Z</time>
      </trkpt>
      <trkpt lat="44.3582" lon="2.68208">
        <ele>586.5415039</ele>
        <time>2012-12-23T08:45:08Z</time>
      </trkpt>
      <trkpt lat="44.35809" lon="2.6822">
        <ele>585.5800781</ele>
        <time>2012-12-23T08:45:13Z</time>
      </trkpt>
      <trkpt lat="44.35802" lon="2.68228">
        <ele>585.0996094</ele>
        <time>2012-12-23T08:45:17Z</time>
      </trkpt>
      <trkpt lat="44.35793" lon="2.68244">
        <ele>585.5800781</ele>
        <time>2012-12-23T08:45:22Z</time>
      </trkpt>
      <trkpt lat="44.35785" lon="2.68258">
        <ele>587.9833984</ele>
        <time>2012-12-23T08:45:27Z</time>
      </trkpt>
      <trkpt lat="44.35783" lon="2.68262">
        <ele>587.9833984</ele>
        <time>2012-12-23T08:45:28Z</time>
      </trkpt>
      <trkpt lat="44.35775" lon="2.68276">
        <ele>588.4643555</ele>
        <time>2012-12-23T08:45:32Z</time>
      </trkpt>
      <trkpt lat="44.3577" lon="2.68287">
        <ele>588.4643555</ele>
        <time>2012-12-23T08:45:35Z</time>
      </trkpt>
      <trkpt lat="44.35767" lon="2.68294">
        <ele>589.4255371</ele>
        <time>2012-12-23T08:45:38Z</time>
      </trkpt>
      <trkpt lat="44.35759" lon="2.68313">
        <ele>590.8674316</ele>
        <time>2012-12-23T08:45:43Z</time>
      </trkpt>
      <trkpt lat="44.35756" lon="2.68321">
        <ele>592.3095703</ele>
        <time>2012-12-23T08:45:46Z</time>
      </trkpt>
      <trkpt lat="44.35755" lon="2.68339">
        <ele>592.7902832</ele>
        <time>2012-12-23T08:45:51Z</time>
      </trkpt>
      <trkpt lat="44.35753" lon="2.68361">
        <ele>592.7902832</ele>
        <time>2012-12-23T08:45:57Z</time>
      </trkpt>
      <trkpt lat="44.35753" lon="2.68379">
        <ele>592.7902832</ele>
        <time>2012-12-23T08:46:02Z</time>
      </trkpt>
      <trkpt lat="44.35754" lon="2.68393">
        <ele>592.7902832</ele>
        <time>2012-12-23T08:46:06Z</time>
      </trkpt>
      <trkpt lat="44.35752" lon="2.6841">
        <ele>593.7514648</ele>
        <time>2012-12-23T08:46:10Z</time>
      </trkpt>
      <trkpt lat="44.35752" lon="2.68425">
        <ele>594.2321777</ele>
        <time>2012-12-23T08:46:14Z</time>
      </trkpt>
      <trkpt lat="44.35751" lon="2.68444">
        <ele>595.6740723</ele>
        <time>2012-12-23T08:46:19Z</time>
      </trkpt>
      <trkpt lat="44.35748" lon="2.68471">
        <ele>598.0773926</ele>
        <time>2012-12-23T08:46:26Z</time>
      </trkpt>
      <trkpt lat="44.35745" lon="2.68485">
        <ele>599.0385742</ele>
        <time>2012-12-23T08:46:30Z</time>
      </trkpt>
      <trkpt lat="44.35737" lon="2.68505">
        <ele>600</ele>
        <time>2012-12-23T08:46:36Z</time>
      </trkpt>
      <trkpt lat="44.3573" lon="2.68523">
        <ele>600.9611816</ele>
        <time>2012-12-23T08:46:42Z</time>
      </trkpt>
      <trkpt lat="44.35725" lon="2.68536">
        <ele>601.4418945</ele>
        <time>2012-12-23T08:46:46Z</time>
      </trkpt>
      <trkpt lat="44.3572" lon="2.68561">
        <ele>601.4418945</ele>
        <time>2012-12-23T08:46:53Z</time>
      </trkpt>
      <trkpt lat="44.35718" lon="2.68584">
        <ele>601.9226074</ele>
        <time>2012-12-23T08:46:59Z</time>
      </trkpt>
      <trkpt lat="44.35718" lon="2.68602">
        <ele>602.8837891</ele>
        <time>2012-12-23T08:47:04Z</time>
      </trkpt>
      <trkpt lat="44.3572" lon="2.68623">
        <ele>603.8452148</ele>
        <time>2012-12-23T08:47:10Z</time>
      </trkpt>
      <trkpt lat="44.35719" lon="2.68631">
        <ele>604.8066406</ele>
        <time>2012-12-23T08:47:12Z</time>
      </trkpt>
      <trkpt lat="44.3572" lon="2.68648">
        <ele>606.2485352</ele>
        <time>2012-12-23T08:47:17Z</time>
      </trkpt>
      <trkpt lat="44.35723" lon="2.68667">
        <ele>608.1713867</ele>
        <time>2012-12-23T08:47:22Z</time>
      </trkpt>
      <trkpt lat="44.35725" lon="2.6868">
        <ele>610.09375</ele>
        <time>2012-12-23T08:47:26Z</time>
      </trkpt>
      <trkpt lat="44.35725" lon="2.68697">
        <ele>612.4970703</ele>
        <time>2012-12-23T08:47:31Z</time>
      </trkpt>
      <trkpt lat="44.35728" lon="2.68712">
        <ele>614.4196777</ele>
        <time>2012-12-23T08:47:36Z</time>
      </trkpt>
      <trkpt lat="44.35732" lon="2.68727">
        <ele>614.9003906</ele>
        <time>2012-12-23T08:47:41Z</time>
      </trkpt>
      <trkpt lat="44.35738" lon="2.68739">
        <ele>615.8618164</ele>
        <time>2012-12-23T08:47:46Z</time>
      </trkpt>
      <trkpt lat="44.35743" lon="2.68752">
        <ele>617.3037109</ele>
        <time>2012-12-23T08:47:51Z</time>
      </trkpt>
      <trkpt lat="44.35743" lon="2.68768">
        <ele>618.7456055</ele>
        <time>2012-12-23T08:47:57Z</time>
      </trkpt>
      <trkpt lat="44.35738" lon="2.68785">
        <ele>620.1877441</ele>
        <time>2012-12-23T08:48:03Z</time>
      </trkpt>
      <trkpt lat="44.35733" lon="2.68796">
        <ele>621.1491699</ele>
        <time>2012-12-23T08:48:07Z</time>
      </trkpt>
      <trkpt lat="44.35727" lon="2.68808">
        <ele>623.0717773</ele>
        <time>2012-12-23T08:48:11Z</time>
      </trkpt>
      <trkpt lat="44.35718" lon="2.68822">
        <ele>624.9943848</ele>
        <time>2012-12-23T08:48:17Z</time>
      </trkpt>
      <trkpt lat="44.35712" lon="2.68839">
        <ele>626.9169922</ele>
        <time>2012-12-23T08:48:24Z</time>
      </trkpt>
      <trkpt lat="44.35706" lon="2.68852">
        <ele>628.3588867</ele>
        <time>2012-12-23T08:48:29Z</time>
      </trkpt>
      <trkpt lat="44.35699" lon="2.68863">
        <ele>629.8007813</ele>
        <time>2012-12-23T08:48:34Z</time>
      </trkpt>
      <trkpt lat="44.35691" lon="2.68874">
        <ele>630.762207</ele>
        <time>2012-12-23T08:48:39Z</time>
      </trkpt>
      <trkpt lat="44.35689" lon="2.68875">
        <ele>631.2429199</ele>
        <time>2012-12-23T08:48:40Z</time>
      </trkpt>
      <trkpt lat="44.35681" lon="2.68881">
        <ele>632.6848145</ele>
        <time>2012-12-23T08:48:45Z</time>
      </trkpt>
      <trkpt lat="44.3568" lon="2.68882">
        <ele>633.6459961</ele>
        <time>2012-12-23T08:48:46Z</time>
      </trkpt>
      <trkpt lat="44.35676" lon="2.68884">
        <ele>634.6074219</ele>
        <time>2012-12-23T08:48:49Z</time>
      </trkpt>
      <trkpt lat="44.35677" lon="2.68892">
        <ele>632.6848145</ele>
        <time>2012-12-23T08:48:56Z</time>
      </trkpt>
      <trkpt lat="44.35678" lon="2.68898">
        <ele>631.7233887</ele>
        <time>2012-12-23T08:49:00Z</time>
      </trkpt>
      <trkpt lat="44.35679" lon="2.68905">
        <ele>631.2429199</ele>
        <time>2012-12-23T08:49:05Z</time>
      </trkpt>
      <trkpt lat="44.3568" lon="2.68913">
        <ele>634.126709</ele>
        <time>2012-12-23T08:49:11Z</time>
      </trkpt>
      <trkpt lat="44.3568" lon="2.68915">
        <ele>634.6074219</ele>
        <time>2012-12-23T08:49:12Z</time>
      </trkpt>
      <trkpt lat="44.35679" lon="2.68924">
        <ele>636.0495605</ele>
        <time>2012-12-23T08:49:19Z</time>
      </trkpt>
      <trkpt lat="44.3568" lon="2.68929">
        <ele>638.9335938</ele>
        <time>2012-12-23T08:49:22Z</time>
      </trkpt>
      <trkpt lat="44.3568" lon="2.68931">
        <ele>639.8947754</ele>
        <time>2012-12-23T08:49:24Z</time>
      </trkpt>
      <trkpt lat="44.35686" lon="2.68942">
        <ele>643.2592773</ele>
        <time>2012-12-23T08:49:31Z</time>
      </trkpt>
      <trkpt lat="44.35698" lon="2.68952">
        <ele>646.6240234</ele>
        <time>2012-12-23T08:49:36Z</time>
      </trkpt>
      <trkpt lat="44.35709" lon="2.68962">
        <ele>648.065918</ele>
        <time>2012-12-23T08:49:41Z</time>
      </trkpt>
      <trkpt lat="44.35714" lon="2.68967">
        <ele>647.5852051</ele>
        <time>2012-12-23T08:49:43Z</time>
      </trkpt>
      <trkpt lat="44.35726" lon="2.68982">
        <ele>646.1433105</ele>
        <time>2012-12-23T08:49:49Z</time>
      </trkpt>
      <trkpt lat="44.35739" lon="2.68993">
        <ele>646.6240234</ele>
        <time>2012-12-23T08:49:54Z</time>
      </trkpt>
      <trkpt lat="44.35754" lon="2.68998">
        <ele>646.6240234</ele>
        <time>2012-12-23T08:49:59Z</time>
      </trkpt>
      <trkpt lat="44.35768" lon="2.69003">
        <ele>647.5852051</ele>
        <time>2012-12-23T08:50:04Z</time>
      </trkpt>
      <trkpt lat="44.35782" lon="2.69007">
        <ele>648.065918</ele>
        <time>2012-12-23T08:50:09Z</time>
      </trkpt>
      <trkpt lat="44.35792" lon="2.6901">
        <ele>648.5463867</ele>
        <time>2012-12-23T08:50:13Z</time>
      </trkpt>
      <trkpt lat="44.35796" lon="2.69011">
        <ele>648.5463867</ele>
        <time>2012-12-23T08:50:15Z</time>
      </trkpt>
      <trkpt lat="44.35805" lon="2.69018">
        <ele>648.065918</ele>
        <time>2012-12-23T08:50:20Z</time>
      </trkpt>
      <trkpt lat="44.35817" lon="2.69028">
        <ele>647.5852051</ele>
        <time>2012-12-23T08:50:26Z</time>
      </trkpt>
      <trkpt lat="44.35828" lon="2.69038">
        <ele>648.065918</ele>
        <time>2012-12-23T08:50:32Z</time>
      </trkpt>
      <trkpt lat="44.35835" lon="2.69047">
        <ele>647.5852051</ele>
        <time>2012-12-23T08:50:35Z</time>
      </trkpt>
      <trkpt lat="44.35847" lon="2.69058">
        <ele>649.9885254</ele>
        <time>2012-12-23T08:50:41Z</time>
      </trkpt>
      <trkpt lat="44.35851" lon="2.69061">
        <ele>650.4692383</ele>
        <time>2012-12-23T08:50:42Z</time>
      </trkpt>
      <trkpt lat="44.35869" lon="2.69079">
        <ele>647.1044922</ele>
        <time>2012-12-23T08:50:49Z</time>
      </trkpt>
      <trkpt lat="44.35883" lon="2.69092">
        <ele>647.1044922</ele>
        <time>2012-12-23T08:50:55Z</time>
      </trkpt>
      <trkpt lat="44.35896" lon="2.69101">
        <ele>649.5078125</ele>
        <time>2012-12-23T08:51:00Z</time>
      </trkpt>
      <trkpt lat="44.35907" lon="2.69112">
        <ele>649.0270996</ele>
        <time>2012-12-23T08:51:05Z</time>
      </trkpt>
      <trkpt lat="44.35922" lon="2.69126">
        <ele>648.065918</ele>
        <time>2012-12-23T08:51:10Z</time>
      </trkpt>
      <trkpt lat="44.35931" lon="2.69133">
        <ele>649.5078125</ele>
        <time>2012-12-23T08:51:14Z</time>
      </trkpt>
      <trkpt lat="44.35934" lon="2.69138">
        <ele>649.0270996</ele>
        <time>2012-12-23T08:51:16Z</time>
      </trkpt>
      <trkpt lat="44.35946" lon="2.6915">
        <ele>648.5463867</ele>
        <time>2012-12-23T08:51:22Z</time>
      </trkpt>
      <trkpt lat="44.35959" lon="2.69162">
        <ele>644.7011719</ele>
        <time>2012-12-23T08:51:27Z</time>
      </trkpt>
      <trkpt lat="44.35971" lon="2.69178">
        <ele>643.7399902</ele>
        <time>2012-12-23T08:51:32Z</time>
      </trkpt>
      <trkpt lat="44.35984" lon="2.69194">
        <ele>643.7399902</ele>
        <time>2012-12-23T08:51:38Z</time>
      </trkpt>
      <trkpt lat="44.35995" lon="2.69203">
        <ele>645.1818848</ele>
        <time>2012-12-23T08:51:42Z</time>
      </trkpt>
      <trkpt lat="44.36006" lon="2.69212">
        <ele>646.6240234</ele>
        <time>2012-12-23T08:51:46Z</time>
      </trkpt>
      <trkpt lat="44.3602" lon="2.69223">
        <ele>647.1044922</ele>
        <time>2012-12-23T08:51:51Z</time>
      </trkpt>
      <trkpt lat="44.3603" lon="2.69232">
        <ele>646.6240234</ele>
        <time>2012-12-23T08:51:56Z</time>
      </trkpt>
      <trkpt lat="44.36034" lon="2.69237">
        <ele>645.6625977</ele>
        <time>2012-12-23T08:51:58Z</time>
      </trkpt>
      <trkpt lat="44.36042" lon="2.69251">
        <ele>644.7011719</ele>
        <time>2012-12-23T08:52:04Z</time>
      </trkpt>
      <trkpt lat="44.36044" lon="2.69254">
        <ele>644.2207031</ele>
        <time>2012-12-23T08:52:10Z</time>
      </trkpt>
      <trkpt lat="44.36048" lon="2.69255">
        <ele>645.1818848</ele>
        <time>2012-12-23T08:52:14Z</time>
      </trkpt>
      <trkpt lat="44.36052" lon="2.6926">
        <ele>644.2207031</ele>
        <time>2012-12-23T08:52:17Z</time>
      </trkpt>
      <trkpt lat="44.36061" lon="2.69274">
        <ele>640.855957</ele>
        <time>2012-12-23T08:52:24Z</time>
      </trkpt>
      <trkpt lat="44.3607" lon="2.69283">
        <ele>639.4140625</ele>
        <time>2012-12-23T08:52:29Z</time>
      </trkpt>
      <trkpt lat="44.36078" lon="2.69292">
        <ele>640.3754883</ele>
        <time>2012-12-23T08:52:35Z</time>
      </trkpt>
      <trkpt lat="44.36087" lon="2.69308">
        <ele>638.9335938</ele>
        <time>2012-12-23T08:52:39Z</time>
      </trkpt>
      <trkpt lat="44.36088" lon="2.69328">
        <ele>636.5302734</ele>
        <time>2012-12-23T08:52:44Z</time>
      </trkpt>
      <trkpt lat="44.36085" lon="2.69347">
        <ele>634.6074219</ele>
        <time>2012-12-23T08:52:49Z</time>
      </trkpt>
      <trkpt lat="44.36083" lon="2.69354">
        <ele>633.6459961</ele>
        <time>2012-12-23T08:52:51Z</time>
      </trkpt>
      <trkpt lat="44.36075" lon="2.69375">
        <ele>631.2429199</ele>
        <time>2012-12-23T08:52:58Z</time>
      </trkpt>
      <trkpt lat="44.36067" lon="2.69389">
        <ele>628.8395996</ele>
        <time>2012-12-23T08:53:03Z</time>
      </trkpt>
      <trkpt lat="44.36063" lon="2.69395">
        <ele>627.8781738</ele>
        <time>2012-12-23T08:53:05Z</time>
      </trkpt>
      <trkpt lat="44.36053" lon="2.6941">
        <ele>626.4362793</ele>
        <time>2012-12-23T08:53:10Z</time>
      </trkpt>
      <trkpt lat="44.36046" lon="2.69419">
        <ele>627.3977051</ele>
        <time>2012-12-23T08:53:14Z</time>
      </trkpt>
      <trkpt lat="44.3604" lon="2.69426">
        <ele>628.3588867</ele>
        <time>2012-12-23T08:53:17Z</time>
      </trkpt>
      <trkpt lat="44.36031" lon="2.69432">
        <ele>627.8781738</ele>
        <time>2012-12-23T08:53:21Z</time>
      </trkpt>
      <trkpt lat="44.36022" lon="2.69434">
        <ele>628.8395996</ele>
        <time>2012-12-23T08:53:25Z</time>
      </trkpt>
      <trkpt lat="44.36008" lon="2.69445">
        <ele>627.8781738</ele>
        <time>2012-12-23T08:53:31Z</time>
      </trkpt>
      <trkpt lat="44.35997" lon="2.69451">
        <ele>626.9169922</ele>
        <time>2012-12-23T08:53:35Z</time>
      </trkpt>
      <trkpt lat="44.35995" lon="2.69452">
        <ele>626.9169922</ele>
        <time>2012-12-23T08:53:36Z</time>
      </trkpt>
      <trkpt lat="44.35982" lon="2.69463">
        <ele>624.9943848</ele>
        <time>2012-12-23T08:53:42Z</time>
      </trkpt>
      <trkpt lat="44.35974" lon="2.6947">
        <ele>623.5524902</ele>
        <time>2012-12-23T08:53:46Z</time>
      </trkpt>
      <trkpt lat="44.35969" lon="2.69476">
        <ele>622.5910645</ele>
        <time>2012-12-23T08:53:49Z</time>
      </trkpt>
      <trkpt lat="44.35961" lon="2.69492">
        <ele>622.5910645</ele>
        <time>2012-12-23T08:53:54Z</time>
      </trkpt>
      <trkpt lat="44.35955" lon="2.69506">
        <ele>624.9943848</ele>
        <time>2012-12-23T08:53:58Z</time>
      </trkpt>
      <trkpt lat="44.35948" lon="2.69521">
        <ele>630.2814941</ele>
        <time>2012-12-23T08:54:03Z</time>
      </trkpt>
      <trkpt lat="44.35941" lon="2.69532">
        <ele>633.1652832</ele>
        <time>2012-12-23T08:54:07Z</time>
      </trkpt>
      <trkpt lat="44.35932" lon="2.69547">
        <ele>633.6459961</ele>
        <time>2012-12-23T08:54:12Z</time>
      </trkpt>
      <trkpt lat="44.35921" lon="2.69564">
        <ele>632.6848145</ele>
        <time>2012-12-23T08:54:17Z</time>
      </trkpt>
      <trkpt lat="44.35916" lon="2.69577">
        <ele>632.2041016</ele>
        <time>2012-12-23T08:54:21Z</time>
      </trkpt>
      <trkpt lat="44.35915" lon="2.69587">
        <ele>633.1652832</ele>
        <time>2012-12-23T08:54:24Z</time>
      </trkpt>
      <trkpt lat="44.35909" lon="2.69607">
        <ele>634.126709</ele>
        <time>2012-12-23T08:54:30Z</time>
      </trkpt>
      <trkpt lat="44.35905" lon="2.69624">
        <ele>634.126709</ele>
        <time>2012-12-23T08:54:35Z</time>
      </trkpt>
      <trkpt lat="44.35904" lon="2.69641">
        <ele>636.0495605</ele>
        <time>2012-12-23T08:54:40Z</time>
      </trkpt>
      <trkpt lat="44.35904" lon="2.69645">
        <ele>637.0107422</ele>
        <time>2012-12-23T08:54:41Z</time>
      </trkpt>
      <trkpt lat="44.35907" lon="2.69666">
        <ele>637.972168</ele>
        <time>2012-12-23T08:54:47Z</time>
      </trkpt>
      <trkpt lat="44.35908" lon="2.69684">
        <ele>638.9335938</ele>
        <time>2012-12-23T08:54:52Z</time>
      </trkpt>
      <trkpt lat="44.35908" lon="2.69691">
        <ele>639.4140625</ele>
        <time>2012-12-23T08:54:54Z</time>
      </trkpt>
      <trkpt lat="44.35911" lon="2.69709">
        <ele>640.3754883</ele>
        <time>2012-12-23T08:54:59Z</time>
      </trkpt>
      <trkpt lat="44.3591" lon="2.6972">
        <ele>640.855957</ele>
        <time>2012-12-23T08:55:02Z</time>
      </trkpt>
      <trkpt lat="44.35907" lon="2.69738">
        <ele>640.855957</ele>
        <time>2012-12-23T08:55:08Z</time>
      </trkpt>
      <trkpt lat="44.35906" lon="2.69745">
        <ele>641.3366699</ele>
        <time>2012-12-23T08:55:10Z</time>
      </trkpt>
      <trkpt lat="44.35901" lon="2.6976">
        <ele>640.3754883</ele>
        <time>2012-12-23T08:55:15Z</time>
      </trkpt>
      <trkpt lat="44.35894" lon="2.69773">
        <ele>639.8947754</ele>
        <time>2012-12-23T08:55:20Z</time>
      </trkpt>
      <trkpt lat="44.35883" lon="2.69785">
        <ele>638.4528809</ele>
        <time>2012-12-23T08:55:25Z</time>
      </trkpt>
      <trkpt lat="44.35878" lon="2.69797">
        <ele>639.4140625</ele>
        <time>2012-12-23T08:55:29Z</time>
      </trkpt>
      <trkpt lat="44.35871" lon="2.69815">
        <ele>641.3366699</ele>
        <time>2012-12-23T08:55:35Z</time>
      </trkpt>
      <trkpt lat="44.35868" lon="2.6982">
        <ele>642.2980957</ele>
        <time>2012-12-23T08:55:37Z</time>
      </trkpt>
      <trkpt lat="44.35859" lon="2.69835">
        <ele>640.3754883</ele>
        <time>2012-12-23T08:55:42Z</time>
      </trkpt>
      <trkpt lat="44.35857" lon="2.69839">
        <ele>639.4140625</ele>
        <time>2012-12-23T08:55:44Z</time>
      </trkpt>
      <trkpt lat="44.35849" lon="2.69855">
        <ele>637.972168</ele>
        <time>2012-12-23T08:55:49Z</time>
      </trkpt>
      <trkpt lat="44.35844" lon="2.69863">
        <ele>639.4140625</ele>
        <time>2012-12-23T08:55:52Z</time>
      </trkpt>
      <trkpt lat="44.3583" lon="2.69876">
        <ele>639.4140625</ele>
        <time>2012-12-23T08:55:58Z</time>
      </trkpt>
      <trkpt lat="44.35828" lon="2.69877">
        <ele>640.3754883</ele>
        <time>2012-12-23T08:55:59Z</time>
      </trkpt>
      <trkpt lat="44.35826" lon="2.69878">
        <ele>640.855957</ele>
        <time>2012-12-23T08:56:01Z</time>
      </trkpt>
      <trkpt lat="44.35822" lon="2.69885">
        <ele>641.8173828</ele>
        <time>2012-12-23T08:56:06Z</time>
      </trkpt>
      <trkpt lat="44.35818" lon="2.69888">
        <ele>642.2980957</ele>
        <time>2012-12-23T08:56:10Z</time>
      </trkpt>
      <trkpt lat="44.35811" lon="2.69891">
        <ele>641.8173828</ele>
        <time>2012-12-23T08:56:14Z</time>
      </trkpt>
      <trkpt lat="44.35799" lon="2.69898">
        <ele>641.8173828</ele>
        <time>2012-12-23T08:56:19Z</time>
      </trkpt>
      <trkpt lat="44.35789" lon="2.69903">
        <ele>639.8947754</ele>
        <time>2012-12-23T08:56:23Z</time>
      </trkpt>
      <trkpt lat="44.35778" lon="2.69911">
        <ele>638.4528809</ele>
        <time>2012-12-23T08:56:28Z</time>
      </trkpt>
      <trkpt lat="44.35768" lon="2.69918">
        <ele>637.4914551</ele>
        <time>2012-12-23T08:56:32Z</time>
      </trkpt>
      <trkpt lat="44.3576" lon="2.69926">
        <ele>635.5686035</ele>
        <time>2012-12-23T08:56:36Z</time>
      </trkpt>
      <trkpt lat="44.35753" lon="2.6994">
        <ele>636.0495605</ele>
        <time>2012-12-23T08:56:41Z</time>
      </trkpt>
      <trkpt lat="44.35747" lon="2.69951">
        <ele>637.4914551</ele>
        <time>2012-12-23T08:56:45Z</time>
      </trkpt>
      <trkpt lat="44.3574" lon="2.69961">
        <ele>639.4140625</ele>
        <time>2012-12-23T08:56:50Z</time>
      </trkpt>
      <trkpt lat="44.35735" lon="2.69973">
        <ele>641.8173828</ele>
        <time>2012-12-23T08:56:54Z</time>
      </trkpt>
      <trkpt lat="44.35725" lon="2.69993">
        <ele>646.1433105</ele>
        <time>2012-12-23T08:57:01Z</time>
      </trkpt>
      <trkpt lat="44.35719" lon="2.70008">
        <ele>647.5852051</ele>
        <time>2012-12-23T08:57:06Z</time>
      </trkpt>
      <trkpt lat="44.35712" lon="2.70019">
        <ele>647.5852051</ele>
        <time>2012-12-23T08:57:10Z</time>
      </trkpt>
      <trkpt lat="44.35705" lon="2.70031">
        <ele>648.5463867</ele>
        <time>2012-12-23T08:57:14Z</time>
      </trkpt>
      <trkpt lat="44.35698" lon="2.70043">
        <ele>650.4692383</ele>
        <time>2012-12-23T08:57:18Z</time>
      </trkpt>
      <trkpt lat="44.35687" lon="2.70055">
        <ele>650.949707</ele>
        <time>2012-12-23T08:57:23Z</time>
      </trkpt>
      <trkpt lat="44.35677" lon="2.70066">
        <ele>650.949707</ele>
        <time>2012-12-23T08:57:28Z</time>
      </trkpt>
      <trkpt lat="44.35667" lon="2.70077">
        <ele>649.5078125</ele>
        <time>2012-12-23T08:57:33Z</time>
      </trkpt>
      <trkpt lat="44.35661" lon="2.70089">
        <ele>651.9111328</ele>
        <time>2012-12-23T08:57:37Z</time>
      </trkpt>
      <trkpt lat="44.35657" lon="2.70102">
        <ele>656.2370605</ele>
        <time>2012-12-23T08:57:41Z</time>
      </trkpt>
      <trkpt lat="44.35652" lon="2.70119">
        <ele>659.1210938</ele>
        <time>2012-12-23T08:57:45Z</time>
      </trkpt>
      <trkpt lat="44.35652" lon="2.70126">
        <ele>662.4855957</ele>
        <time>2012-12-23T08:57:48Z</time>
      </trkpt>
      <trkpt lat="44.35647" lon="2.70147">
        <ele>664.888916</ele>
        <time>2012-12-23T08:57:54Z</time>
      </trkpt>
      <trkpt lat="44.35645" lon="2.70163">
        <ele>666.3308105</ele>
        <time>2012-12-23T08:57:58Z</time>
      </trkpt>
      <trkpt lat="44.35639" lon="2.70181">
        <ele>662.9663086</ele>
        <time>2012-12-23T08:58:04Z</time>
      </trkpt>
      <trkpt lat="44.35638" lon="2.70184">
        <ele>663.9274902</ele>
        <time>2012-12-23T08:58:05Z</time>
      </trkpt>
      <trkpt lat="44.35631" lon="2.70201">
        <ele>662.005127</ele>
        <time>2012-12-23T08:58:11Z</time>
      </trkpt>
      <trkpt lat="44.35623" lon="2.70218">
        <ele>662.4855957</ele>
        <time>2012-12-23T08:58:17Z</time>
      </trkpt>
      <trkpt lat="44.35616" lon="2.70234">
        <ele>661.0437012</ele>
        <time>2012-12-23T08:58:22Z</time>
      </trkpt>
      <trkpt lat="44.3561" lon="2.7025">
        <ele>661.0437012</ele>
        <time>2012-12-23T08:58:27Z</time>
      </trkpt>
      <trkpt lat="44.35609" lon="2.70261">
        <ele>663.4470215</ele>
        <time>2012-12-23T08:58:30Z</time>
      </trkpt>
      <trkpt lat="44.35606" lon="2.70269">
        <ele>663.4470215</ele>
        <time>2012-12-23T08:58:33Z</time>
      </trkpt>
      <trkpt lat="44.35602" lon="2.70277">
        <ele>663.4470215</ele>
        <time>2012-12-23T08:58:36Z</time>
      </trkpt>
      <trkpt lat="44.35595" lon="2.7029">
        <ele>662.005127</ele>
        <time>2012-12-23T08:58:41Z</time>
      </trkpt>
      <trkpt lat="44.35593" lon="2.70295">
        <ele>661.5244141</ele>
        <time>2012-12-23T08:58:43Z</time>
      </trkpt>
      <trkpt lat="44.35588" lon="2.70311">
        <ele>663.9274902</ele>
        <time>2012-12-23T08:58:48Z</time>
      </trkpt>
      <trkpt lat="44.35583" lon="2.70326">
        <ele>663.9274902</ele>
        <time>2012-12-23T08:58:53Z</time>
      </trkpt>
      <trkpt lat="44.35581" lon="2.70329">
        <ele>663.9274902</ele>
        <time>2012-12-23T08:58:54Z</time>
      </trkpt>
      <trkpt lat="44.35574" lon="2.70344">
        <ele>662.005127</ele>
        <time>2012-12-23T08:59:00Z</time>
      </trkpt>
      <trkpt lat="44.3557" lon="2.70355">
        <ele>662.005127</ele>
        <time>2012-12-23T08:59:04Z</time>
      </trkpt>
      <trkpt lat="44.35568" lon="2.7036">
        <ele>662.005127</ele>
        <time>2012-12-23T08:59:06Z</time>
      </trkpt>
      <trkpt lat="44.35567" lon="2.70376">
        <ele>667.2922363</ele>
        <time>2012-12-23T08:59:11Z</time>
      </trkpt>
      <trkpt lat="44.35567" lon="2.70391">
        <ele>673.5410156</ele>
        <time>2012-12-23T08:59:15Z</time>
      </trkpt>
      <trkpt lat="44.35564" lon="2.70409">
        <ele>674.5021973</ele>
        <time>2012-12-23T08:59:20Z</time>
      </trkpt>
      <trkpt lat="44.35565" lon="2.70418">
        <ele>674.0214844</ele>
        <time>2012-12-23T08:59:23Z</time>
      </trkpt>
      <trkpt lat="44.35568" lon="2.70419">
        <ele>674.9829102</ele>
        <time>2012-12-23T08:59:30Z</time>
      </trkpt>
      <trkpt lat="44.35571" lon="2.70427">
        <ele>674.0214844</ele>
        <time>2012-12-23T08:59:40Z</time>
      </trkpt>
      <trkpt lat="44.35572" lon="2.70433">
        <ele>673.0603027</ele>
        <time>2012-12-23T08:59:42Z</time>
      </trkpt>
      <trkpt lat="44.35578" lon="2.70453">
        <ele>671.1376953</ele>
        <time>2012-12-23T08:59:48Z</time>
      </trkpt>
      <trkpt lat="44.35581" lon="2.7047">
        <ele>669.2150879</ele>
        <time>2012-12-23T08:59:53Z</time>
      </trkpt>
      <trkpt lat="44.35585" lon="2.70492">
        <ele>666.3308105</ele>
        <time>2012-12-23T09:00:00Z</time>
      </trkpt>
      <trkpt lat="44.35586" lon="2.70512">
        <ele>666.3308105</ele>
        <time>2012-12-23T09:00:06Z</time>
      </trkpt>
      <trkpt lat="44.35586" lon="2.70528">
        <ele>669.6958008</ele>
        <time>2012-12-23T09:00:11Z</time>
      </trkpt>
      <trkpt lat="44.35586" lon="2.70531">
        <ele>670.1762695</ele>
        <time>2012-12-23T09:00:12Z</time>
      </trkpt>
      <trkpt lat="44.35587" lon="2.70555">
        <ele>672.098877</ele>
        <time>2012-12-23T09:00:19Z</time>
      </trkpt>
      <trkpt lat="44.35587" lon="2.70569">
        <ele>672.098877</ele>
        <time>2012-12-23T09:00:23Z</time>
      </trkpt>
      <trkpt lat="44.35582" lon="2.70588">
        <ele>671.6181641</ele>
        <time>2012-12-23T09:00:29Z</time>
      </trkpt>
      <trkpt lat="44.35575" lon="2.70604">
        <ele>673.0603027</ele>
        <time>2012-12-23T09:00:34Z</time>
      </trkpt>
      <trkpt lat="44.35566" lon="2.70618">
        <ele>672.098877</ele>
        <time>2012-12-23T09:00:40Z</time>
      </trkpt>
      <trkpt lat="44.35559" lon="2.70632">
        <ele>672.098877</ele>
        <time>2012-12-23T09:00:45Z</time>
      </trkpt>
      <trkpt lat="44.35551" lon="2.70645">
        <ele>671.6181641</ele>
        <time>2012-12-23T09:00:50Z</time>
      </trkpt>
      <trkpt lat="44.35548" lon="2.7065">
        <ele>671.1376953</ele>
        <time>2012-12-23T09:00:53Z</time>
      </trkpt>
      <trkpt lat="44.35548" lon="2.70668">
        <ele>675.4633789</ele>
        <time>2012-12-23T09:00:58Z</time>
      </trkpt>
      <trkpt lat="44.35547" lon="2.70675">
        <ele>676.9055176</ele>
        <time>2012-12-23T09:01:00Z</time>
      </trkpt>
      <trkpt lat="44.35544" lon="2.70698">
        <ele>677.8666992</ele>
        <time>2012-12-23T09:01:06Z</time>
      </trkpt>
      <trkpt lat="44.35544" lon="2.70715">
        <ele>677.8666992</ele>
        <time>2012-12-23T09:01:11Z</time>
      </trkpt>
      <trkpt lat="44.35546" lon="2.70727">
        <ele>679.7893066</ele>
        <time>2012-12-23T09:01:15Z</time>
      </trkpt>
      <trkpt lat="44.35546" lon="2.70734">
        <ele>679.7893066</ele>
        <time>2012-12-23T09:01:17Z</time>
      </trkpt>
      <trkpt lat="44.35547" lon="2.70749">
        <ele>682.192627</ele>
        <time>2012-12-23T09:01:22Z</time>
      </trkpt>
      <trkpt lat="44.35549" lon="2.70767">
        <ele>682.6733398</ele>
        <time>2012-12-23T09:01:28Z</time>
      </trkpt>
      <trkpt lat="44.3555" lon="2.7078">
        <ele>682.192627</ele>
        <time>2012-12-23T09:01:32Z</time>
      </trkpt>
      <trkpt lat="44.35553" lon="2.70797">
        <ele>680.7507324</ele>
        <time>2012-12-23T09:01:37Z</time>
      </trkpt>
      <trkpt lat="44.3556" lon="2.70815">
        <ele>680.7507324</ele>
        <time>2012-12-23T09:01:43Z</time>
      </trkpt>
      <trkpt lat="44.35567" lon="2.70828">
        <ele>681.2314453</ele>
        <time>2012-12-23T09:01:48Z</time>
      </trkpt>
      <trkpt lat="44.35575" lon="2.70846">
        <ele>681.7119141</ele>
        <time>2012-12-23T09:01:54Z</time>
      </trkpt>
      <trkpt lat="44.35582" lon="2.70866">
        <ele>683.6345215</ele>
        <time>2012-12-23T09:02:00Z</time>
      </trkpt>
      <trkpt lat="44.35586" lon="2.7088">
        <ele>684.5961914</ele>
        <time>2012-12-23T09:02:05Z</time>
      </trkpt>
      <trkpt lat="44.35591" lon="2.7089">
        <ele>689.4025879</ele>
        <time>2012-12-23T09:02:08Z</time>
      </trkpt>
      <trkpt lat="44.35592" lon="2.70903">
        <ele>691.8059082</ele>
        <time>2012-12-23T09:02:12Z</time>
      </trkpt>
      <trkpt lat="44.35589" lon="2.70918">
        <ele>691.8059082</ele>
        <time>2012-12-23T09:02:17Z</time>
      </trkpt>
      <trkpt lat="44.35585" lon="2.70932">
        <ele>692.767334</ele>
        <time>2012-12-23T09:02:22Z</time>
      </trkpt>
      <trkpt lat="44.35582" lon="2.7095">
        <ele>690.8444824</ele>
        <time>2012-12-23T09:02:28Z</time>
      </trkpt>
      <trkpt lat="44.35577" lon="2.70969">
        <ele>688.9221191</ele>
        <time>2012-12-23T09:02:33Z</time>
      </trkpt>
      <trkpt lat="44.35571" lon="2.70987">
        <ele>689.4025879</ele>
        <time>2012-12-23T09:02:38Z</time>
      </trkpt>
      <trkpt lat="44.35565" lon="2.71006">
        <ele>693.2478027</ele>
        <time>2012-12-23T09:02:43Z</time>
      </trkpt>
      <trkpt lat="44.35559" lon="2.71022">
        <ele>694.6896973</ele>
        <time>2012-12-23T09:02:48Z</time>
      </trkpt>
      <trkpt lat="44.35555" lon="2.71036">
        <ele>694.2092285</ele>
        <time>2012-12-23T09:02:52Z</time>
      </trkpt>
      <trkpt lat="44.3555" lon="2.71049">
        <ele>693.2478027</ele>
        <time>2012-12-23T09:02:57Z</time>
      </trkpt>
      <trkpt lat="44.35546" lon="2.71059">
        <ele>692.2866211</ele>
        <time>2012-12-23T09:03:00Z</time>
      </trkpt>
      <trkpt lat="44.35538" lon="2.7107">
        <ele>688.9221191</ele>
        <time>2012-12-23T09:03:05Z</time>
      </trkpt>
      <trkpt lat="44.35537" lon="2.71083">
        <ele>692.767334</ele>
        <time>2012-12-23T09:03:09Z</time>
      </trkpt>
      <trkpt lat="44.35536" lon="2.7109">
        <ele>693.7285156</ele>
        <time>2012-12-23T09:03:11Z</time>
      </trkpt>
      <trkpt lat="44.35532" lon="2.71102">
        <ele>697.5737305</ele>
        <time>2012-12-23T09:03:15Z</time>
      </trkpt>
      <trkpt lat="44.35532" lon="2.71129">
        <ele>698.5349121</ele>
        <time>2012-12-23T09:03:22Z</time>
      </trkpt>
      <trkpt lat="44.35535" lon="2.71138">
        <ele>696.6125488</ele>
        <time>2012-12-23T09:03:25Z</time>
      </trkpt>
      <trkpt lat="44.35542" lon="2.71154">
        <ele>692.767334</ele>
        <time>2012-12-23T09:03:31Z</time>
      </trkpt>
      <trkpt lat="44.35553" lon="2.71167">
        <ele>693.2478027</ele>
        <time>2012-12-23T09:03:36Z</time>
      </trkpt>
      <trkpt lat="44.35558" lon="2.7118">
        <ele>692.2866211</ele>
        <time>2012-12-23T09:03:40Z</time>
      </trkpt>
      <trkpt lat="44.35567" lon="2.712">
        <ele>691.3251953</ele>
        <time>2012-12-23T09:03:46Z</time>
      </trkpt>
      <trkpt lat="44.35573" lon="2.71216">
        <ele>691.3251953</ele>
        <time>2012-12-23T09:03:51Z</time>
      </trkpt>
      <trkpt lat="44.35582" lon="2.71236">
        <ele>691.8059082</ele>
        <time>2012-12-23T09:03:57Z</time>
      </trkpt>
      <trkpt lat="44.3559" lon="2.71253">
        <ele>692.2866211</ele>
        <time>2012-12-23T09:04:02Z</time>
      </trkpt>
      <trkpt lat="44.35595" lon="2.71271">
        <ele>693.2478027</ele>
        <time>2012-12-23T09:04:07Z</time>
      </trkpt>
      <trkpt lat="44.356" lon="2.71287">
        <ele>694.6896973</ele>
        <time>2012-12-23T09:04:12Z</time>
      </trkpt>
      <trkpt lat="44.35603" lon="2.71304">
        <ele>695.651123</ele>
        <time>2012-12-23T09:04:17Z</time>
      </trkpt>
      <trkpt lat="44.35603" lon="2.71324">
        <ele>695.1704102</ele>
        <time>2012-12-23T09:04:23Z</time>
      </trkpt>
      <trkpt lat="44.35603" lon="2.71343">
        <ele>695.1704102</ele>
        <time>2012-12-23T09:04:28Z</time>
      </trkpt>
      <trkpt lat="44.35606" lon="2.7135">
        <ele>695.1704102</ele>
        <time>2012-12-23T09:04:31Z</time>
      </trkpt>
      <trkpt lat="44.35611" lon="2.71379">
        <ele>697.5737305</ele>
        <time>2012-12-23T09:04:39Z</time>
      </trkpt>
      <trkpt lat="44.35618" lon="2.71395">
        <ele>698.5349121</ele>
        <time>2012-12-23T09:04:44Z</time>
      </trkpt>
      <trkpt lat="44.35622" lon="2.71408">
        <ele>700.4580078</ele>
        <time>2012-12-23T09:04:48Z</time>
      </trkpt>
      <trkpt lat="44.35624" lon="2.71426">
        <ele>700.9384766</ele>
        <time>2012-12-23T09:04:53Z</time>
      </trkpt>
      <trkpt lat="44.35623" lon="2.71446">
        <ele>700.9384766</ele>
        <time>2012-12-23T09:04:58Z</time>
      </trkpt>
      <trkpt lat="44.35617" lon="2.71461">
        <ele>699.4963379</ele>
        <time>2012-12-23T09:05:03Z</time>
      </trkpt>
      <trkpt lat="44.35612" lon="2.71477">
        <ele>700.4580078</ele>
        <time>2012-12-23T09:05:08Z</time>
      </trkpt>
      <trkpt lat="44.35609" lon="2.71491">
        <ele>703.8225098</ele>
        <time>2012-12-23T09:05:12Z</time>
      </trkpt>
      <trkpt lat="44.35604" lon="2.71503">
        <ele>700.9384766</ele>
        <time>2012-12-23T09:05:16Z</time>
      </trkpt>
      <trkpt lat="44.35602" lon="2.7151">
        <ele>701.4191895</ele>
        <time>2012-12-23T09:05:18Z</time>
      </trkpt>
      <trkpt lat="44.35597" lon="2.71536">
        <ele>702.861084</ele>
        <time>2012-12-23T09:05:25Z</time>
      </trkpt>
      <trkpt lat="44.35595" lon="2.71562">
        <ele>703.3417969</ele>
        <time>2012-12-23T09:05:32Z</time>
      </trkpt>
      <trkpt lat="44.35594" lon="2.71582">
        <ele>700.9384766</ele>
        <time>2012-12-23T09:05:38Z</time>
      </trkpt>
      <trkpt lat="44.35591" lon="2.71603">
        <ele>700.4580078</ele>
        <time>2012-12-23T09:05:43Z</time>
      </trkpt>
      <trkpt lat="44.3559" lon="2.71623">
        <ele>703.8225098</ele>
        <time>2012-12-23T09:05:48Z</time>
      </trkpt>
      <trkpt lat="44.35587" lon="2.71642">
        <ele>703.8225098</ele>
        <time>2012-12-23T09:05:53Z</time>
      </trkpt>
      <trkpt lat="44.35584" lon="2.71655">
        <ele>704.7836914</ele>
        <time>2012-12-23T09:05:57Z</time>
      </trkpt>
      <trkpt lat="44.3558" lon="2.71674">
        <ele>703.8225098</ele>
        <time>2012-12-23T09:06:02Z</time>
      </trkpt>
      <trkpt lat="44.35582" lon="2.71693">
        <ele>705.2644043</ele>
        <time>2012-12-23T09:06:07Z</time>
      </trkpt>
      <trkpt lat="44.35581" lon="2.71705">
        <ele>704.3032227</ele>
        <time>2012-12-23T09:06:10Z</time>
      </trkpt>
      <trkpt lat="44.35578" lon="2.71724">
        <ele>703.3417969</ele>
        <time>2012-12-23T09:06:15Z</time>
      </trkpt>
      <trkpt lat="44.35579" lon="2.71734">
        <ele>706.2255859</ele>
        <time>2012-12-23T09:06:19Z</time>
      </trkpt>
      <trkpt lat="44.35576" lon="2.71751">
        <ele>705.2644043</ele>
        <time>2012-12-23T09:06:25Z</time>
      </trkpt>
      <trkpt lat="44.35574" lon="2.71764">
        <ele>708.1484375</ele>
        <time>2012-12-23T09:06:29Z</time>
      </trkpt>
      <trkpt lat="44.35574" lon="2.71767">
        <ele>708.6289063</ele>
        <time>2012-12-23T09:06:30Z</time>
      </trkpt>
      <trkpt lat="44.35577" lon="2.71777">
        <ele>709.590332</ele>
        <time>2012-12-23T09:06:33Z</time>
      </trkpt>
      <trkpt lat="44.3558" lon="2.71796">
        <ele>711.9936523</ele>
        <time>2012-12-23T09:06:39Z</time>
      </trkpt>
      <trkpt lat="44.35584" lon="2.71811">
        <ele>713.4355469</ele>
        <time>2012-12-23T09:06:44Z</time>
      </trkpt>
      <trkpt lat="44.3559" lon="2.71825">
        <ele>713.4355469</ele>
        <time>2012-12-23T09:06:49Z</time>
      </trkpt>
      <trkpt lat="44.35599" lon="2.71842">
        <ele>714.3967285</ele>
        <time>2012-12-23T09:06:55Z</time>
      </trkpt>
      <trkpt lat="44.35604" lon="2.71855">
        <ele>713.9160156</ele>
        <time>2012-12-23T09:07:00Z</time>
      </trkpt>
      <trkpt lat="44.3561" lon="2.71869">
        <ele>713.4355469</ele>
        <time>2012-12-23T09:07:05Z</time>
      </trkpt>
      <trkpt lat="44.35616" lon="2.71881">
        <ele>713.9160156</ele>
        <time>2012-12-23T09:07:10Z</time>
      </trkpt>
      <trkpt lat="44.35622" lon="2.71894">
        <ele>715.3581543</ele>
        <time>2012-12-23T09:07:15Z</time>
      </trkpt>
      <trkpt lat="44.35628" lon="2.7191">
        <ele>716.800293</ele>
        <time>2012-12-23T09:07:21Z</time>
      </trkpt>
      <trkpt lat="44.35636" lon="2.71926">
        <ele>719.2036133</ele>
        <time>2012-12-23T09:07:27Z</time>
      </trkpt>
      <trkpt lat="44.35638" lon="2.71929">
        <ele>719.6843262</ele>
        <time>2012-12-23T09:07:28Z</time>
      </trkpt>
      <trkpt lat="44.35645" lon="2.71944">
        <ele>719.2036133</ele>
        <time>2012-12-23T09:07:34Z</time>
      </trkpt>
      <trkpt lat="44.3565" lon="2.71957">
        <ele>719.2036133</ele>
        <time>2012-12-23T09:07:39Z</time>
      </trkpt>
      <trkpt lat="44.35654" lon="2.71972">
        <ele>720.6455078</ele>
        <time>2012-12-23T09:07:44Z</time>
      </trkpt>
      <trkpt lat="44.35655" lon="2.71986">
        <ele>721.1262207</ele>
        <time>2012-12-23T09:07:49Z</time>
      </trkpt>
      <trkpt lat="44.35654" lon="2.72001">
        <ele>724.0100098</ele>
        <time>2012-12-23T09:07:54Z</time>
      </trkpt>
      <trkpt lat="44.35651" lon="2.72015">
        <ele>724.4907227</ele>
        <time>2012-12-23T09:07:59Z</time>
      </trkpt>
      <trkpt lat="44.35645" lon="2.72031">
        <ele>724.9714355</ele>
        <time>2012-12-23T09:08:05Z</time>
      </trkpt>
      <trkpt lat="44.35642" lon="2.72043">
        <ele>728.3359375</ele>
        <time>2012-12-23T09:08:10Z</time>
      </trkpt>
      <trkpt lat="44.35641" lon="2.72059">
        <ele>731.7004395</ele>
        <time>2012-12-23T09:08:15Z</time>
      </trkpt>
      <trkpt lat="44.3564" lon="2.72074">
        <ele>732.6621094</ele>
        <time>2012-12-23T09:08:21Z</time>
      </trkpt>
      <trkpt lat="44.35639" lon="2.72089">
        <ele>733.623291</ele>
        <time>2012-12-23T09:08:26Z</time>
      </trkpt>
      <trkpt lat="44.35638" lon="2.72104">
        <ele>733.1425781</ele>
        <time>2012-12-23T09:08:31Z</time>
      </trkpt>
      <trkpt lat="44.35634" lon="2.72121">
        <ele>733.623291</ele>
        <time>2012-12-23T09:08:37Z</time>
      </trkpt>
      <trkpt lat="44.35628" lon="2.72136">
        <ele>735.5458984</ele>
        <time>2012-12-23T09:08:43Z</time>
      </trkpt>
      <trkpt lat="44.35626" lon="2.72139">
        <ele>735.5458984</ele>
        <time>2012-12-23T09:08:44Z</time>
      </trkpt>
      <trkpt lat="44.35621" lon="2.72156">
        <ele>737.4685059</ele>
        <time>2012-12-23T09:08:51Z</time>
      </trkpt>
      <trkpt lat="44.35615" lon="2.72176">
        <ele>740.3525391</ele>
        <time>2012-12-23T09:08:58Z</time>
      </trkpt>
      <trkpt lat="44.35611" lon="2.72186">
        <ele>740.3525391</ele>
        <time>2012-12-23T09:09:02Z</time>
      </trkpt>
      <trkpt lat="44.35606" lon="2.722">
        <ele>739.8718262</ele>
        <time>2012-12-23T09:09:07Z</time>
      </trkpt>
      <trkpt lat="44.356" lon="2.72213">
        <ele>741.7944336</ele>
        <time>2012-12-23T09:09:12Z</time>
      </trkpt>
      <trkpt lat="44.35594" lon="2.72224">
        <ele>739.8718262</ele>
        <time>2012-12-23T09:09:17Z</time>
      </trkpt>
      <trkpt lat="44.3559" lon="2.72228">
        <ele>739.3911133</ele>
        <time>2012-12-23T09:09:19Z</time>
      </trkpt>
      <trkpt lat="44.35581" lon="2.72243">
        <ele>737.9492188</ele>
        <time>2012-12-23T09:09:25Z</time>
      </trkpt>
      <trkpt lat="44.35579" lon="2.72244">
        <ele>737.9492188</ele>
        <time>2012-12-23T09:09:26Z</time>
      </trkpt>
      <trkpt lat="44.3557" lon="2.72253">
        <ele>737.4685059</ele>
        <time>2012-12-23T09:09:31Z</time>
      </trkpt>
      <trkpt lat="44.35557" lon="2.72262">
        <ele>735.5458984</ele>
        <time>2012-12-23T09:09:37Z</time>
      </trkpt>
      <trkpt lat="44.35548" lon="2.72267">
        <ele>736.987793</ele>
        <time>2012-12-23T09:09:42Z</time>
      </trkpt>
      <trkpt lat="44.35542" lon="2.72273">
        <ele>737.4685059</ele>
        <time>2012-12-23T09:09:45Z</time>
      </trkpt>
      <trkpt lat="44.35533" lon="2.72277">
        <ele>738.4299316</ele>
        <time>2012-12-23T09:09:49Z</time>
      </trkpt>
      <trkpt lat="44.35526" lon="2.72279">
        <ele>738.4299316</ele>
        <time>2012-12-23T09:09:53Z</time>
      </trkpt>
      <trkpt lat="44.35515" lon="2.72282">
        <ele>739.3911133</ele>
        <time>2012-12-23T09:09:58Z</time>
      </trkpt>
      <trkpt lat="44.35503" lon="2.7228">
        <ele>740.8330078</ele>
        <time>2012-12-23T09:10:03Z</time>
      </trkpt>
      <trkpt lat="44.35492" lon="2.72279">
        <ele>741.3137207</ele>
        <time>2012-12-23T09:10:08Z</time>
      </trkpt>
      <trkpt lat="44.35483" lon="2.72278">
        <ele>742.7558594</ele>
        <time>2012-12-23T09:10:12Z</time>
      </trkpt>
      <trkpt lat="44.35471" lon="2.72278">
        <ele>745.1589355</ele>
        <time>2012-12-23T09:10:17Z</time>
      </trkpt>
      <trkpt lat="44.3546" lon="2.72279">
        <ele>748.0432129</ele>
        <time>2012-12-23T09:10:22Z</time>
      </trkpt>
      <trkpt lat="44.35454" lon="2.72285">
        <ele>753.3303223</ele>
        <time>2012-12-23T09:10:29Z</time>
      </trkpt>
      <trkpt lat="44.35447" lon="2.72291">
        <ele>755.2529297</ele>
        <time>2012-12-23T09:10:35Z</time>
      </trkpt>
      <trkpt lat="44.35438" lon="2.72286">
        <ele>756.2141113</ele>
        <time>2012-12-23T09:10:38Z</time>
      </trkpt>
      <trkpt lat="44.35434" lon="2.72277">
        <ele>757.65625</ele>
        <time>2012-12-23T09:10:41Z</time>
      </trkpt>
      <trkpt lat="44.35433" lon="2.72261">
        <ele>761.020752</ele>
        <time>2012-12-23T09:10:48Z</time>
      </trkpt>
      <trkpt lat="44.35432" lon="2.72246">
        <ele>762.4626465</ele>
        <time>2012-12-23T09:10:54Z</time>
      </trkpt>
      <trkpt lat="44.35431" lon="2.72231">
        <ele>763.904541</ele>
        <time>2012-12-23T09:11:00Z</time>
      </trkpt>
      <trkpt lat="44.35424" lon="2.72217">
        <ele>765.8276367</ele>
        <time>2012-12-23T09:11:06Z</time>
      </trkpt>
      <trkpt lat="44.35416" lon="2.72206">
        <ele>767.75</ele>
        <time>2012-12-23T09:11:12Z</time>
      </trkpt>
      <trkpt lat="44.35403" lon="2.72189">
        <ele>770.6340332</ele>
        <time>2012-12-23T09:11:20Z</time>
      </trkpt>
      <trkpt lat="44.35392" lon="2.72175">
        <ele>771.1147461</ele>
        <time>2012-12-23T09:11:26Z</time>
      </trkpt>
      <trkpt lat="44.35384" lon="2.72165">
        <ele>771.5952148</ele>
        <time>2012-12-23T09:11:32Z</time>
      </trkpt>
      <trkpt lat="44.35382" lon="2.72161">
        <ele>772.0759277</ele>
        <time>2012-12-23T09:11:35Z</time>
      </trkpt>
      <trkpt lat="44.35374" lon="2.72151">
        <ele>771.5952148</ele>
        <time>2012-12-23T09:11:40Z</time>
      </trkpt>
      <trkpt lat="44.35362" lon="2.72135">
        <ele>773.0373535</ele>
        <time>2012-12-23T09:11:47Z</time>
      </trkpt>
      <trkpt lat="44.35353" lon="2.72122">
        <ele>773.5180664</ele>
        <time>2012-12-23T09:11:53Z</time>
      </trkpt>
      <trkpt lat="44.35346" lon="2.72112">
        <ele>773.9985352</ele>
        <time>2012-12-23T09:11:57Z</time>
      </trkpt>
      <trkpt lat="44.35337" lon="2.72101">
        <ele>773.9985352</ele>
        <time>2012-12-23T09:12:03Z</time>
      </trkpt>
      <trkpt lat="44.35328" lon="2.72086">
        <ele>775.4404297</ele>
        <time>2012-12-23T09:12:09Z</time>
      </trkpt>
      <trkpt lat="44.35319" lon="2.72074">
        <ele>777.3632813</ele>
        <time>2012-12-23T09:12:15Z</time>
      </trkpt>
      <trkpt lat="44.35308" lon="2.72059">
        <ele>779.2856445</ele>
        <time>2012-12-23T09:12:22Z</time>
      </trkpt>
      <trkpt lat="44.35298" lon="2.72046">
        <ele>780.7280273</ele>
        <time>2012-12-23T09:12:28Z</time>
      </trkpt>
      <trkpt lat="44.3529" lon="2.72035">
        <ele>782.1699219</ele>
        <time>2012-12-23T09:12:33Z</time>
      </trkpt>
      <trkpt lat="44.35279" lon="2.72023">
        <ele>782.6506348</ele>
        <time>2012-12-23T09:12:38Z</time>
      </trkpt>
      <trkpt lat="44.35267" lon="2.72011">
        <ele>781.689209</ele>
        <time>2012-12-23T09:12:44Z</time>
      </trkpt>
      <trkpt lat="44.35257" lon="2.72001">
        <ele>780.2473145</ele>
        <time>2012-12-23T09:12:49Z</time>
      </trkpt>
      <trkpt lat="44.35243" lon="2.71987">
        <ele>779.7663574</ele>
        <time>2012-12-23T09:12:55Z</time>
      </trkpt>
      <trkpt lat="44.35232" lon="2.71974">
        <ele>779.2856445</ele>
        <time>2012-12-23T09:13:00Z</time>
      </trkpt>
      <trkpt lat="44.35228" lon="2.71968">
        <ele>779.2856445</ele>
        <time>2012-12-23T09:13:02Z</time>
      </trkpt>
      <trkpt lat="44.35217" lon="2.71955">
        <ele>779.2856445</ele>
        <time>2012-12-23T09:13:07Z</time>
      </trkpt>
      <trkpt lat="44.35205" lon="2.71944">
        <ele>778.3244629</ele>
        <time>2012-12-23T09:13:12Z</time>
      </trkpt>
      <trkpt lat="44.35191" lon="2.71931">
        <ele>776.4018555</ele>
        <time>2012-12-23T09:13:18Z</time>
      </trkpt>
      <trkpt lat="44.35179" lon="2.71921">
        <ele>774.9599609</ele>
        <time>2012-12-23T09:13:23Z</time>
      </trkpt>
      <trkpt lat="44.3517" lon="2.7191">
        <ele>774.479248</ele>
        <time>2012-12-23T09:13:27Z</time>
      </trkpt>
      <trkpt lat="44.35162" lon="2.719">
        <ele>773.9985352</ele>
        <time>2012-12-23T09:13:31Z</time>
      </trkpt>
      <trkpt lat="44.35148" lon="2.71885">
        <ele>772.0759277</ele>
        <time>2012-12-23T09:13:37Z</time>
      </trkpt>
      <trkpt lat="44.35136" lon="2.71873">
        <ele>771.1147461</ele>
        <time>2012-12-23T09:13:42Z</time>
      </trkpt>
      <trkpt lat="44.35127" lon="2.71861">
        <ele>771.1147461</ele>
        <time>2012-12-23T09:13:47Z</time>
      </trkpt>
      <trkpt lat="44.3512" lon="2.7184">
        <ele>771.1147461</ele>
        <time>2012-12-23T09:13:53Z</time>
      </trkpt>
      <trkpt lat="44.35115" lon="2.71829">
        <ele>771.1147461</ele>
        <time>2012-12-23T09:13:57Z</time>
      </trkpt>
      <trkpt lat="44.35104" lon="2.71824">
        <ele>771.5952148</ele>
        <time>2012-12-23T09:14:01Z</time>
      </trkpt>
      <trkpt lat="44.35094" lon="2.71835">
        <ele>771.5952148</ele>
        <time>2012-12-23T09:14:06Z</time>
      </trkpt>
      <trkpt lat="44.35087" lon="2.7184">
        <ele>770.1533203</ele>
        <time>2012-12-23T09:14:09Z</time>
      </trkpt>
      <trkpt lat="44.35081" lon="2.71842">
        <ele>769.6728516</ele>
        <time>2012-12-23T09:14:11Z</time>
      </trkpt>
      <trkpt lat="44.35064" lon="2.71842">
        <ele>765.3469238</ele>
        <time>2012-12-23T09:14:17Z</time>
      </trkpt>
      <trkpt lat="44.3505" lon="2.71836">
        <ele>762.9433594</ele>
        <time>2012-12-23T09:14:22Z</time>
      </trkpt>
      <trkpt lat="44.35037" lon="2.71829">
        <ele>763.4240723</ele>
        <time>2012-12-23T09:14:27Z</time>
      </trkpt>
      <trkpt lat="44.35023" lon="2.71822">
        <ele>762.4626465</ele>
        <time>2012-12-23T09:14:32Z</time>
      </trkpt>
      <trkpt lat="44.35006" lon="2.71815">
        <ele>762.9433594</ele>
        <time>2012-12-23T09:14:38Z</time>
      </trkpt>
      <trkpt lat="44.34997" lon="2.71811">
        <ele>762.9433594</ele>
        <time>2012-12-23T09:14:42Z</time>
      </trkpt>
      <trkpt lat="44.34984" lon="2.71804">
        <ele>762.9433594</ele>
        <time>2012-12-23T09:14:47Z</time>
      </trkpt>
      <trkpt lat="44.3497" lon="2.71798">
        <ele>763.4240723</ele>
        <time>2012-12-23T09:14:52Z</time>
      </trkpt>
      <trkpt lat="44.34955" lon="2.71794">
        <ele>762.9433594</ele>
        <time>2012-12-23T09:14:57Z</time>
      </trkpt>
      <trkpt lat="44.34941" lon="2.71791">
        <ele>761.5014648</ele>
        <time>2012-12-23T09:15:02Z</time>
      </trkpt>
      <trkpt lat="44.34927" lon="2.71788">
        <ele>759.0981445</ele>
        <time>2012-12-23T09:15:07Z</time>
      </trkpt>
      <trkpt lat="44.34917" lon="2.71784">
        <ele>757.65625</ele>
        <time>2012-12-23T09:15:11Z</time>
      </trkpt>
      <trkpt lat="44.34903" lon="2.71782">
        <ele>755.7336426</ele>
        <time>2012-12-23T09:15:16Z</time>
      </trkpt>
      <trkpt lat="44.34893" lon="2.71781">
        <ele>754.291748</ele>
        <time>2012-12-23T09:15:20Z</time>
      </trkpt>
      <trkpt lat="44.34881" lon="2.71779">
        <ele>754.291748</ele>
        <time>2012-12-23T09:15:24Z</time>
      </trkpt>
      <trkpt lat="44.34867" lon="2.71779">
        <ele>753.8110352</ele>
        <time>2012-12-23T09:15:29Z</time>
      </trkpt>
      <trkpt lat="44.34853" lon="2.71778">
        <ele>755.7336426</ele>
        <time>2012-12-23T09:15:34Z</time>
      </trkpt>
      <trkpt lat="44.34835" lon="2.71777">
        <ele>757.65625</ele>
        <time>2012-12-23T09:15:40Z</time>
      </trkpt>
      <trkpt lat="44.34823" lon="2.71778">
        <ele>758.6174316</ele>
        <time>2012-12-23T09:15:44Z</time>
      </trkpt>
      <trkpt lat="44.34801" lon="2.71783">
        <ele>759.5788574</ele>
        <time>2012-12-23T09:15:51Z</time>
      </trkpt>
      <trkpt lat="44.34786" lon="2.71787">
        <ele>760.0593262</ele>
        <time>2012-12-23T09:15:56Z</time>
      </trkpt>
      <trkpt lat="44.34769" lon="2.71793">
        <ele>761.5014648</ele>
        <time>2012-12-23T09:16:01Z</time>
      </trkpt>
      <trkpt lat="44.34753" lon="2.71799">
        <ele>761.5014648</ele>
        <time>2012-12-23T09:16:06Z</time>
      </trkpt>
      <trkpt lat="44.3474" lon="2.71795">
        <ele>760.5400391</ele>
        <time>2012-12-23T09:16:10Z</time>
      </trkpt>
      <trkpt lat="44.34726" lon="2.71781">
        <ele>761.020752</ele>
        <time>2012-12-23T09:16:15Z</time>
      </trkpt>
      <trkpt lat="44.34721" lon="2.71765">
        <ele>761.5014648</ele>
        <time>2012-12-23T09:16:19Z</time>
      </trkpt>
      <trkpt lat="44.34722" lon="2.71751">
        <ele>762.4626465</ele>
        <time>2012-12-23T09:16:22Z</time>
      </trkpt>
      <trkpt lat="44.34726" lon="2.71729">
        <ele>764.8662109</ele>
        <time>2012-12-23T09:16:27Z</time>
      </trkpt>
      <trkpt lat="44.34729" lon="2.71709">
        <ele>765.8276367</ele>
        <time>2012-12-23T09:16:32Z</time>
      </trkpt>
      <trkpt lat="44.34731" lon="2.71689">
        <ele>766.7888184</ele>
        <time>2012-12-23T09:16:36Z</time>
      </trkpt>
      <trkpt lat="44.34732" lon="2.71675">
        <ele>767.75</ele>
        <time>2012-12-23T09:16:40Z</time>
      </trkpt>
      <trkpt lat="44.34735" lon="2.71659">
        <ele>768.2307129</ele>
        <time>2012-12-23T09:16:44Z</time>
      </trkpt>
      <trkpt lat="44.34739" lon="2.71646">
        <ele>768.7114258</ele>
        <time>2012-12-23T09:16:48Z</time>
      </trkpt>
      <trkpt lat="44.34749" lon="2.71628">
        <ele>769.1921387</ele>
        <time>2012-12-23T09:16:54Z</time>
      </trkpt>
      <trkpt lat="44.34755" lon="2.71612">
        <ele>769.6728516</ele>
        <time>2012-12-23T09:16:59Z</time>
      </trkpt>
      <trkpt lat="44.34762" lon="2.71602">
        <ele>767.75</ele>
        <time>2012-12-23T09:17:03Z</time>
      </trkpt>
      <trkpt lat="44.34769" lon="2.7159">
        <ele>766.3081055</ele>
        <time>2012-12-23T09:17:07Z</time>
      </trkpt>
      <trkpt lat="44.3477" lon="2.71586">
        <ele>765.8276367</ele>
        <time>2012-12-23T09:17:08Z</time>
      </trkpt>
      <trkpt lat="44.3478" lon="2.71561">
        <ele>764.385498</ele>
        <time>2012-12-23T09:17:15Z</time>
      </trkpt>
      <trkpt lat="44.34792" lon="2.71544">
        <ele>762.4626465</ele>
        <time>2012-12-23T09:17:21Z</time>
      </trkpt>
      <trkpt lat="44.34797" lon="2.71532">
        <ele>760.5400391</ele>
        <time>2012-12-23T09:17:25Z</time>
      </trkpt>
      <trkpt lat="44.34808" lon="2.71516">
        <ele>754.291748</ele>
        <time>2012-12-23T09:17:30Z</time>
      </trkpt>
      <trkpt lat="44.34816" lon="2.71502">
        <ele>752.8496094</ele>
        <time>2012-12-23T09:17:34Z</time>
      </trkpt>
      <trkpt lat="44.34827" lon="2.71487">
        <ele>750.4465332</ele>
        <time>2012-12-23T09:17:39Z</time>
      </trkpt>
      <trkpt lat="44.34831" lon="2.71473">
        <ele>750.4465332</ele>
        <time>2012-12-23T09:17:42Z</time>
      </trkpt>
      <trkpt lat="44.34835" lon="2.71457">
        <ele>749.9658203</ele>
        <time>2012-12-23T09:17:46Z</time>
      </trkpt>
      <trkpt lat="44.34836" lon="2.71453">
        <ele>749.9658203</ele>
        <time>2012-12-23T09:17:47Z</time>
      </trkpt>
      <trkpt lat="44.34827" lon="2.71435">
        <ele>752.3688965</ele>
        <time>2012-12-23T09:17:53Z</time>
      </trkpt>
      <trkpt lat="44.34821" lon="2.7143">
        <ele>753.8110352</ele>
        <time>2012-12-23T09:17:55Z</time>
      </trkpt>
      <trkpt lat="44.34805" lon="2.71422">
        <ele>754.291748</ele>
        <time>2012-12-23T09:18:01Z</time>
      </trkpt>
      <trkpt lat="44.34802" lon="2.71422">
        <ele>753.8110352</ele>
        <time>2012-12-23T09:18:02Z</time>
      </trkpt>
      <trkpt lat="44.3479" lon="2.71418">
        <ele>752.8496094</ele>
        <time>2012-12-23T09:18:06Z</time>
      </trkpt>
      <trkpt lat="44.3477" lon="2.71414">
        <ele>750.927002</ele>
        <time>2012-12-23T09:18:13Z</time>
      </trkpt>
      <trkpt lat="44.3475" lon="2.7141">
        <ele>748.0432129</ele>
        <time>2012-12-23T09:18:20Z</time>
      </trkpt>
      <trkpt lat="44.34736" lon="2.71409">
        <ele>748.0432129</ele>
        <time>2012-12-23T09:18:25Z</time>
      </trkpt>
      <trkpt lat="44.34721" lon="2.71412">
        <ele>749.9658203</ele>
        <time>2012-12-23T09:18:30Z</time>
      </trkpt>
      <trkpt lat="44.34707" lon="2.71411">
        <ele>750.927002</ele>
        <time>2012-12-23T09:18:34Z</time>
      </trkpt>
      <trkpt lat="44.34693" lon="2.71411">
        <ele>750.4465332</ele>
        <time>2012-12-23T09:18:38Z</time>
      </trkpt>
      <trkpt lat="44.34673" lon="2.71411">
        <ele>749.9658203</ele>
        <time>2012-12-23T09:18:44Z</time>
      </trkpt>
      <trkpt lat="44.34656" lon="2.71411">
        <ele>749.9658203</ele>
        <time>2012-12-23T09:18:49Z</time>
      </trkpt>
      <trkpt lat="44.3464" lon="2.71404">
        <ele>749.4851074</ele>
        <time>2012-12-23T09:18:54Z</time>
      </trkpt>
      <trkpt lat="44.3463" lon="2.71394">
        <ele>748.0432129</ele>
        <time>2012-12-23T09:18:58Z</time>
      </trkpt>
      <trkpt lat="44.3462" lon="2.7139">
        <ele>744.6782227</ele>
        <time>2012-12-23T09:19:02Z</time>
      </trkpt>
      <trkpt lat="44.34617" lon="2.71391">
        <ele>744.6782227</ele>
        <time>2012-12-23T09:19:03Z</time>
      </trkpt>
      <trkpt lat="44.34602" lon="2.71385">
        <ele>741.3137207</ele>
        <time>2012-12-23T09:19:08Z</time>
      </trkpt>
      <trkpt lat="44.3459" lon="2.71381">
        <ele>738.9106445</ele>
        <time>2012-12-23T09:19:12Z</time>
      </trkpt>
      <trkpt lat="44.34577" lon="2.71374">
        <ele>734.1040039</ele>
        <time>2012-12-23T09:19:17Z</time>
      </trkpt>
      <trkpt lat="44.3456" lon="2.71369">
        <ele>730.2585449</ele>
        <time>2012-12-23T09:19:23Z</time>
      </trkpt>
      <trkpt lat="44.34547" lon="2.7136">
        <ele>729.777832</ele>
        <time>2012-12-23T09:19:28Z</time>
      </trkpt>
      <trkpt lat="44.34527" lon="2.7135">
        <ele>729.2971191</ele>
        <time>2012-12-23T09:19:36Z</time>
      </trkpt>
      <trkpt lat="44.3452" lon="2.71349">
        <ele>728.3359375</ele>
        <time>2012-12-23T09:19:40Z</time>
      </trkpt>
      <trkpt lat="44.34514" lon="2.7135">
        <ele>727.8552246</ele>
        <time>2012-12-23T09:19:44Z</time>
      </trkpt>
      <trkpt lat="44.3451" lon="2.71351">
        <ele>725.4519043</ele>
        <time>2012-12-23T09:19:49Z</time>
      </trkpt>
      <trkpt lat="44.34507" lon="2.71351">
        <ele>726.4133301</ele>
        <time>2012-12-23T09:19:51Z</time>
      </trkpt>
      <trkpt lat="44.34502" lon="2.71345">
        <ele>725.9326172</ele>
        <time>2012-12-23T09:19:56Z</time>
      </trkpt>
      <trkpt lat="44.34499" lon="2.71333">
        <ele>724.9714355</ele>
        <time>2012-12-23T09:20:01Z</time>
      </trkpt>
      <trkpt lat="44.34494" lon="2.71319">
        <ele>724.9714355</ele>
        <time>2012-12-23T09:20:06Z</time>
      </trkpt>
      <trkpt lat="44.34485" lon="2.71308">
        <ele>724.9714355</ele>
        <time>2012-12-23T09:20:12Z</time>
      </trkpt>
      <trkpt lat="44.34476" lon="2.71304">
        <ele>726.4133301</ele>
        <time>2012-12-23T09:20:17Z</time>
      </trkpt>
      <trkpt lat="44.34464" lon="2.71303">
        <ele>729.777832</ele>
        <time>2012-12-23T09:20:23Z</time>
      </trkpt>
      <trkpt lat="44.34452" lon="2.71303">
        <ele>730.7392578</ele>
        <time>2012-12-23T09:20:28Z</time>
      </trkpt>
      <trkpt lat="44.34444" lon="2.71304">
        <ele>731.7004395</ele>
        <time>2012-12-23T09:20:33Z</time>
      </trkpt>
      <trkpt lat="44.34439" lon="2.71303">
        <ele>731.7004395</ele>
        <time>2012-12-23T09:20:37Z</time>
      </trkpt>
      <trkpt lat="44.34429" lon="2.71299">
        <ele>735.5458984</ele>
        <time>2012-12-23T09:20:43Z</time>
      </trkpt>
      <trkpt lat="44.34416" lon="2.71292">
        <ele>738.4299316</ele>
        <time>2012-12-23T09:20:51Z</time>
      </trkpt>
      <trkpt lat="44.34409" lon="2.71284">
        <ele>739.3911133</ele>
        <time>2012-12-23T09:20:55Z</time>
      </trkpt>
      <trkpt lat="44.34401" lon="2.71277">
        <ele>741.3137207</ele>
        <time>2012-12-23T09:21:00Z</time>
      </trkpt>
      <trkpt lat="44.34398" lon="2.71276">
        <ele>741.7944336</ele>
        <time>2012-12-23T09:21:01Z</time>
      </trkpt>
      <trkpt lat="44.34382" lon="2.71271">
        <ele>742.2751465</ele>
        <time>2012-12-23T09:21:08Z</time>
      </trkpt>
      <trkpt lat="44.3438" lon="2.7127">
        <ele>742.7558594</ele>
        <time>2012-12-23T09:21:09Z</time>
      </trkpt>
      <trkpt lat="44.34377" lon="2.71256">
        <ele>743.717041</ele>
        <time>2012-12-23T09:21:13Z</time>
      </trkpt>
      <trkpt lat="44.3438" lon="2.71236">
        <ele>745.1589355</ele>
        <time>2012-12-23T09:21:18Z</time>
      </trkpt>
      <trkpt lat="44.34385" lon="2.71217">
        <ele>746.6010742</ele>
        <time>2012-12-23T09:21:23Z</time>
      </trkpt>
      <trkpt lat="44.34392" lon="2.71198">
        <ele>747.081543</ele>
        <time>2012-12-23T09:21:29Z</time>
      </trkpt>
      <trkpt lat="44.34395" lon="2.71179">
        <ele>747.5622559</ele>
        <time>2012-12-23T09:21:34Z</time>
      </trkpt>
      <trkpt lat="44.34399" lon="2.7116">
        <ele>746.1203613</ele>
        <time>2012-12-23T09:21:39Z</time>
      </trkpt>
      <trkpt lat="44.34404" lon="2.71143">
        <ele>744.6782227</ele>
        <time>2012-12-23T09:21:44Z</time>
      </trkpt>
      <trkpt lat="44.34406" lon="2.71127">
        <ele>744.6782227</ele>
        <time>2012-12-23T09:21:48Z</time>
      </trkpt>
      <trkpt lat="44.34404" lon="2.71102">
        <ele>744.1977539</ele>
        <time>2012-12-23T09:21:54Z</time>
      </trkpt>
      <trkpt lat="44.34404" lon="2.71068">
        <ele>744.1977539</ele>
        <time>2012-12-23T09:22:00Z</time>
      </trkpt>
      <trkpt lat="44.34403" lon="2.71048">
        <ele>743.2363281</ele>
        <time>2012-12-23T09:22:04Z</time>
      </trkpt>
      <trkpt lat="44.34402" lon="2.71031">
        <ele>742.2751465</ele>
        <time>2012-12-23T09:22:08Z</time>
      </trkpt>
      <trkpt lat="44.34402" lon="2.71007">
        <ele>741.3137207</ele>
        <time>2012-12-23T09:22:14Z</time>
      </trkpt>
      <trkpt lat="44.34401" lon="2.70982">
        <ele>739.8718262</ele>
        <time>2012-12-23T09:22:20Z</time>
      </trkpt>
      <trkpt lat="44.34401" lon="2.70955">
        <ele>737.9492188</ele>
        <time>2012-12-23T09:22:27Z</time>
      </trkpt>
      <trkpt lat="44.34401" lon="2.70931">
        <ele>736.5073242</ele>
        <time>2012-12-23T09:22:33Z</time>
      </trkpt>
      <trkpt lat="44.344" lon="2.7091">
        <ele>736.0266113</ele>
        <time>2012-12-23T09:22:38Z</time>
      </trkpt>
      <trkpt lat="44.34398" lon="2.70889">
        <ele>735.5458984</ele>
        <time>2012-12-23T09:22:43Z</time>
      </trkpt>
      <trkpt lat="44.34397" lon="2.70862">
        <ele>734.5847168</ele>
        <time>2012-12-23T09:22:50Z</time>
      </trkpt>
      <trkpt lat="44.34396" lon="2.70833">
        <ele>734.1040039</ele>
        <time>2012-12-23T09:22:57Z</time>
      </trkpt>
      <trkpt lat="44.34394" lon="2.70804">
        <ele>734.5847168</ele>
        <time>2012-12-23T09:23:04Z</time>
      </trkpt>
      <trkpt lat="44.34392" lon="2.70776">
        <ele>735.0654297</ele>
        <time>2012-12-23T09:23:11Z</time>
      </trkpt>
      <trkpt lat="44.34389" lon="2.70753">
        <ele>735.5458984</ele>
        <time>2012-12-23T09:23:17Z</time>
      </trkpt>
      <trkpt lat="44.34386" lon="2.70721">
        <ele>734.1040039</ele>
        <time>2012-12-23T09:23:25Z</time>
      </trkpt>
      <trkpt lat="44.34381" lon="2.70702">
        <ele>732.6621094</ele>
        <time>2012-12-23T09:23:30Z</time>
      </trkpt>
      <trkpt lat="44.34374" lon="2.70681">
        <ele>729.2971191</ele>
        <time>2012-12-23T09:23:36Z</time>
      </trkpt>
      <trkpt lat="44.34372" lon="2.70679">
        <ele>728.8166504</ele>
        <time>2012-12-23T09:23:37Z</time>
      </trkpt>
      <trkpt lat="44.34369" lon="2.70666">
        <ele>727.8552246</ele>
        <time>2012-12-23T09:23:40Z</time>
      </trkpt>
      <trkpt lat="44.34362" lon="2.70653">
        <ele>726.894043</ele>
        <time>2012-12-23T09:23:44Z</time>
      </trkpt>
      <trkpt lat="44.34358" lon="2.70641">
        <ele>726.894043</ele>
        <time>2012-12-23T09:23:47Z</time>
      </trkpt>
      <trkpt lat="44.34349" lon="2.7062">
        <ele>724.9714355</ele>
        <time>2012-12-23T09:23:53Z</time>
      </trkpt>
      <trkpt lat="44.3434" lon="2.706">
        <ele>723.529541</ele>
        <time>2012-12-23T09:23:59Z</time>
      </trkpt>
      <trkpt lat="44.34329" lon="2.70578">
        <ele>722.5681152</ele>
        <time>2012-12-23T09:24:06Z</time>
      </trkpt>
      <trkpt lat="44.34321" lon="2.70563">
        <ele>722.0874023</ele>
        <time>2012-12-23T09:24:11Z</time>
      </trkpt>
      <trkpt lat="44.34314" lon="2.7055">
        <ele>721.6066895</ele>
        <time>2012-12-23T09:24:15Z</time>
      </trkpt>
      <trkpt lat="44.34304" lon="2.70539">
        <ele>721.1262207</ele>
        <time>2012-12-23T09:24:20Z</time>
      </trkpt>
      <trkpt lat="44.34294" lon="2.70526">
        <ele>721.1262207</ele>
        <time>2012-12-23T09:24:25Z</time>
      </trkpt>
      <trkpt lat="44.34289" lon="2.70511">
        <ele>721.1262207</ele>
        <time>2012-12-23T09:24:29Z</time>
      </trkpt>
      <trkpt lat="44.34288" lon="2.70507">
        <ele>721.1262207</ele>
        <time>2012-12-23T09:24:30Z</time>
      </trkpt>
      <trkpt lat="44.34296" lon="2.70491">
        <ele>721.6066895</ele>
        <time>2012-12-23T09:24:35Z</time>
      </trkpt>
      <trkpt lat="44.343" lon="2.70486">
        <ele>721.6066895</ele>
        <time>2012-12-23T09:24:37Z</time>
      </trkpt>
      <trkpt lat="44.34304" lon="2.7047">
        <ele>718.7229004</ele>
        <time>2012-12-23T09:24:42Z</time>
      </trkpt>
      <trkpt lat="44.34304" lon="2.70467">
        <ele>717.7614746</ele>
        <time>2012-12-23T09:24:43Z</time>
      </trkpt>
      <trkpt lat="44.34298" lon="2.70449">
        <ele>715.3581543</ele>
        <time>2012-12-23T09:24:48Z</time>
      </trkpt>
      <trkpt lat="44.34298" lon="2.70444">
        <ele>714.8774414</ele>
        <time>2012-12-23T09:24:49Z</time>
      </trkpt>
      <trkpt lat="44.34296" lon="2.70421">
        <ele>712.954834</ele>
        <time>2012-12-23T09:24:54Z</time>
      </trkpt>
      <trkpt lat="44.34296" lon="2.70407">
        <ele>711.5129395</ele>
        <time>2012-12-23T09:24:57Z</time>
      </trkpt>
      <trkpt lat="44.34295" lon="2.70394">
        <ele>710.0708008</ele>
        <time>2012-12-23T09:25:00Z</time>
      </trkpt>
      <trkpt lat="44.34289" lon="2.70385">
        <ele>710.0708008</ele>
        <time>2012-12-23T09:25:03Z</time>
      </trkpt>
      <trkpt lat="44.34276" lon="2.70377">
        <ele>710.5515137</ele>
        <time>2012-12-23T09:25:07Z</time>
      </trkpt>
      <trkpt lat="44.34257" lon="2.70376">
        <ele>707.6677246</ele>
        <time>2012-12-23T09:25:13Z</time>
      </trkpt>
      <trkpt lat="44.34254" lon="2.70377">
        <ele>707.1870117</ele>
        <time>2012-12-23T09:25:14Z</time>
      </trkpt>
      <trkpt lat="44.34248" lon="2.70392">
        <ele>704.3032227</ele>
        <time>2012-12-23T09:25:19Z</time>
      </trkpt>
      <trkpt lat="44.34247" lon="2.70408">
        <ele>704.7836914</ele>
        <time>2012-12-23T09:25:23Z</time>
      </trkpt>
      <trkpt lat="44.34246" lon="2.70416">
        <ele>705.2644043</ele>
        <time>2012-12-23T09:25:25Z</time>
      </trkpt>
      <trkpt lat="44.34238" lon="2.7042">
        <ele>703.8225098</ele>
        <time>2012-12-23T09:25:29Z</time>
      </trkpt>
      <trkpt lat="44.34238" lon="2.70417">
        <ele>702.861084</ele>
        <time>2012-12-23T09:25:30Z</time>
      </trkpt>
      <trkpt lat="44.34236" lon="2.7039">
        <ele>698.5349121</ele>
        <time>2012-12-23T09:25:37Z</time>
      </trkpt>
      <trkpt lat="44.34237" lon="2.70372">
        <ele>695.1704102</ele>
        <time>2012-12-23T09:25:42Z</time>
      </trkpt>
      <trkpt lat="44.34237" lon="2.70368">
        <ele>695.1704102</ele>
        <time>2012-12-23T09:25:43Z</time>
      </trkpt>
      <trkpt lat="44.34239" lon="2.70344">
        <ele>690.3640137</ele>
        <time>2012-12-23T09:25:49Z</time>
      </trkpt>
      <trkpt lat="44.34242" lon="2.70323">
        <ele>688.4414063</ele>
        <time>2012-12-23T09:25:54Z</time>
      </trkpt>
      <trkpt lat="44.34241" lon="2.70301">
        <ele>687.4799805</ele>
        <time>2012-12-23T09:25:59Z</time>
      </trkpt>
      <trkpt lat="44.34241" lon="2.7028">
        <ele>682.192627</ele>
        <time>2012-12-23T09:26:05Z</time>
      </trkpt>
      <trkpt lat="44.3424" lon="2.70265">
        <ele>679.3085938</ele>
        <time>2012-12-23T09:26:09Z</time>
      </trkpt>
      <trkpt lat="44.34242" lon="2.70246">
        <ele>676.4248047</ele>
        <time>2012-12-23T09:26:14Z</time>
      </trkpt>
      <trkpt lat="44.34243" lon="2.70225">
        <ele>673.5410156</ele>
        <time>2012-12-23T09:26:19Z</time>
      </trkpt>
      <trkpt lat="44.34242" lon="2.70217">
        <ele>672.098877</ele>
        <time>2012-12-23T09:26:21Z</time>
      </trkpt>
      <trkpt lat="44.34246" lon="2.70194">
        <ele>667.2922363</ele>
        <time>2012-12-23T09:26:27Z</time>
      </trkpt>
      <trkpt lat="44.34246" lon="2.70167">
        <ele>663.4470215</ele>
        <time>2012-12-23T09:26:34Z</time>
      </trkpt>
      <trkpt lat="44.34243" lon="2.70151">
        <ele>662.4855957</ele>
        <time>2012-12-23T09:26:39Z</time>
      </trkpt>
      <trkpt lat="44.34248" lon="2.70128">
        <ele>662.4855957</ele>
        <time>2012-12-23T09:26:45Z</time>
      </trkpt>
      <trkpt lat="44.34253" lon="2.7011">
        <ele>662.4855957</ele>
        <time>2012-12-23T09:26:50Z</time>
      </trkpt>
      <trkpt lat="44.34257" lon="2.70096">
        <ele>662.4855957</ele>
        <time>2012-12-23T09:26:54Z</time>
      </trkpt>
      <trkpt lat="44.34259" lon="2.70084">
        <ele>663.4470215</ele>
        <time>2012-12-23T09:26:57Z</time>
      </trkpt>
      <trkpt lat="44.34264" lon="2.70061">
        <ele>666.8115234</ele>
        <time>2012-12-23T09:27:03Z</time>
      </trkpt>
      <trkpt lat="44.34269" lon="2.70039">
        <ele>668.734375</ele>
        <time>2012-12-23T09:27:09Z</time>
      </trkpt>
      <trkpt lat="44.34274" lon="2.7002">
        <ele>669.6958008</ele>
        <time>2012-12-23T09:27:14Z</time>
      </trkpt>
      <trkpt lat="44.34279" lon="2.70002">
        <ele>669.2150879</ele>
        <time>2012-12-23T09:27:19Z</time>
      </trkpt>
      <trkpt lat="44.34284" lon="2.69985">
        <ele>668.734375</ele>
        <time>2012-12-23T09:27:24Z</time>
      </trkpt>
      <trkpt lat="44.34289" lon="2.69962">
        <ele>667.2922363</ele>
        <time>2012-12-23T09:27:30Z</time>
      </trkpt>
      <trkpt lat="44.34291" lon="2.69943">
        <ele>666.8115234</ele>
        <time>2012-12-23T09:27:35Z</time>
      </trkpt>
      <trkpt lat="44.34294" lon="2.6992">
        <ele>665.3696289</ele>
        <time>2012-12-23T09:27:41Z</time>
      </trkpt>
      <trkpt lat="44.34294" lon="2.69889">
        <ele>664.4082031</ele>
        <time>2012-12-23T09:27:49Z</time>
      </trkpt>
      <trkpt lat="44.34293" lon="2.69874">
        <ele>662.9663086</ele>
        <time>2012-12-23T09:27:53Z</time>
      </trkpt>
      <trkpt lat="44.34293" lon="2.69858">
        <ele>662.005127</ele>
        <time>2012-12-23T09:27:57Z</time>
      </trkpt>
      <trkpt lat="44.34295" lon="2.69836">
        <ele>660.5629883</ele>
        <time>2012-12-23T09:28:03Z</time>
      </trkpt>
      <trkpt lat="44.34298" lon="2.69813">
        <ele>658.6403809</ele>
        <time>2012-12-23T09:28:09Z</time>
      </trkpt>
      <trkpt lat="44.34303" lon="2.69793">
        <ele>657.1984863</ele>
        <time>2012-12-23T09:28:14Z</time>
      </trkpt>
      <trkpt lat="44.34311" lon="2.69775">
        <ele>656.7177734</ele>
        <time>2012-12-23T09:28:19Z</time>
      </trkpt>
      <trkpt lat="44.34321" lon="2.69756">
        <ele>654.795166</ele>
        <time>2012-12-23T09:28:25Z</time>
      </trkpt>
      <trkpt lat="44.34329" lon="2.69744">
        <ele>653.8339844</ele>
        <time>2012-12-23T09:28:29Z</time>
      </trkpt>
      <trkpt lat="44.34339" lon="2.6973">
        <ele>653.3532715</ele>
        <time>2012-12-23T09:28:34Z</time>
      </trkpt>
      <trkpt lat="44.3435" lon="2.69713">
        <ele>651.9111328</ele>
        <time>2012-12-23T09:28:40Z</time>
      </trkpt>
      <trkpt lat="44.3436" lon="2.69698">
        <ele>650.949707</ele>
        <time>2012-12-23T09:28:45Z</time>
      </trkpt>
      <trkpt lat="44.34369" lon="2.69682">
        <ele>649.5078125</ele>
        <time>2012-12-23T09:28:50Z</time>
      </trkpt>
      <trkpt lat="44.34364" lon="2.69677">
        <ele>648.065918</ele>
        <time>2012-12-23T09:28:54Z</time>
      </trkpt>
      <trkpt lat="44.3436" lon="2.6968">
        <ele>647.1044922</ele>
        <time>2012-12-23T09:28:56Z</time>
      </trkpt>
      <trkpt lat="44.34352" lon="2.69693">
        <ele>646.1433105</ele>
        <time>2012-12-23T09:29:00Z</time>
      </trkpt>
      <trkpt lat="44.34345" lon="2.69706">
        <ele>644.2207031</ele>
        <time>2012-12-23T09:29:05Z</time>
      </trkpt>
      <trkpt lat="44.34337" lon="2.69714">
        <ele>643.7399902</ele>
        <time>2012-12-23T09:29:09Z</time>
      </trkpt>
      <trkpt lat="44.34333" lon="2.69718">
        <ele>644.2207031</ele>
        <time>2012-12-23T09:29:11Z</time>
      </trkpt>
      <trkpt lat="44.34322" lon="2.69727">
        <ele>644.7011719</ele>
        <time>2012-12-23T09:29:16Z</time>
      </trkpt>
      <trkpt lat="44.3432" lon="2.6973">
        <ele>645.1818848</ele>
        <time>2012-12-23T09:29:17Z</time>
      </trkpt>
      <trkpt lat="44.34308" lon="2.69743">
        <ele>646.6240234</ele>
        <time>2012-12-23T09:29:23Z</time>
      </trkpt>
      <trkpt lat="44.34304" lon="2.69748">
        <ele>648.065918</ele>
        <time>2012-12-23T09:29:25Z</time>
      </trkpt>
      <trkpt lat="44.34292" lon="2.69762">
        <ele>650.4692383</ele>
        <time>2012-12-23T09:29:31Z</time>
      </trkpt>
      <trkpt lat="44.34283" lon="2.6978">
        <ele>652.8725586</ele>
        <time>2012-12-23T09:29:36Z</time>
      </trkpt>
      <trkpt lat="44.34272" lon="2.69785">
        <ele>652.3918457</ele>
        <time>2012-12-23T09:29:40Z</time>
      </trkpt>
      <trkpt lat="44.34266" lon="2.69787">
        <ele>651.9111328</ele>
        <time>2012-12-23T09:29:42Z</time>
      </trkpt>
      <trkpt lat="44.34252" lon="2.69777">
        <ele>648.5463867</ele>
        <time>2012-12-23T09:29:48Z</time>
      </trkpt>
      <trkpt lat="44.34242" lon="2.6977">
        <ele>647.5852051</ele>
        <time>2012-12-23T09:29:52Z</time>
      </trkpt>
      <trkpt lat="44.3423" lon="2.69765">
        <ele>644.7011719</ele>
        <time>2012-12-23T09:29:57Z</time>
      </trkpt>
      <trkpt lat="44.34218" lon="2.69768">
        <ele>648.5463867</ele>
        <time>2012-12-23T09:30:03Z</time>
      </trkpt>
      <trkpt lat="44.34211" lon="2.69773">
        <ele>652.3918457</ele>
        <time>2012-12-23T09:30:07Z</time>
      </trkpt>
      <trkpt lat="44.34201" lon="2.69777">
        <ele>656.7177734</ele>
        <time>2012-12-23T09:30:10Z</time>
      </trkpt>
      <trkpt lat="44.34187" lon="2.69784">
        <ele>659.1210938</ele>
        <time>2012-12-23T09:30:16Z</time>
      </trkpt>
      <trkpt lat="44.34177" lon="2.69788">
        <ele>658.6403809</ele>
        <time>2012-12-23T09:30:20Z</time>
      </trkpt>
      <trkpt lat="44.34169" lon="2.69791">
        <ele>660.0822754</ele>
        <time>2012-12-23T09:30:24Z</time>
      </trkpt>
      <trkpt lat="44.34163" lon="2.69793">
        <ele>661.5244141</ele>
        <time>2012-12-23T09:30:27Z</time>
      </trkpt>
      <trkpt lat="44.34153" lon="2.69799">
        <ele>668.734375</ele>
        <time>2012-12-23T09:30:32Z</time>
      </trkpt>
      <trkpt lat="44.34147" lon="2.69803">
        <ele>670.1762695</ele>
        <time>2012-12-23T09:30:35Z</time>
      </trkpt>
      <trkpt lat="44.34144" lon="2.69808">
        <ele>674.9829102</ele>
        <time>2012-12-23T09:30:38Z</time>
      </trkpt>
      <trkpt lat="44.34141" lon="2.69817">
        <ele>676.9055176</ele>
        <time>2012-12-23T09:30:42Z</time>
      </trkpt>
      <trkpt lat="44.34138" lon="2.6982">
        <ele>676.4248047</ele>
        <time>2012-12-23T09:30:44Z</time>
      </trkpt>
      <trkpt lat="44.34132" lon="2.69832">
        <ele>674.5021973</ele>
        <time>2012-12-23T09:30:50Z</time>
      </trkpt>
      <trkpt lat="44.34129" lon="2.69838">
        <ele>674.0214844</ele>
        <time>2012-12-23T09:30:53Z</time>
      </trkpt>
      <trkpt lat="44.34123" lon="2.69843">
        <ele>668.734375</ele>
        <time>2012-12-23T09:30:57Z</time>
      </trkpt>
      <trkpt lat="44.34118" lon="2.69854">
        <ele>666.8115234</ele>
        <time>2012-12-23T09:31:02Z</time>
      </trkpt>
      <trkpt lat="44.34115" lon="2.69864">
        <ele>667.2922363</ele>
        <time>2012-12-23T09:31:07Z</time>
      </trkpt>
      <trkpt lat="44.34109" lon="2.69878">
        <ele>667.7727051</ele>
        <time>2012-12-23T09:31:12Z</time>
      </trkpt>
      <trkpt lat="44.34102" lon="2.69889">
        <ele>667.2922363</ele>
        <time>2012-12-23T09:31:17Z</time>
      </trkpt>
      <trkpt lat="44.34094" lon="2.69898">
        <ele>667.2922363</ele>
        <time>2012-12-23T09:31:23Z</time>
      </trkpt>
      <trkpt lat="44.34092" lon="2.699">
        <ele>666.8115234</ele>
        <time>2012-12-23T09:31:24Z</time>
      </trkpt>
      <trkpt lat="44.34083" lon="2.69907">
        <ele>664.4082031</ele>
        <time>2012-12-23T09:31:29Z</time>
      </trkpt>
      <trkpt lat="44.34072" lon="2.69912">
        <ele>662.4855957</ele>
        <time>2012-12-23T09:31:35Z</time>
      </trkpt>
      <trkpt lat="44.34063" lon="2.69905">
        <ele>662.4855957</ele>
        <time>2012-12-23T09:31:40Z</time>
      </trkpt>
      <trkpt lat="44.34058" lon="2.69889">
        <ele>664.888916</ele>
        <time>2012-12-23T09:31:46Z</time>
      </trkpt>
      <trkpt lat="44.34064" lon="2.69875">
        <ele>673.5410156</ele>
        <time>2012-12-23T09:31:51Z</time>
      </trkpt>
      <trkpt lat="44.34068" lon="2.69868">
        <ele>674.0214844</ele>
        <time>2012-12-23T09:31:54Z</time>
      </trkpt>
      <trkpt lat="44.34076" lon="2.69853">
        <ele>676.4248047</ele>
        <time>2012-12-23T09:32:00Z</time>
      </trkpt>
      <trkpt lat="44.34083" lon="2.69837">
        <ele>678.828125</ele>
        <time>2012-12-23T09:32:06Z</time>
      </trkpt>
      <trkpt lat="44.34088" lon="2.69821">
        <ele>680.2700195</ele>
        <time>2012-12-23T09:32:12Z</time>
      </trkpt>
      <trkpt lat="44.34091" lon="2.69806">
        <ele>682.6733398</ele>
        <time>2012-12-23T09:32:17Z</time>
      </trkpt>
      <trkpt lat="44.34092" lon="2.69793">
        <ele>684.1154785</ele>
        <time>2012-12-23T09:32:21Z</time>
      </trkpt>
      <trkpt lat="44.34095" lon="2.69786">
        <ele>685.0769043</ele>
        <time>2012-12-23T09:32:24Z</time>
      </trkpt>
      <trkpt lat="44.34097" lon="2.6977">
        <ele>685.0769043</ele>
        <time>2012-12-23T09:32:29Z</time>
      </trkpt>
      <trkpt lat="44.34101" lon="2.69759">
        <ele>686.9992676</ele>
        <time>2012-12-23T09:32:34Z</time>
      </trkpt>
      <trkpt lat="44.34109" lon="2.69745">
        <ele>686.0380859</ele>
        <time>2012-12-23T09:32:41Z</time>
      </trkpt>
      <trkpt lat="44.34111" lon="2.6974">
        <ele>685.557373</ele>
        <time>2012-12-23T09:32:43Z</time>
      </trkpt>
      <trkpt lat="44.34121" lon="2.69731">
        <ele>685.557373</ele>
        <time>2012-12-23T09:32:48Z</time>
      </trkpt>
      <trkpt lat="44.34132" lon="2.69716">
        <ele>684.5961914</ele>
        <time>2012-12-23T09:32:55Z</time>
      </trkpt>
      <trkpt lat="44.34141" lon="2.697">
        <ele>681.2314453</ele>
        <time>2012-12-23T09:33:02Z</time>
      </trkpt>
      <trkpt lat="44.34142" lon="2.69698">
        <ele>680.7507324</ele>
        <time>2012-12-23T09:33:03Z</time>
      </trkpt>
      <trkpt lat="44.34145" lon="2.69683">
        <ele>679.7893066</ele>
        <time>2012-12-23T09:33:08Z</time>
      </trkpt>
      <trkpt lat="44.34145" lon="2.69672">
        <ele>678.828125</ele>
        <time>2012-12-23T09:33:12Z</time>
      </trkpt>
      <trkpt lat="44.34147" lon="2.69655">
        <ele>679.7893066</ele>
        <time>2012-12-23T09:33:19Z</time>
      </trkpt>
      <trkpt lat="44.34138" lon="2.69637">
        <ele>682.6733398</ele>
        <time>2012-12-23T09:33:25Z</time>
      </trkpt>
      <trkpt lat="44.34134" lon="2.69627">
        <ele>683.1538086</ele>
        <time>2012-12-23T09:33:29Z</time>
      </trkpt>
      <trkpt lat="44.3413" lon="2.69616">
        <ele>683.1538086</ele>
        <time>2012-12-23T09:33:34Z</time>
      </trkpt>
      <trkpt lat="44.34123" lon="2.69602">
        <ele>683.1538086</ele>
        <time>2012-12-23T09:33:40Z</time>
      </trkpt>
      <trkpt lat="44.34118" lon="2.69588">
        <ele>683.6345215</ele>
        <time>2012-12-23T09:33:46Z</time>
      </trkpt>
      <trkpt lat="44.34114" lon="2.69579">
        <ele>683.6345215</ele>
        <time>2012-12-23T09:33:50Z</time>
      </trkpt>
      <trkpt lat="44.34108" lon="2.69565">
        <ele>686.0380859</ele>
        <time>2012-12-23T09:33:56Z</time>
      </trkpt>
      <trkpt lat="44.34098" lon="2.69547">
        <ele>686.5187988</ele>
        <time>2012-12-23T09:34:04Z</time>
      </trkpt>
      <trkpt lat="44.34096" lon="2.69544">
        <ele>686.9992676</ele>
        <time>2012-12-23T09:34:05Z</time>
      </trkpt>
      <trkpt lat="44.34091" lon="2.69529">
        <ele>688.9221191</ele>
        <time>2012-12-23T09:34:10Z</time>
      </trkpt>
      <trkpt lat="44.34087" lon="2.69504">
        <ele>689.8833008</ele>
        <time>2012-12-23T09:34:17Z</time>
      </trkpt>
      <trkpt lat="44.34087" lon="2.69487">
        <ele>691.3251953</ele>
        <time>2012-12-23T09:34:22Z</time>
      </trkpt>
      <trkpt lat="44.34088" lon="2.6947">
        <ele>695.651123</ele>
        <time>2012-12-23T09:34:27Z</time>
      </trkpt>
      <trkpt lat="44.34096" lon="2.69452">
        <ele>700.4580078</ele>
        <time>2012-12-23T09:34:34Z</time>
      </trkpt>
      <trkpt lat="44.34099" lon="2.69449">
        <ele>702.3803711</ele>
        <time>2012-12-23T09:34:36Z</time>
      </trkpt>
      <trkpt lat="44.34113" lon="2.69444">
        <ele>702.3803711</ele>
        <time>2012-12-23T09:34:43Z</time>
      </trkpt>
      <trkpt lat="44.34117" lon="2.69436">
        <ele>701.4191895</ele>
        <time>2012-12-23T09:34:47Z</time>
      </trkpt>
      <trkpt lat="44.34115" lon="2.69432">
        <ele>702.3803711</ele>
        <time>2012-12-23T09:34:49Z</time>
      </trkpt>
      <trkpt lat="44.34104" lon="2.69416">
        <ele>703.3417969</ele>
        <time>2012-12-23T09:34:55Z</time>
      </trkpt>
      <trkpt lat="44.34101" lon="2.69398">
        <ele>703.3417969</ele>
        <time>2012-12-23T09:35:01Z</time>
      </trkpt>
      <trkpt lat="44.34097" lon="2.69383">
        <ele>704.3032227</ele>
        <time>2012-12-23T09:35:06Z</time>
      </trkpt>
      <trkpt lat="44.34095" lon="2.69363">
        <ele>706.7062988</ele>
        <time>2012-12-23T09:35:12Z</time>
      </trkpt>
      <trkpt lat="44.34095" lon="2.69347">
        <ele>709.590332</ele>
        <time>2012-12-23T09:35:17Z</time>
      </trkpt>
      <trkpt lat="44.34094" lon="2.69333">
        <ele>710.0708008</ele>
        <time>2012-12-23T09:35:21Z</time>
      </trkpt>
      <trkpt lat="44.34093" lon="2.69327">
        <ele>711.0322266</ele>
        <time>2012-12-23T09:35:23Z</time>
      </trkpt>
      <trkpt lat="44.34094" lon="2.69314">
        <ele>711.0322266</ele>
        <time>2012-12-23T09:35:27Z</time>
      </trkpt>
      <trkpt lat="44.34092" lon="2.69291">
        <ele>715.8388672</ele>
        <time>2012-12-23T09:35:33Z</time>
      </trkpt>
      <trkpt lat="44.34092" lon="2.69276">
        <ele>719.6843262</ele>
        <time>2012-12-23T09:35:38Z</time>
      </trkpt>
      <trkpt lat="44.3409" lon="2.6926">
        <ele>719.6843262</ele>
        <time>2012-12-23T09:35:43Z</time>
      </trkpt>
      <trkpt lat="44.34091" lon="2.69244">
        <ele>719.6843262</ele>
        <time>2012-12-23T09:35:48Z</time>
      </trkpt>
      <trkpt lat="44.34089" lon="2.69225">
        <ele>718.2421875</ele>
        <time>2012-12-23T09:35:54Z</time>
      </trkpt>
      <trkpt lat="44.34091" lon="2.6921">
        <ele>718.2421875</ele>
        <time>2012-12-23T09:36:00Z</time>
      </trkpt>
      <trkpt lat="44.34088" lon="2.69199">
        <ele>715.8388672</ele>
        <time>2012-12-23T09:36:05Z</time>
      </trkpt>
      <trkpt lat="44.34083" lon="2.6918">
        <ele>716.800293</ele>
        <time>2012-12-23T09:36:11Z</time>
      </trkpt>
      <trkpt lat="44.34082" lon="2.69174">
        <ele>716.800293</ele>
        <time>2012-12-23T09:36:13Z</time>
      </trkpt>
      <trkpt lat="44.3408" lon="2.69169">
        <ele>716.800293</ele>
        <time>2012-12-23T09:36:16Z</time>
      </trkpt>
      <trkpt lat="44.34076" lon="2.69172">
        <ele>718.2421875</ele>
        <time>2012-12-23T09:36:21Z</time>
      </trkpt>
      <trkpt lat="44.34078" lon="2.69187">
        <ele>720.1647949</ele>
        <time>2012-12-23T09:36:27Z</time>
      </trkpt>
      <trkpt lat="44.3408" lon="2.692">
        <ele>720.1647949</ele>
        <time>2012-12-23T09:36:32Z</time>
      </trkpt>
      <trkpt lat="44.34081" lon="2.69203">
        <ele>720.1647949</ele>
        <time>2012-12-23T09:36:33Z</time>
      </trkpt>
      <trkpt lat="44.3408" lon="2.69214">
        <ele>720.1647949</ele>
        <time>2012-12-23T09:36:37Z</time>
      </trkpt>
      <trkpt lat="44.3408" lon="2.69228">
        <ele>721.6066895</ele>
        <time>2012-12-23T09:36:42Z</time>
      </trkpt>
      <trkpt lat="44.34078" lon="2.69242">
        <ele>721.1262207</ele>
        <time>2012-12-23T09:36:48Z</time>
      </trkpt>
      <trkpt lat="44.34074" lon="2.69253">
        <ele>719.6843262</ele>
        <time>2012-12-23T09:36:53Z</time>
      </trkpt>
      <trkpt lat="44.34066" lon="2.69268">
        <ele>717.7614746</ele>
        <time>2012-12-23T09:37:00Z</time>
      </trkpt>
      <trkpt lat="44.3406" lon="2.69278">
        <ele>715.8388672</ele>
        <time>2012-12-23T09:37:06Z</time>
      </trkpt>
      <trkpt lat="44.34053" lon="2.69289">
        <ele>714.8774414</ele>
        <time>2012-12-23T09:37:12Z</time>
      </trkpt>
      <trkpt lat="44.34048" lon="2.69299">
        <ele>714.8774414</ele>
        <time>2012-12-23T09:37:17Z</time>
      </trkpt>
      <trkpt lat="44.34045" lon="2.69303">
        <ele>714.3967285</ele>
        <time>2012-12-23T09:37:19Z</time>
      </trkpt>
      <trkpt lat="44.34035" lon="2.69316">
        <ele>714.3967285</ele>
        <time>2012-12-23T09:37:27Z</time>
      </trkpt>
      <trkpt lat="44.34028" lon="2.69324">
        <ele>714.3967285</ele>
        <time>2012-12-23T09:37:32Z</time>
      </trkpt>
      <trkpt lat="44.34023" lon="2.69333">
        <ele>714.3967285</ele>
        <time>2012-12-23T09:37:36Z</time>
      </trkpt>
      <trkpt lat="44.34019" lon="2.69338">
        <ele>714.3967285</ele>
        <time>2012-12-23T09:37:39Z</time>
      </trkpt>
      <trkpt lat="44.34013" lon="2.69343">
        <ele>714.3967285</ele>
        <time>2012-12-23T09:37:43Z</time>
      </trkpt>
      <trkpt lat="44.34006" lon="2.69351">
        <ele>715.8388672</ele>
        <time>2012-12-23T09:37:48Z</time>
      </trkpt>
      <trkpt lat="44.34001" lon="2.69355">
        <ele>717.2810059</ele>
        <time>2012-12-23T09:37:51Z</time>
      </trkpt>
      <trkpt lat="44.33999" lon="2.69357">
        <ele>718.7229004</ele>
        <time>2012-12-23T09:37:53Z</time>
      </trkpt>
      <trkpt lat="44.3399" lon="2.69367">
        <ele>723.0488281</ele>
        <time>2012-12-23T09:37:58Z</time>
      </trkpt>
      <trkpt lat="44.33983" lon="2.69367">
        <ele>726.894043</ele>
        <time>2012-12-23T09:38:02Z</time>
      </trkpt>
      <trkpt lat="44.3398" lon="2.69367">
        <ele>727.3747559</ele>
        <time>2012-12-23T09:38:03Z</time>
      </trkpt>
      <trkpt lat="44.33974" lon="2.69371">
        <ele>735.0654297</ele>
        <time>2012-12-23T09:38:07Z</time>
      </trkpt>
      <trkpt lat="44.33966" lon="2.69375">
        <ele>739.8718262</ele>
        <time>2012-12-23T09:38:12Z</time>
      </trkpt>
      <trkpt lat="44.33953" lon="2.69377">
        <ele>742.2751465</ele>
        <time>2012-12-23T09:38:18Z</time>
      </trkpt>
      <trkpt lat="44.33944" lon="2.69378">
        <ele>744.1977539</ele>
        <time>2012-12-23T09:38:23Z</time>
      </trkpt>
      <trkpt lat="44.33933" lon="2.69378">
        <ele>745.6396484</ele>
        <time>2012-12-23T09:38:28Z</time>
      </trkpt>
      <trkpt lat="44.33927" lon="2.69381">
        <ele>745.6396484</ele>
        <time>2012-12-23T09:38:31Z</time>
      </trkpt>
      <trkpt lat="44.33917" lon="2.69386">
        <ele>745.6396484</ele>
        <time>2012-12-23T09:38:37Z</time>
      </trkpt>
      <trkpt lat="44.33911" lon="2.69395">
        <ele>748.5236816</ele>
        <time>2012-12-23T09:38:41Z</time>
      </trkpt>
      <trkpt lat="44.33909" lon="2.69411">
        <ele>754.291748</ele>
        <time>2012-12-23T09:38:46Z</time>
      </trkpt>
      <trkpt lat="44.33915" lon="2.69427">
        <ele>758.1369629</ele>
        <time>2012-12-23T09:38:52Z</time>
      </trkpt>
      <trkpt lat="44.33917" lon="2.69432">
        <ele>759.0981445</ele>
        <time>2012-12-23T09:38:54Z</time>
      </trkpt>
      <trkpt lat="44.3392" lon="2.69445">
        <ele>759.0981445</ele>
        <time>2012-12-23T09:38:59Z</time>
      </trkpt>
      <trkpt lat="44.33924" lon="2.69461">
        <ele>761.5014648</ele>
        <time>2012-12-23T09:39:06Z</time>
      </trkpt>
      <trkpt lat="44.33924" lon="2.69466">
        <ele>761.9821777</ele>
        <time>2012-12-23T09:39:08Z</time>
      </trkpt>
      <trkpt lat="44.33925" lon="2.69471">
        <ele>762.4626465</ele>
        <time>2012-12-23T09:39:10Z</time>
      </trkpt>
      <trkpt lat="44.33926" lon="2.69481">
        <ele>762.9433594</ele>
        <time>2012-12-23T09:39:14Z</time>
      </trkpt>
      <trkpt lat="44.33929" lon="2.69495">
        <ele>764.8662109</ele>
        <time>2012-12-23T09:39:20Z</time>
      </trkpt>
      <trkpt lat="44.33928" lon="2.69508">
        <ele>765.8276367</ele>
        <time>2012-12-23T09:39:25Z</time>
      </trkpt>
      <trkpt lat="44.33929" lon="2.69518">
        <ele>767.2695313</ele>
        <time>2012-12-23T09:39:29Z</time>
      </trkpt>
      <trkpt lat="44.33926" lon="2.69539">
        <ele>769.1921387</ele>
        <time>2012-12-23T09:39:36Z</time>
      </trkpt>
      <trkpt lat="44.33921" lon="2.69555">
        <ele>773.0373535</ele>
        <time>2012-12-23T09:39:42Z</time>
      </trkpt>
      <trkpt lat="44.33916" lon="2.69565">
        <ele>773.5180664</ele>
        <time>2012-12-23T09:39:47Z</time>
      </trkpt>
      <trkpt lat="44.3391" lon="2.69578">
        <ele>773.9985352</ele>
        <time>2012-12-23T09:39:52Z</time>
      </trkpt>
      <trkpt lat="44.33909" lon="2.69581">
        <ele>773.9985352</ele>
        <time>2012-12-23T09:39:53Z</time>
      </trkpt>
      <trkpt lat="44.33899" lon="2.69593">
        <ele>771.1147461</ele>
        <time>2012-12-23T09:40:01Z</time>
      </trkpt>
      <trkpt lat="44.33891" lon="2.69597">
        <ele>770.1533203</ele>
        <time>2012-12-23T09:40:06Z</time>
      </trkpt>
      <trkpt lat="44.33889" lon="2.69597">
        <ele>770.1533203</ele>
        <time>2012-12-23T09:40:07Z</time>
      </trkpt>
      <trkpt lat="44.33877" lon="2.69595">
        <ele>768.7114258</ele>
        <time>2012-12-23T09:40:13Z</time>
      </trkpt>
      <trkpt lat="44.3387" lon="2.69595">
        <ele>768.7114258</ele>
        <time>2012-12-23T09:40:18Z</time>
      </trkpt>
      <trkpt lat="44.33868" lon="2.69595">
        <ele>768.7114258</ele>
        <time>2012-12-23T09:40:19Z</time>
      </trkpt>
      <trkpt lat="44.33864" lon="2.69595">
        <ele>768.7114258</ele>
        <time>2012-12-23T09:40:21Z</time>
      </trkpt>
      <trkpt lat="44.33856" lon="2.69593">
        <ele>769.1921387</ele>
        <time>2012-12-23T09:40:25Z</time>
      </trkpt>
      <trkpt lat="44.33845" lon="2.69591">
        <ele>768.2307129</ele>
        <time>2012-12-23T09:40:31Z</time>
      </trkpt>
      <trkpt lat="44.33837" lon="2.69586">
        <ele>768.7114258</ele>
        <time>2012-12-23T09:40:36Z</time>
      </trkpt>
      <trkpt lat="44.33833" lon="2.69586">
        <ele>770.1533203</ele>
        <time>2012-12-23T09:40:38Z</time>
      </trkpt>
      <trkpt lat="44.33826" lon="2.69578">
        <ele>774.9599609</ele>
        <time>2012-12-23T09:40:45Z</time>
      </trkpt>
      <trkpt lat="44.33817" lon="2.69567">
        <ele>775.4404297</ele>
        <time>2012-12-23T09:40:51Z</time>
      </trkpt>
      <trkpt lat="44.33813" lon="2.69564">
        <ele>775.4404297</ele>
        <time>2012-12-23T09:40:54Z</time>
      </trkpt>
      <trkpt lat="44.33802" lon="2.69561">
        <ele>778.3244629</ele>
        <time>2012-12-23T09:40:59Z</time>
      </trkpt>
      <trkpt lat="44.33788" lon="2.6956">
        <ele>780.7280273</ele>
        <time>2012-12-23T09:41:05Z</time>
      </trkpt>
      <trkpt lat="44.33776" lon="2.69558">
        <ele>781.2087402</ele>
        <time>2012-12-23T09:41:10Z</time>
      </trkpt>
      <trkpt lat="44.33774" lon="2.69559">
        <ele>780.7280273</ele>
        <time>2012-12-23T09:41:11Z</time>
      </trkpt>
      <trkpt lat="44.3376" lon="2.69555">
        <ele>782.1699219</ele>
        <time>2012-12-23T09:41:17Z</time>
      </trkpt>
      <trkpt lat="44.33749" lon="2.69556">
        <ele>783.6118164</ele>
        <time>2012-12-23T09:41:23Z</time>
      </trkpt>
      <trkpt lat="44.33739" lon="2.69558">
        <ele>783.6118164</ele>
        <time>2012-12-23T09:41:28Z</time>
      </trkpt>
      <trkpt lat="44.3373" lon="2.6956">
        <ele>782.6506348</ele>
        <time>2012-12-23T09:41:33Z</time>
      </trkpt>
      <trkpt lat="44.3372" lon="2.69563">
        <ele>782.1699219</ele>
        <time>2012-12-23T09:41:38Z</time>
      </trkpt>
      <trkpt lat="44.33712" lon="2.69566">
        <ele>782.6506348</ele>
        <time>2012-12-23T09:41:42Z</time>
      </trkpt>
      <trkpt lat="44.33705" lon="2.69568">
        <ele>783.6118164</ele>
        <time>2012-12-23T09:41:46Z</time>
      </trkpt>
      <trkpt lat="44.33695" lon="2.69574">
        <ele>784.5732422</ele>
        <time>2012-12-23T09:41:52Z</time>
      </trkpt>
      <trkpt lat="44.33689" lon="2.69577">
        <ele>785.0539551</ele>
        <time>2012-12-23T09:41:55Z</time>
      </trkpt>
      <trkpt lat="44.33678" lon="2.69576">
        <ele>786.9763184</ele>
        <time>2012-12-23T09:42:00Z</time>
      </trkpt>
      <trkpt lat="44.33672" lon="2.69576">
        <ele>788.8991699</ele>
        <time>2012-12-23T09:42:04Z</time>
      </trkpt>
      <trkpt lat="44.33663" lon="2.69574">
        <ele>791.3022461</ele>
        <time>2012-12-23T09:42:09Z</time>
      </trkpt>
      <trkpt lat="44.33652" lon="2.69566">
        <ele>792.7443848</ele>
        <time>2012-12-23T09:42:15Z</time>
      </trkpt>
      <trkpt lat="44.33645" lon="2.69564">
        <ele>794.1862793</ele>
        <time>2012-12-23T09:42:18Z</time>
      </trkpt>
      <trkpt lat="44.33633" lon="2.69562">
        <ele>797.0703125</ele>
        <time>2012-12-23T09:42:24Z</time>
      </trkpt>
      <trkpt lat="44.33626" lon="2.69562">
        <ele>796.5898438</ele>
        <time>2012-12-23T09:42:28Z</time>
      </trkpt>
      <trkpt lat="44.33616" lon="2.69562">
        <ele>796.5898438</ele>
        <time>2012-12-23T09:42:33Z</time>
      </trkpt>
      <trkpt lat="44.33605" lon="2.69566">
        <ele>799.9543457</ele>
        <time>2012-12-23T09:42:40Z</time>
      </trkpt>
      <trkpt lat="44.33599" lon="2.69567">
        <ele>799.4736328</ele>
        <time>2012-12-23T09:42:44Z</time>
      </trkpt>
      <trkpt lat="44.33591" lon="2.6957">
        <ele>799.4736328</ele>
        <time>2012-12-23T09:42:50Z</time>
      </trkpt>
      <trkpt lat="44.33583" lon="2.69574">
        <ele>802.3574219</ele>
        <time>2012-12-23T09:42:56Z</time>
      </trkpt>
      <trkpt lat="44.33574" lon="2.69576">
        <ele>803.3188477</ele>
        <time>2012-12-23T09:43:03Z</time>
      </trkpt>
      <trkpt lat="44.33565" lon="2.69579">
        <ele>803.7995605</ele>
        <time>2012-12-23T09:43:09Z</time>
      </trkpt>
      <trkpt lat="44.33555" lon="2.69577">
        <ele>805.2414551</ele>
        <time>2012-12-23T09:43:16Z</time>
      </trkpt>
      <trkpt lat="44.33542" lon="2.6957">
        <ele>807.1640625</ele>
        <time>2012-12-23T09:43:23Z</time>
      </trkpt>
      <trkpt lat="44.33534" lon="2.69564">
        <ele>807.6447754</ele>
        <time>2012-12-23T09:43:27Z</time>
      </trkpt>
      <trkpt lat="44.33533" lon="2.69562">
        <ele>807.6447754</ele>
        <time>2012-12-23T09:43:28Z</time>
      </trkpt>
      <trkpt lat="44.33524" lon="2.69553">
        <ele>808.605957</ele>
        <time>2012-12-23T09:43:34Z</time>
      </trkpt>
      <trkpt lat="44.33511" lon="2.69543">
        <ele>807.6447754</ele>
        <time>2012-12-23T09:43:40Z</time>
      </trkpt>
      <trkpt lat="44.335" lon="2.69534">
        <ele>807.6447754</ele>
        <time>2012-12-23T09:43:45Z</time>
      </trkpt>
      <trkpt lat="44.33489" lon="2.69521">
        <ele>809.5673828</ele>
        <time>2012-12-23T09:43:51Z</time>
      </trkpt>
      <trkpt lat="44.33488" lon="2.69518">
        <ele>810.0478516</ele>
        <time>2012-12-23T09:43:52Z</time>
      </trkpt>
      <trkpt lat="44.3349" lon="2.69505">
        <ele>811.9707031</ele>
        <time>2012-12-23T09:43:57Z</time>
      </trkpt>
      <trkpt lat="44.33502" lon="2.69491">
        <ele>811.0092773</ele>
        <time>2012-12-23T09:44:04Z</time>
      </trkpt>
      <trkpt lat="44.33507" lon="2.6948">
        <ele>811.4899902</ele>
        <time>2012-12-23T09:44:09Z</time>
      </trkpt>
      <trkpt lat="44.3351" lon="2.69465">
        <ele>811.9707031</ele>
        <time>2012-12-23T09:44:15Z</time>
      </trkpt>
      <trkpt lat="44.33512" lon="2.69447">
        <ele>812.9321289</ele>
        <time>2012-12-23T09:44:21Z</time>
      </trkpt>
      <trkpt lat="44.33512" lon="2.69432">
        <ele>812.9321289</ele>
        <time>2012-12-23T09:44:26Z</time>
      </trkpt>
      <trkpt lat="44.33513" lon="2.69412">
        <ele>813.8933105</ele>
        <time>2012-12-23T09:44:33Z</time>
      </trkpt>
      <trkpt lat="44.33512" lon="2.69393">
        <ele>816.2966309</ele>
        <time>2012-12-23T09:44:39Z</time>
      </trkpt>
      <trkpt lat="44.3351" lon="2.6937">
        <ele>819.1806641</ele>
        <time>2012-12-23T09:44:46Z</time>
      </trkpt>
      <trkpt lat="44.33509" lon="2.69351">
        <ele>821.1032715</ele>
        <time>2012-12-23T09:44:52Z</time>
      </trkpt>
      <trkpt lat="44.33508" lon="2.69332">
        <ele>822.0644531</ele>
        <time>2012-12-23T09:44:58Z</time>
      </trkpt>
      <trkpt lat="44.33506" lon="2.69313">
        <ele>822.545166</ele>
        <time>2012-12-23T09:45:04Z</time>
      </trkpt>
      <trkpt lat="44.33505" lon="2.69294">
        <ele>822.545166</ele>
        <time>2012-12-23T09:45:10Z</time>
      </trkpt>
      <trkpt lat="44.33504" lon="2.69274">
        <ele>823.0258789</ele>
        <time>2012-12-23T09:45:16Z</time>
      </trkpt>
      <trkpt lat="44.33502" lon="2.69255">
        <ele>823.9870605</ele>
        <time>2012-12-23T09:45:22Z</time>
      </trkpt>
      <trkpt lat="44.33504" lon="2.69239">
        <ele>825.4289551</ele>
        <time>2012-12-23T09:45:27Z</time>
      </trkpt>
      <trkpt lat="44.33503" lon="2.69221">
        <ele>826.3903809</ele>
        <time>2012-12-23T09:45:32Z</time>
      </trkpt>
      <trkpt lat="44.33502" lon="2.69215">
        <ele>827.3518066</ele>
        <time>2012-12-23T09:45:34Z</time>
      </trkpt>
      <trkpt lat="44.33501" lon="2.69204">
        <ele>828.3132324</ele>
        <time>2012-12-23T09:45:37Z</time>
      </trkpt>
      <trkpt lat="44.33498" lon="2.6919">
        <ele>828.7939453</ele>
        <time>2012-12-23T09:45:41Z</time>
      </trkpt>
      <trkpt lat="44.33493" lon="2.69168">
        <ele>827.3518066</ele>
        <time>2012-12-23T09:45:47Z</time>
      </trkpt>
      <trkpt lat="44.33491" lon="2.69148">
        <ele>826.8710938</ele>
        <time>2012-12-23T09:45:53Z</time>
      </trkpt>
      <trkpt lat="44.33487" lon="2.69133">
        <ele>824.9484863</ele>
        <time>2012-12-23T09:45:57Z</time>
      </trkpt>
      <trkpt lat="44.33486" lon="2.6913">
        <ele>824.9484863</ele>
        <time>2012-12-23T09:45:58Z</time>
      </trkpt>
      <trkpt lat="44.33483" lon="2.69111">
        <ele>823.9870605</ele>
        <time>2012-12-23T09:46:04Z</time>
      </trkpt>
      <trkpt lat="44.33477" lon="2.69089">
        <ele>823.9870605</ele>
        <time>2012-12-23T09:46:10Z</time>
      </trkpt>
      <trkpt lat="44.33473" lon="2.69072">
        <ele>823.0258789</ele>
        <time>2012-12-23T09:46:15Z</time>
      </trkpt>
      <trkpt lat="44.33469" lon="2.69059">
        <ele>821.5837402</ele>
        <time>2012-12-23T09:46:19Z</time>
      </trkpt>
      <trkpt lat="44.33465" lon="2.6904">
        <ele>821.5837402</ele>
        <time>2012-12-23T09:46:25Z</time>
      </trkpt>
      <trkpt lat="44.33459" lon="2.69022">
        <ele>821.1032715</ele>
        <time>2012-12-23T09:46:30Z</time>
      </trkpt>
      <trkpt lat="44.33453" lon="2.69005">
        <ele>822.0644531</ele>
        <time>2012-12-23T09:46:35Z</time>
      </trkpt>
      <trkpt lat="44.33448" lon="2.68992">
        <ele>823.0258789</ele>
        <time>2012-12-23T09:46:39Z</time>
      </trkpt>
      <trkpt lat="44.33445" lon="2.68984">
        <ele>823.9870605</ele>
        <time>2012-12-23T09:46:41Z</time>
      </trkpt>
      <trkpt lat="44.33439" lon="2.68973">
        <ele>823.9870605</ele>
        <time>2012-12-23T09:46:45Z</time>
      </trkpt>
      <trkpt lat="44.33433" lon="2.68959">
        <ele>822.545166</ele>
        <time>2012-12-23T09:46:54Z</time>
      </trkpt>
      <trkpt lat="44.33427" lon="2.68949">
        <ele>821.5837402</ele>
        <time>2012-12-23T09:47:01Z</time>
      </trkpt>
      <trkpt lat="44.33421" lon="2.68935">
        <ele>821.1032715</ele>
        <time>2012-12-23T09:47:11Z</time>
      </trkpt>
      <trkpt lat="44.33415" lon="2.68923">
        <ele>820.6225586</ele>
        <time>2012-12-23T09:47:20Z</time>
      </trkpt>
      <trkpt lat="44.33413" lon="2.6892">
        <ele>820.6225586</ele>
        <time>2012-12-23T09:47:22Z</time>
      </trkpt>
      <trkpt lat="44.33408" lon="2.68911">
        <ele>821.1032715</ele>
        <time>2012-12-23T09:47:28Z</time>
      </trkpt>
      <trkpt lat="44.33403" lon="2.68899">
        <ele>821.1032715</ele>
        <time>2012-12-23T09:47:35Z</time>
      </trkpt>
      <trkpt lat="44.33395" lon="2.6888">
        <ele>820.1418457</ele>
        <time>2012-12-23T09:47:41Z</time>
      </trkpt>
      <trkpt lat="44.33391" lon="2.68871">
        <ele>820.1418457</ele>
        <time>2012-12-23T09:47:44Z</time>
      </trkpt>
      <trkpt lat="44.33383" lon="2.68857">
        <ele>820.6225586</ele>
        <time>2012-12-23T09:47:49Z</time>
      </trkpt>
      <trkpt lat="44.33378" lon="2.68843">
        <ele>820.6225586</ele>
        <time>2012-12-23T09:47:53Z</time>
      </trkpt>
      <trkpt lat="44.33371" lon="2.68823">
        <ele>820.6225586</ele>
        <time>2012-12-23T09:47:59Z</time>
      </trkpt>
      <trkpt lat="44.33364" lon="2.68807">
        <ele>820.1418457</ele>
        <time>2012-12-23T09:48:04Z</time>
      </trkpt>
      <trkpt lat="44.33358" lon="2.6879">
        <ele>819.661377</ele>
        <time>2012-12-23T09:48:09Z</time>
      </trkpt>
      <trkpt lat="44.33353" lon="2.68776">
        <ele>820.6225586</ele>
        <time>2012-12-23T09:48:13Z</time>
      </trkpt>
      <trkpt lat="44.33347" lon="2.68763">
        <ele>820.1418457</ele>
        <time>2012-12-23T09:48:17Z</time>
      </trkpt>
      <trkpt lat="44.3334" lon="2.68746">
        <ele>820.1418457</ele>
        <time>2012-12-23T09:48:22Z</time>
      </trkpt>
      <trkpt lat="44.33327" lon="2.68724">
        <ele>820.6225586</ele>
        <time>2012-12-23T09:48:30Z</time>
      </trkpt>
      <trkpt lat="44.33318" lon="2.68705">
        <ele>820.1418457</ele>
        <time>2012-12-23T09:48:36Z</time>
      </trkpt>
      <trkpt lat="44.33309" lon="2.68686">
        <ele>820.1418457</ele>
        <time>2012-12-23T09:48:42Z</time>
      </trkpt>
      <trkpt lat="44.33302" lon="2.6867">
        <ele>819.1806641</ele>
        <time>2012-12-23T09:48:47Z</time>
      </trkpt>
      <trkpt lat="44.33292" lon="2.68652">
        <ele>818.6999512</ele>
        <time>2012-12-23T09:48:53Z</time>
      </trkpt>
      <trkpt lat="44.33281" lon="2.68639">
        <ele>818.6999512</ele>
        <time>2012-12-23T09:48:58Z</time>
      </trkpt>
      <trkpt lat="44.33271" lon="2.68625">
        <ele>817.7385254</ele>
        <time>2012-12-23T09:49:03Z</time>
      </trkpt>
      <trkpt lat="44.33258" lon="2.68605">
        <ele>816.7773438</ele>
        <time>2012-12-23T09:49:10Z</time>
      </trkpt>
      <trkpt lat="44.33247" lon="2.68593">
        <ele>816.2966309</ele>
        <time>2012-12-23T09:49:15Z</time>
      </trkpt>
      <trkpt lat="44.33234" lon="2.68584">
        <ele>814.8547363</ele>
        <time>2012-12-23T09:49:20Z</time>
      </trkpt>
      <trkpt lat="44.33218" lon="2.68567">
        <ele>812.451416</ele>
        <time>2012-12-23T09:49:27Z</time>
      </trkpt>
      <trkpt lat="44.33208" lon="2.68554">
        <ele>811.9707031</ele>
        <time>2012-12-23T09:49:32Z</time>
      </trkpt>
      <trkpt lat="44.33195" lon="2.68539">
        <ele>811.9707031</ele>
        <time>2012-12-23T09:49:38Z</time>
      </trkpt>
      <trkpt lat="44.33185" lon="2.68526">
        <ele>811.4899902</ele>
        <time>2012-12-23T09:49:43Z</time>
      </trkpt>
      <trkpt lat="44.33174" lon="2.68513">
        <ele>810.5285645</ele>
        <time>2012-12-23T09:49:48Z</time>
      </trkpt>
      <trkpt lat="44.33162" lon="2.68497">
        <ele>809.0866699</ele>
        <time>2012-12-23T09:49:54Z</time>
      </trkpt>
      <trkpt lat="44.33149" lon="2.68483">
        <ele>809.5673828</ele>
        <time>2012-12-23T09:50:00Z</time>
      </trkpt>
      <trkpt lat="44.33137" lon="2.68471">
        <ele>809.5673828</ele>
        <time>2012-12-23T09:50:05Z</time>
      </trkpt>
      <trkpt lat="44.33122" lon="2.68454">
        <ele>808.1254883</ele>
        <time>2012-12-23T09:50:12Z</time>
      </trkpt>
      <trkpt lat="44.33109" lon="2.68439">
        <ele>806.6833496</ele>
        <time>2012-12-23T09:50:18Z</time>
      </trkpt>
      <trkpt lat="44.33096" lon="2.68424">
        <ele>806.6833496</ele>
        <time>2012-12-23T09:50:24Z</time>
      </trkpt>
      <trkpt lat="44.33085" lon="2.68408">
        <ele>805.722168</ele>
        <time>2012-12-23T09:50:30Z</time>
      </trkpt>
      <trkpt lat="44.33076" lon="2.68392">
        <ele>805.722168</ele>
        <time>2012-12-23T09:50:35Z</time>
      </trkpt>
      <trkpt lat="44.33067" lon="2.68372">
        <ele>805.2414551</ele>
        <time>2012-12-23T09:50:41Z</time>
      </trkpt>
      <trkpt lat="44.33061" lon="2.6836">
        <ele>804.2802734</ele>
        <time>2012-12-23T09:50:45Z</time>
      </trkpt>
      <trkpt lat="44.33052" lon="2.68346">
        <ele>802.3574219</ele>
        <time>2012-12-23T09:50:50Z</time>
      </trkpt>
      <trkpt lat="44.33048" lon="2.68327">
        <ele>801.3962402</ele>
        <time>2012-12-23T09:50:55Z</time>
      </trkpt>
      <trkpt lat="44.33047" lon="2.68311">
        <ele>800.9155273</ele>
        <time>2012-12-23T09:50:59Z</time>
      </trkpt>
      <trkpt lat="44.33046" lon="2.68294">
        <ele>799.9543457</ele>
        <time>2012-12-23T09:51:03Z</time>
      </trkpt>
      <trkpt lat="44.33049" lon="2.68272">
        <ele>798.9929199</ele>
        <time>2012-12-23T09:51:09Z</time>
      </trkpt>
      <trkpt lat="44.33057" lon="2.68253">
        <ele>798.9929199</ele>
        <time>2012-12-23T09:51:15Z</time>
      </trkpt>
      <trkpt lat="44.33066" lon="2.68244">
        <ele>798.512207</ele>
        <time>2012-12-23T09:51:19Z</time>
      </trkpt>
      <trkpt lat="44.33079" lon="2.68237">
        <ele>797.5510254</ele>
        <time>2012-12-23T09:51:24Z</time>
      </trkpt>
      <trkpt lat="44.33085" lon="2.68234">
        <ele>797.0703125</ele>
        <time>2012-12-23T09:51:26Z</time>
      </trkpt>
      <trkpt lat="44.33091" lon="2.68219">
        <ele>797.0703125</ele>
        <time>2012-12-23T09:51:31Z</time>
      </trkpt>
      <trkpt lat="44.33087" lon="2.68197">
        <ele>796.5898438</ele>
        <time>2012-12-23T09:51:37Z</time>
      </trkpt>
      <trkpt lat="44.33086" lon="2.68186">
        <ele>797.0703125</ele>
        <time>2012-12-23T09:51:40Z</time>
      </trkpt>
      <trkpt lat="44.33082" lon="2.68173">
        <ele>798.0317383</ele>
        <time>2012-12-23T09:51:44Z</time>
      </trkpt>
      <trkpt lat="44.33076" lon="2.68153">
        <ele>798.0317383</ele>
        <time>2012-12-23T09:51:50Z</time>
      </trkpt>
      <trkpt lat="44.33075" lon="2.6815">
        <ele>798.0317383</ele>
        <time>2012-12-23T09:51:51Z</time>
      </trkpt>
      <trkpt lat="44.3307" lon="2.68137">
        <ele>798.0317383</ele>
        <time>2012-12-23T09:51:55Z</time>
      </trkpt>
      <trkpt lat="44.33062" lon="2.68118">
        <ele>798.9929199</ele>
        <time>2012-12-23T09:52:01Z</time>
      </trkpt>
      <trkpt lat="44.33056" lon="2.68099">
        <ele>800.9155273</ele>
        <time>2012-12-23T09:52:07Z</time>
      </trkpt>
      <trkpt lat="44.33051" lon="2.68084">
        <ele>800.9155273</ele>
        <time>2012-12-23T09:52:12Z</time>
      </trkpt>
      <trkpt lat="44.33047" lon="2.68069">
        <ele>799.4736328</ele>
        <time>2012-12-23T09:52:17Z</time>
      </trkpt>
      <trkpt lat="44.33046" lon="2.68067">
        <ele>799.4736328</ele>
        <time>2012-12-23T09:52:18Z</time>
      </trkpt>
      <trkpt lat="44.33039" lon="2.6805">
        <ele>800.4350586</ele>
        <time>2012-12-23T09:52:24Z</time>
      </trkpt>
      <trkpt lat="44.33033" lon="2.68035">
        <ele>801.8769531</ele>
        <time>2012-12-23T09:52:29Z</time>
      </trkpt>
      <trkpt lat="44.33028" lon="2.68021">
        <ele>802.3574219</ele>
        <time>2012-12-23T09:52:34Z</time>
      </trkpt>
      <trkpt lat="44.33024" lon="2.68007">
        <ele>801.3962402</ele>
        <time>2012-12-23T09:52:38Z</time>
      </trkpt>
      <trkpt lat="44.33017" lon="2.6799">
        <ele>801.3962402</ele>
        <time>2012-12-23T09:52:43Z</time>
      </trkpt>
      <trkpt lat="44.33016" lon="2.67987">
        <ele>801.3962402</ele>
        <time>2012-12-23T09:52:44Z</time>
      </trkpt>
      <trkpt lat="44.33014" lon="2.67967">
        <ele>800.4350586</ele>
        <time>2012-12-23T09:52:49Z</time>
      </trkpt>
      <trkpt lat="44.33013" lon="2.67947">
        <ele>798.9929199</ele>
        <time>2012-12-23T09:52:54Z</time>
      </trkpt>
      <trkpt lat="44.33014" lon="2.67929">
        <ele>796.1091309</ele>
        <time>2012-12-23T09:52:59Z</time>
      </trkpt>
      <trkpt lat="44.33017" lon="2.67906">
        <ele>793.2248535</ele>
        <time>2012-12-23T09:53:05Z</time>
      </trkpt>
      <trkpt lat="44.33019" lon="2.67886">
        <ele>791.782959</ele>
        <time>2012-12-23T09:53:10Z</time>
      </trkpt>
      <trkpt lat="44.33017" lon="2.67869">
        <ele>791.3022461</ele>
        <time>2012-12-23T09:53:15Z</time>
      </trkpt>
      <trkpt lat="44.33011" lon="2.67852">
        <ele>790.8215332</ele>
        <time>2012-12-23T09:53:20Z</time>
      </trkpt>
      <trkpt lat="44.33005" lon="2.67837">
        <ele>790.3410645</ele>
        <time>2012-12-23T09:53:24Z</time>
      </trkpt>
      <trkpt lat="44.33" lon="2.67819">
        <ele>789.8603516</ele>
        <time>2012-12-23T09:53:29Z</time>
      </trkpt>
      <trkpt lat="44.32995" lon="2.67802">
        <ele>789.3796387</ele>
        <time>2012-12-23T09:53:34Z</time>
      </trkpt>
      <trkpt lat="44.32995" lon="2.67779">
        <ele>789.8603516</ele>
        <time>2012-12-23T09:53:40Z</time>
      </trkpt>
      <trkpt lat="44.32996" lon="2.67768">
        <ele>790.3410645</ele>
        <time>2012-12-23T09:53:43Z</time>
      </trkpt>
      <trkpt lat="44.33006" lon="2.67747">
        <ele>790.8215332</ele>
        <time>2012-12-23T09:53:50Z</time>
      </trkpt>
      <trkpt lat="44.33014" lon="2.67741">
        <ele>791.3022461</ele>
        <time>2012-12-23T09:53:54Z</time>
      </trkpt>
      <trkpt lat="44.33026" lon="2.67732">
        <ele>791.3022461</ele>
        <time>2012-12-23T09:53:59Z</time>
      </trkpt>
      <trkpt lat="44.3303" lon="2.67729">
        <ele>790.8215332</ele>
        <time>2012-12-23T09:54:01Z</time>
      </trkpt>
      <trkpt lat="44.33037" lon="2.67721">
        <ele>790.3410645</ele>
        <time>2012-12-23T09:54:05Z</time>
      </trkpt>
      <trkpt lat="44.33046" lon="2.67707">
        <ele>787.4570313</ele>
        <time>2012-12-23T09:54:10Z</time>
      </trkpt>
      <trkpt lat="44.33049" lon="2.67695">
        <ele>784.5732422</ele>
        <time>2012-12-23T09:54:13Z</time>
      </trkpt>
      <trkpt lat="44.33054" lon="2.67674">
        <ele>779.7663574</ele>
        <time>2012-12-23T09:54:19Z</time>
      </trkpt>
      <trkpt lat="44.33061" lon="2.67659">
        <ele>777.84375</ele>
        <time>2012-12-23T09:54:23Z</time>
      </trkpt>
      <trkpt lat="44.3307" lon="2.67645">
        <ele>775.9211426</ele>
        <time>2012-12-23T09:54:28Z</time>
      </trkpt>
      <trkpt lat="44.33072" lon="2.67643">
        <ele>775.9211426</ele>
        <time>2012-12-23T09:54:29Z</time>
      </trkpt>
      <trkpt lat="44.33083" lon="2.67633">
        <ele>774.479248</ele>
        <time>2012-12-23T09:54:34Z</time>
      </trkpt>
      <trkpt lat="44.33093" lon="2.67624">
        <ele>772.5566406</ele>
        <time>2012-12-23T09:54:39Z</time>
      </trkpt>
      <trkpt lat="44.33096" lon="2.67618">
        <ele>769.6728516</ele>
        <time>2012-12-23T09:54:42Z</time>
      </trkpt>
      <trkpt lat="44.33099" lon="2.67611">
        <ele>767.2695313</ele>
        <time>2012-12-23T09:54:46Z</time>
      </trkpt>
      <trkpt lat="44.33106" lon="2.67607">
        <ele>766.3081055</ele>
        <time>2012-12-23T09:54:49Z</time>
      </trkpt>
      <trkpt lat="44.33119" lon="2.67597">
        <ele>762.9433594</ele>
        <time>2012-12-23T09:54:55Z</time>
      </trkpt>
      <trkpt lat="44.33128" lon="2.67589">
        <ele>756.6948242</ele>
        <time>2012-12-23T09:55:00Z</time>
      </trkpt>
      <trkpt lat="44.3314" lon="2.67579">
        <ele>752.8496094</ele>
        <time>2012-12-23T09:55:06Z</time>
      </trkpt>
      <trkpt lat="44.33142" lon="2.67578">
        <ele>751.8884277</ele>
        <time>2012-12-23T09:55:07Z</time>
      </trkpt>
      <trkpt lat="44.33152" lon="2.67577">
        <ele>748.5236816</ele>
        <time>2012-12-23T09:55:11Z</time>
      </trkpt>
      <trkpt lat="44.33171" lon="2.67572">
        <ele>749.9658203</ele>
        <time>2012-12-23T09:55:16Z</time>
      </trkpt>
      <trkpt lat="44.33185" lon="2.6756">
        <ele>749.4851074</ele>
        <time>2012-12-23T09:55:21Z</time>
      </trkpt>
      <trkpt lat="44.33196" lon="2.67542">
        <ele>747.081543</ele>
        <time>2012-12-23T09:55:27Z</time>
      </trkpt>
      <trkpt lat="44.33207" lon="2.6753">
        <ele>746.1203613</ele>
        <time>2012-12-23T09:55:32Z</time>
      </trkpt>
      <trkpt lat="44.33214" lon="2.6752">
        <ele>744.1977539</ele>
        <time>2012-12-23T09:55:37Z</time>
      </trkpt>
      <trkpt lat="44.33226" lon="2.67506">
        <ele>744.6782227</ele>
        <time>2012-12-23T09:55:42Z</time>
      </trkpt>
      <trkpt lat="44.33234" lon="2.67489">
        <ele>745.6396484</ele>
        <time>2012-12-23T09:55:47Z</time>
      </trkpt>
      <trkpt lat="44.3325" lon="2.6748">
        <ele>745.6396484</ele>
        <time>2012-12-23T09:55:53Z</time>
      </trkpt>
      <trkpt lat="44.33263" lon="2.67484">
        <ele>744.6782227</ele>
        <time>2012-12-23T09:55:59Z</time>
      </trkpt>
      <trkpt lat="44.33272" lon="2.67496">
        <ele>742.7558594</ele>
        <time>2012-12-23T09:56:04Z</time>
      </trkpt>
      <trkpt lat="44.33279" lon="2.67506">
        <ele>742.2751465</ele>
        <time>2012-12-23T09:56:07Z</time>
      </trkpt>
      <trkpt lat="44.33281" lon="2.67518">
        <ele>740.3525391</ele>
        <time>2012-12-23T09:56:11Z</time>
      </trkpt>
      <trkpt lat="44.3328" lon="2.67528">
        <ele>738.4299316</ele>
        <time>2012-12-23T09:56:14Z</time>
      </trkpt>
      <trkpt lat="44.33275" lon="2.67541">
        <ele>736.0266113</ele>
        <time>2012-12-23T09:56:18Z</time>
      </trkpt>
      <trkpt lat="44.3327" lon="2.67554">
        <ele>734.1040039</ele>
        <time>2012-12-23T09:56:22Z</time>
      </trkpt>
      <trkpt lat="44.33269" lon="2.67568">
        <ele>732.6621094</ele>
        <time>2012-12-23T09:56:26Z</time>
      </trkpt>
      <trkpt lat="44.33267" lon="2.67584">
        <ele>731.2199707</ele>
        <time>2012-12-23T09:56:31Z</time>
      </trkpt>
      <trkpt lat="44.33265" lon="2.67604">
        <ele>725.9326172</ele>
        <time>2012-12-23T09:56:37Z</time>
      </trkpt>
      <trkpt lat="44.33262" lon="2.67618">
        <ele>724.0100098</ele>
        <time>2012-12-23T09:56:41Z</time>
      </trkpt>
      <trkpt lat="44.33262" lon="2.67622">
        <ele>724.0100098</ele>
        <time>2012-12-23T09:56:42Z</time>
      </trkpt>
      <trkpt lat="44.33261" lon="2.67637">
        <ele>722.5681152</ele>
        <time>2012-12-23T09:56:47Z</time>
      </trkpt>
      <trkpt lat="44.33264" lon="2.67645">
        <ele>724.0100098</ele>
        <time>2012-12-23T09:56:50Z</time>
      </trkpt>
      <trkpt lat="44.3327" lon="2.67658">
        <ele>724.0100098</ele>
        <time>2012-12-23T09:56:55Z</time>
      </trkpt>
      <trkpt lat="44.33272" lon="2.67664">
        <ele>725.4519043</ele>
        <time>2012-12-23T09:56:57Z</time>
      </trkpt>
      <trkpt lat="44.33279" lon="2.67672">
        <ele>724.4907227</ele>
        <time>2012-12-23T09:57:01Z</time>
      </trkpt>
      <trkpt lat="44.33283" lon="2.67671">
        <ele>721.1262207</ele>
        <time>2012-12-23T09:57:09Z</time>
      </trkpt>
      <trkpt lat="44.33286" lon="2.6767">
        <ele>720.6455078</ele>
        <time>2012-12-23T09:57:11Z</time>
      </trkpt>
      <trkpt lat="44.33298" lon="2.67668">
        <ele>717.2810059</ele>
        <time>2012-12-23T09:57:16Z</time>
      </trkpt>
      <trkpt lat="44.33306" lon="2.67666">
        <ele>715.8388672</ele>
        <time>2012-12-23T09:57:20Z</time>
      </trkpt>
      <trkpt lat="44.33308" lon="2.67664">
        <ele>715.3581543</ele>
        <time>2012-12-23T09:57:22Z</time>
      </trkpt>
      <trkpt lat="44.33317" lon="2.67665">
        <ele>711.9936523</ele>
        <time>2012-12-23T09:57:27Z</time>
      </trkpt>
      <trkpt lat="44.33328" lon="2.67667">
        <ele>712.954834</ele>
        <time>2012-12-23T09:57:32Z</time>
      </trkpt>
      <trkpt lat="44.33338" lon="2.67668">
        <ele>715.3581543</ele>
        <time>2012-12-23T09:57:37Z</time>
      </trkpt>
      <trkpt lat="44.33343" lon="2.67668">
        <ele>716.800293</ele>
        <time>2012-12-23T09:57:39Z</time>
      </trkpt>
      <trkpt lat="44.33354" lon="2.67667">
        <ele>717.2810059</ele>
        <time>2012-12-23T09:57:45Z</time>
      </trkpt>
      <trkpt lat="44.33355" lon="2.67667">
        <ele>717.7614746</ele>
        <time>2012-12-23T09:57:46Z</time>
      </trkpt>
      <trkpt lat="44.33367" lon="2.67657">
        <ele>720.6455078</ele>
        <time>2012-12-23T09:57:51Z</time>
      </trkpt>
      <trkpt lat="44.33382" lon="2.67647">
        <ele>720.6455078</ele>
        <time>2012-12-23T09:57:57Z</time>
      </trkpt>
      <trkpt lat="44.33393" lon="2.67638">
        <ele>721.1262207</ele>
        <time>2012-12-23T09:58:01Z</time>
      </trkpt>
      <trkpt lat="44.33409" lon="2.67625">
        <ele>721.1262207</ele>
        <time>2012-12-23T09:58:07Z</time>
      </trkpt>
      <trkpt lat="44.33419" lon="2.67614">
        <ele>718.7229004</ele>
        <time>2012-12-23T09:58:12Z</time>
      </trkpt>
      <trkpt lat="44.3343" lon="2.67595">
        <ele>717.2810059</ele>
        <time>2012-12-23T09:58:18Z</time>
      </trkpt>
      <trkpt lat="44.33438" lon="2.67581">
        <ele>712.954834</ele>
        <time>2012-12-23T09:58:22Z</time>
      </trkpt>
      <trkpt lat="44.33446" lon="2.67568">
        <ele>710.5515137</ele>
        <time>2012-12-23T09:58:26Z</time>
      </trkpt>
      <trkpt lat="44.33456" lon="2.67552">
        <ele>705.7451172</ele>
        <time>2012-12-23T09:58:31Z</time>
      </trkpt>
      <trkpt lat="44.3346" lon="2.67531">
        <ele>711.0322266</ele>
        <time>2012-12-23T09:58:36Z</time>
      </trkpt>
      <trkpt lat="44.33468" lon="2.67515">
        <ele>711.0322266</ele>
        <time>2012-12-23T09:58:41Z</time>
      </trkpt>
      <trkpt lat="44.33474" lon="2.67507">
        <ele>711.0322266</ele>
        <time>2012-12-23T09:58:44Z</time>
      </trkpt>
      <trkpt lat="44.33485" lon="2.67495">
        <ele>708.6289063</ele>
        <time>2012-12-23T09:58:49Z</time>
      </trkpt>
      <trkpt lat="44.33496" lon="2.67489">
        <ele>706.7062988</ele>
        <time>2012-12-23T09:58:53Z</time>
      </trkpt>
      <trkpt lat="44.33505" lon="2.67484">
        <ele>706.7062988</ele>
        <time>2012-12-23T09:58:57Z</time>
      </trkpt>
      <trkpt lat="44.33516" lon="2.67486">
        <ele>706.2255859</ele>
        <time>2012-12-23T09:59:01Z</time>
      </trkpt>
      <trkpt lat="44.33526" lon="2.67489">
        <ele>706.2255859</ele>
        <time>2012-12-23T09:59:05Z</time>
      </trkpt>
      <trkpt lat="44.33531" lon="2.67487">
        <ele>707.1870117</ele>
        <time>2012-12-23T09:59:07Z</time>
      </trkpt>
      <trkpt lat="44.33537" lon="2.67473">
        <ele>707.6677246</ele>
        <time>2012-12-23T09:59:12Z</time>
      </trkpt>
      <trkpt lat="44.33534" lon="2.67464">
        <ele>707.1870117</ele>
        <time>2012-12-23T09:59:15Z</time>
      </trkpt>
      <trkpt lat="44.33531" lon="2.67453">
        <ele>706.7062988</ele>
        <time>2012-12-23T09:59:18Z</time>
      </trkpt>
      <trkpt lat="44.33528" lon="2.67439">
        <ele>705.7451172</ele>
        <time>2012-12-23T09:59:23Z</time>
      </trkpt>
      <trkpt lat="44.3352" lon="2.67418">
        <ele>703.3417969</ele>
        <time>2012-12-23T09:59:29Z</time>
      </trkpt>
      <trkpt lat="44.33515" lon="2.67399">
        <ele>698.5349121</ele>
        <time>2012-12-23T09:59:34Z</time>
      </trkpt>
      <trkpt lat="44.33511" lon="2.67374">
        <ele>694.6896973</ele>
        <time>2012-12-23T09:59:40Z</time>
      </trkpt>
      <trkpt lat="44.33513" lon="2.67353">
        <ele>690.3640137</ele>
        <time>2012-12-23T09:59:45Z</time>
      </trkpt>
      <trkpt lat="44.33516" lon="2.67336">
        <ele>687.4799805</ele>
        <time>2012-12-23T09:59:50Z</time>
      </trkpt>
      <trkpt lat="44.33521" lon="2.67318">
        <ele>687.4799805</ele>
        <time>2012-12-23T09:59:56Z</time>
      </trkpt>
      <trkpt lat="44.33524" lon="2.673">
        <ele>689.4025879</ele>
        <time>2012-12-23T10:00:00Z</time>
      </trkpt>
      <trkpt lat="44.33522" lon="2.67277">
        <ele>687.9606934</ele>
        <time>2012-12-23T10:00:05Z</time>
      </trkpt>
      <trkpt lat="44.33515" lon="2.67264">
        <ele>687.9606934</ele>
        <time>2012-12-23T10:00:09Z</time>
      </trkpt>
      <trkpt lat="44.33509" lon="2.67251">
        <ele>682.6733398</ele>
        <time>2012-12-23T10:00:14Z</time>
      </trkpt>
      <trkpt lat="44.33501" lon="2.67228">
        <ele>682.192627</ele>
        <time>2012-12-23T10:00:20Z</time>
      </trkpt>
      <trkpt lat="44.33497" lon="2.67203">
        <ele>680.7507324</ele>
        <time>2012-12-23T10:00:26Z</time>
      </trkpt>
      <trkpt lat="44.33495" lon="2.67191">
        <ele>680.2700195</ele>
        <time>2012-12-23T10:00:29Z</time>
      </trkpt>
      <trkpt lat="44.3349" lon="2.67173">
        <ele>678.3474121</ele>
        <time>2012-12-23T10:00:34Z</time>
      </trkpt>
      <trkpt lat="44.33485" lon="2.67154">
        <ele>678.3474121</ele>
        <time>2012-12-23T10:00:39Z</time>
      </trkpt>
      <trkpt lat="44.3348" lon="2.67134">
        <ele>678.828125</ele>
        <time>2012-12-23T10:00:44Z</time>
      </trkpt>
      <trkpt lat="44.33479" lon="2.67115">
        <ele>678.3474121</ele>
        <time>2012-12-23T10:00:49Z</time>
      </trkpt>
      <trkpt lat="44.33481" lon="2.67105">
        <ele>677.3862305</ele>
        <time>2012-12-23T10:00:52Z</time>
      </trkpt>
      <trkpt lat="44.33474" lon="2.67093">
        <ele>674.9829102</ele>
        <time>2012-12-23T10:00:57Z</time>
      </trkpt>
      <trkpt lat="44.33472" lon="2.6709">
        <ele>674.0214844</ele>
        <time>2012-12-23T10:00:59Z</time>
      </trkpt>
      <trkpt lat="44.33467" lon="2.6709">
        <ele>673.5410156</ele>
        <time>2012-12-23T10:01:01Z</time>
      </trkpt>
      <trkpt lat="44.33461" lon="2.67093">
        <ele>672.5795898</ele>
        <time>2012-12-23T10:01:03Z</time>
      </trkpt>
      <trkpt lat="44.33456" lon="2.67111">
        <ele>668.734375</ele>
        <time>2012-12-23T10:01:08Z</time>
      </trkpt>
      <trkpt lat="44.33457" lon="2.67118">
        <ele>666.3308105</ele>
        <time>2012-12-23T10:01:10Z</time>
      </trkpt>
      <trkpt lat="44.3346" lon="2.67139">
        <ele>663.4470215</ele>
        <time>2012-12-23T10:01:15Z</time>
      </trkpt>
      <trkpt lat="44.33462" lon="2.67153">
        <ele>662.005127</ele>
        <time>2012-12-23T10:01:19Z</time>
      </trkpt>
      <trkpt lat="44.33462" lon="2.67156">
        <ele>661.5244141</ele>
        <time>2012-12-23T10:01:20Z</time>
      </trkpt>
      <trkpt lat="44.33462" lon="2.67176">
        <ele>660.5629883</ele>
        <time>2012-12-23T10:01:25Z</time>
      </trkpt>
      <trkpt lat="44.33462" lon="2.6718">
        <ele>660.5629883</ele>
        <time>2012-12-23T10:01:26Z</time>
      </trkpt>
      <trkpt lat="44.33463" lon="2.67209">
        <ele>659.6018066</ele>
        <time>2012-12-23T10:01:33Z</time>
      </trkpt>
      <trkpt lat="44.33462" lon="2.67228">
        <ele>658.6403809</ele>
        <time>2012-12-23T10:01:38Z</time>
      </trkpt>
      <trkpt lat="44.33463" lon="2.67248">
        <ele>660.5629883</ele>
        <time>2012-12-23T10:01:43Z</time>
      </trkpt>
      <trkpt lat="44.33465" lon="2.6726">
        <ele>660.0822754</ele>
        <time>2012-12-23T10:01:46Z</time>
      </trkpt>
      <trkpt lat="44.33458" lon="2.67278">
        <ele>660.0822754</ele>
        <time>2012-12-23T10:01:53Z</time>
      </trkpt>
      <trkpt lat="44.33456" lon="2.67269">
        <ele>658.6403809</ele>
        <time>2012-12-23T10:01:55Z</time>
      </trkpt>
      <trkpt lat="44.33454" lon="2.67248">
        <ele>656.7177734</ele>
        <time>2012-12-23T10:02:00Z</time>
      </trkpt>
      <trkpt lat="44.33451" lon="2.67227">
        <ele>654.795166</ele>
        <time>2012-12-23T10:02:06Z</time>
      </trkpt>
      <trkpt lat="44.33447" lon="2.67203">
        <ele>650.4692383</ele>
        <time>2012-12-23T10:02:12Z</time>
      </trkpt>
      <trkpt lat="44.33446" lon="2.67184">
        <ele>649.0270996</ele>
        <time>2012-12-23T10:02:17Z</time>
      </trkpt>
      <trkpt lat="44.33439" lon="2.67168">
        <ele>649.0270996</ele>
        <time>2012-12-23T10:02:22Z</time>
      </trkpt>
      <trkpt lat="44.3343" lon="2.67158">
        <ele>646.1433105</ele>
        <time>2012-12-23T10:02:27Z</time>
      </trkpt>
      <trkpt lat="44.3342" lon="2.67144">
        <ele>643.7399902</ele>
        <time>2012-12-23T10:02:33Z</time>
      </trkpt>
      <trkpt lat="44.33414" lon="2.67139">
        <ele>642.7788086</ele>
        <time>2012-12-23T10:02:36Z</time>
      </trkpt>
      <trkpt lat="44.334" lon="2.67137">
        <ele>641.8173828</ele>
        <time>2012-12-23T10:02:42Z</time>
      </trkpt>
      <trkpt lat="44.3339" lon="2.67124">
        <ele>639.4140625</ele>
        <time>2012-12-23T10:02:48Z</time>
      </trkpt>
      <trkpt lat="44.33377" lon="2.67112">
        <ele>637.972168</ele>
        <time>2012-12-23T10:02:53Z</time>
      </trkpt>
      <trkpt lat="44.33368" lon="2.67107">
        <ele>637.0107422</ele>
        <time>2012-12-23T10:02:56Z</time>
      </trkpt>
      <trkpt lat="44.33362" lon="2.67107">
        <ele>637.4914551</ele>
        <time>2012-12-23T10:02:58Z</time>
      </trkpt>
      <trkpt lat="44.33351" lon="2.67109">
        <ele>637.0107422</ele>
        <time>2012-12-23T10:03:02Z</time>
      </trkpt>
      <trkpt lat="44.33348" lon="2.67109">
        <ele>637.0107422</ele>
        <time>2012-12-23T10:03:03Z</time>
      </trkpt>
      <trkpt lat="44.33346" lon="2.67098">
        <ele>637.4914551</ele>
        <time>2012-12-23T10:03:07Z</time>
      </trkpt>
      <trkpt lat="44.33347" lon="2.67094">
        <ele>638.4528809</ele>
        <time>2012-12-23T10:03:08Z</time>
      </trkpt>
      <trkpt lat="44.3335" lon="2.67078">
        <ele>638.9335938</ele>
        <time>2012-12-23T10:03:13Z</time>
      </trkpt>
      <trkpt lat="44.33351" lon="2.67067">
        <ele>640.855957</ele>
        <time>2012-12-23T10:03:16Z</time>
      </trkpt>
      <trkpt lat="44.33357" lon="2.67062">
        <ele>638.9335938</ele>
        <time>2012-12-23T10:03:21Z</time>
      </trkpt>
      <trkpt lat="44.33356" lon="2.67064">
        <ele>637.4914551</ele>
        <time>2012-12-23T10:03:26Z</time>
      </trkpt>
      <trkpt lat="44.33353" lon="2.67066">
        <ele>641.8173828</ele>
        <time>2012-12-23T10:03:40Z</time>
      </trkpt>
      <trkpt lat="44.33351" lon="2.67066">
        <ele>641.8173828</ele>
        <time>2012-12-23T10:03:41Z</time>
      </trkpt>
      <trkpt lat="44.33348" lon="2.67056">
        <ele>641.8173828</ele>
        <time>2012-12-23T10:03:46Z</time>
      </trkpt>
      <trkpt lat="44.33348" lon="2.67049">
        <ele>640.3754883</ele>
        <time>2012-12-23T10:03:49Z</time>
      </trkpt>
      <trkpt lat="44.3335" lon="2.67041">
        <ele>637.4914551</ele>
        <time>2012-12-23T10:03:55Z</time>
      </trkpt>
      <trkpt lat="44.33351" lon="2.67039">
        <ele>637.0107422</ele>
        <time>2012-12-23T10:03:57Z</time>
      </trkpt>
      <trkpt lat="44.33351" lon="2.67031">
        <ele>632.6848145</ele>
        <time>2012-12-23T10:04:03Z</time>
      </trkpt>
      <trkpt lat="44.3335" lon="2.67027">
        <ele>633.1652832</ele>
        <time>2012-12-23T10:04:09Z</time>
      </trkpt>
      <trkpt lat="44.33351" lon="2.6702">
        <ele>635.0881348</ele>
        <time>2012-12-23T10:04:16Z</time>
      </trkpt>
      <trkpt lat="44.3335" lon="2.67013">
        <ele>637.972168</ele>
        <time>2012-12-23T10:04:22Z</time>
      </trkpt>
      <trkpt lat="44.3335" lon="2.67008">
        <ele>638.9335938</ele>
        <time>2012-12-23T10:04:27Z</time>
      </trkpt>
      <trkpt lat="44.33348" lon="2.67001">
        <ele>639.4140625</ele>
        <time>2012-12-23T10:04:33Z</time>
      </trkpt>
      <trkpt lat="44.33348" lon="2.66995">
        <ele>643.7399902</ele>
        <time>2012-12-23T10:04:38Z</time>
      </trkpt>
      <trkpt lat="44.33346" lon="2.6699">
        <ele>646.1433105</ele>
        <time>2012-12-23T10:04:46Z</time>
      </trkpt>
      <trkpt lat="44.33347" lon="2.66989">
        <ele>643.7399902</ele>
        <time>2012-12-23T10:04:55Z</time>
      </trkpt>
      <trkpt lat="44.33345" lon="2.66982">
        <ele>646.1433105</ele>
        <time>2012-12-23T10:05:02Z</time>
      </trkpt>
      <trkpt lat="44.33344" lon="2.6698">
        <ele>649.0270996</ele>
        <time>2012-12-23T10:05:07Z</time>
      </trkpt>
      <trkpt lat="44.3334" lon="2.66976">
        <ele>655.2758789</ele>
        <time>2012-12-23T10:05:18Z</time>
      </trkpt>
      <trkpt lat="44.33339" lon="2.66968">
        <ele>654.795166</ele>
        <time>2012-12-23T10:05:25Z</time>
      </trkpt>
      <trkpt lat="44.33337" lon="2.66959">
        <ele>656.2370605</ele>
        <time>2012-12-23T10:05:32Z</time>
      </trkpt>
      <trkpt lat="44.33335" lon="2.66952">
        <ele>656.7177734</ele>
        <time>2012-12-23T10:05:39Z</time>
      </trkpt>
      <trkpt lat="44.33334" lon="2.66945">
        <ele>657.6791992</ele>
        <time>2012-12-23T10:05:46Z</time>
      </trkpt>
      <trkpt lat="44.33334" lon="2.66942">
        <ele>661.0437012</ele>
        <time>2012-12-23T10:05:50Z</time>
      </trkpt>
      <trkpt lat="44.33332" lon="2.66935">
        <ele>662.9663086</ele>
        <time>2012-12-23T10:05:55Z</time>
      </trkpt>
      <trkpt lat="44.33335" lon="2.66927">
        <ele>669.6958008</ele>
        <time>2012-12-23T10:06:00Z</time>
      </trkpt>
      <trkpt lat="44.33336" lon="2.66922">
        <ele>676.9055176</ele>
        <time>2012-12-23T10:06:05Z</time>
      </trkpt>
      <trkpt lat="44.33337" lon="2.66918">
        <ele>680.7507324</ele>
        <time>2012-12-23T10:06:12Z</time>
      </trkpt>
      <trkpt lat="44.33334" lon="2.6691">
        <ele>679.7893066</ele>
        <time>2012-12-23T10:06:21Z</time>
      </trkpt>
      <trkpt lat="44.33342" lon="2.66902">
        <ele>678.3474121</ele>
        <time>2012-12-23T10:06:26Z</time>
      </trkpt>
      <trkpt lat="44.33344" lon="2.66901">
        <ele>678.3474121</ele>
        <time>2012-12-23T10:06:27Z</time>
      </trkpt>
      <trkpt lat="44.33355" lon="2.66901">
        <ele>674.9829102</ele>
        <time>2012-12-23T10:06:32Z</time>
      </trkpt>
      <trkpt lat="44.33368" lon="2.66895">
        <ele>673.5410156</ele>
        <time>2012-12-23T10:06:37Z</time>
      </trkpt>
      <trkpt lat="44.33385" lon="2.66883">
        <ele>673.5410156</ele>
        <time>2012-12-23T10:06:43Z</time>
      </trkpt>
      <trkpt lat="44.33402" lon="2.66874">
        <ele>675.4633789</ele>
        <time>2012-12-23T10:06:49Z</time>
      </trkpt>
      <trkpt lat="44.33421" lon="2.6686">
        <ele>677.3862305</ele>
        <time>2012-12-23T10:06:56Z</time>
      </trkpt>
      <trkpt lat="44.33429" lon="2.6685">
        <ele>677.3862305</ele>
        <time>2012-12-23T10:07:00Z</time>
      </trkpt>
      <trkpt lat="44.33442" lon="2.66835">
        <ele>676.4248047</ele>
        <time>2012-12-23T10:07:06Z</time>
      </trkpt>
      <trkpt lat="44.33451" lon="2.6682">
        <ele>673.5410156</ele>
        <time>2012-12-23T10:07:11Z</time>
      </trkpt>
      <trkpt lat="44.33461" lon="2.66804">
        <ele>670.1762695</ele>
        <time>2012-12-23T10:07:16Z</time>
      </trkpt>
      <trkpt lat="44.33469" lon="2.66792">
        <ele>669.6958008</ele>
        <time>2012-12-23T10:07:20Z</time>
      </trkpt>
      <trkpt lat="44.33471" lon="2.66789">
        <ele>668.734375</ele>
        <time>2012-12-23T10:07:21Z</time>
      </trkpt>
      <trkpt lat="44.33474" lon="2.66768">
        <ele>667.2922363</ele>
        <time>2012-12-23T10:07:26Z</time>
      </trkpt>
      <trkpt lat="44.33474" lon="2.66748">
        <ele>666.3308105</ele>
        <time>2012-12-23T10:07:31Z</time>
      </trkpt>
      <trkpt lat="44.33483" lon="2.66738">
        <ele>665.8503418</ele>
        <time>2012-12-23T10:07:35Z</time>
      </trkpt>
      <trkpt lat="44.33492" lon="2.66729">
        <ele>663.4470215</ele>
        <time>2012-12-23T10:07:39Z</time>
      </trkpt>
      <trkpt lat="44.33499" lon="2.66716">
        <ele>661.5244141</ele>
        <time>2012-12-23T10:07:43Z</time>
      </trkpt>
      <trkpt lat="44.3351" lon="2.66699">
        <ele>659.6018066</ele>
        <time>2012-12-23T10:07:49Z</time>
      </trkpt>
      <trkpt lat="44.3352" lon="2.66679">
        <ele>657.6791992</ele>
        <time>2012-12-23T10:07:55Z</time>
      </trkpt>
      <trkpt lat="44.3353" lon="2.66668">
        <ele>657.6791992</ele>
        <time>2012-12-23T10:07:59Z</time>
      </trkpt>
      <trkpt lat="44.33543" lon="2.66654">
        <ele>657.1984863</ele>
        <time>2012-12-23T10:08:04Z</time>
      </trkpt>
      <trkpt lat="44.33558" lon="2.66638">
        <ele>656.2370605</ele>
        <time>2012-12-23T10:08:10Z</time>
      </trkpt>
      <trkpt lat="44.33571" lon="2.66624">
        <ele>655.2758789</ele>
        <time>2012-12-23T10:08:15Z</time>
      </trkpt>
      <trkpt lat="44.33579" lon="2.66613">
        <ele>654.3146973</ele>
        <time>2012-12-23T10:08:19Z</time>
      </trkpt>
      <trkpt lat="44.33591" lon="2.66598">
        <ele>653.3532715</ele>
        <time>2012-12-23T10:08:24Z</time>
      </trkpt>
      <trkpt lat="44.33603" lon="2.66586">
        <ele>650.4692383</ele>
        <time>2012-12-23T10:08:28Z</time>
      </trkpt>
      <trkpt lat="44.33613" lon="2.66573">
        <ele>648.5463867</ele>
        <time>2012-12-23T10:08:32Z</time>
      </trkpt>
      <trkpt lat="44.33617" lon="2.66552">
        <ele>647.1044922</ele>
        <time>2012-12-23T10:08:38Z</time>
      </trkpt>
      <trkpt lat="44.33617" lon="2.66548">
        <ele>646.6240234</ele>
        <time>2012-12-23T10:08:39Z</time>
      </trkpt>
      <trkpt lat="44.33624" lon="2.66536">
        <ele>647.1044922</ele>
        <time>2012-12-23T10:08:43Z</time>
      </trkpt>
      <trkpt lat="44.33638" lon="2.66526">
        <ele>649.0270996</ele>
        <time>2012-12-23T10:08:48Z</time>
      </trkpt>
      <trkpt lat="44.33651" lon="2.66519">
        <ele>649.0270996</ele>
        <time>2012-12-23T10:08:52Z</time>
      </trkpt>
      <trkpt lat="44.33664" lon="2.66513">
        <ele>649.0270996</ele>
        <time>2012-12-23T10:08:56Z</time>
      </trkpt>
      <trkpt lat="44.33681" lon="2.66508">
        <ele>649.5078125</ele>
        <time>2012-12-23T10:09:02Z</time>
      </trkpt>
      <trkpt lat="44.33695" lon="2.66501">
        <ele>648.5463867</ele>
        <time>2012-12-23T10:09:07Z</time>
      </trkpt>
      <trkpt lat="44.33708" lon="2.66491">
        <ele>646.1433105</ele>
        <time>2012-12-23T10:09:12Z</time>
      </trkpt>
      <trkpt lat="44.33715" lon="2.66479">
        <ele>641.8173828</ele>
        <time>2012-12-23T10:09:16Z</time>
      </trkpt>
      <trkpt lat="44.33717" lon="2.66462">
        <ele>638.4528809</ele>
        <time>2012-12-23T10:09:20Z</time>
      </trkpt>
      <trkpt lat="44.33717" lon="2.66457">
        <ele>638.4528809</ele>
        <time>2012-12-23T10:09:21Z</time>
      </trkpt>
      <trkpt lat="44.33708" lon="2.66444">
        <ele>636.5302734</ele>
        <time>2012-12-23T10:09:25Z</time>
      </trkpt>
      <trkpt lat="44.33696" lon="2.66431">
        <ele>636.0495605</ele>
        <time>2012-12-23T10:09:30Z</time>
      </trkpt>
      <trkpt lat="44.33685" lon="2.66418">
        <ele>635.5686035</ele>
        <time>2012-12-23T10:09:35Z</time>
      </trkpt>
      <trkpt lat="44.33672" lon="2.66404">
        <ele>636.5302734</ele>
        <time>2012-12-23T10:09:41Z</time>
      </trkpt>
      <trkpt lat="44.33661" lon="2.66396">
        <ele>637.972168</ele>
        <time>2012-12-23T10:09:46Z</time>
      </trkpt>
      <trkpt lat="44.33656" lon="2.66389">
        <ele>638.4528809</ele>
        <time>2012-12-23T10:09:48Z</time>
      </trkpt>
      <trkpt lat="44.33649" lon="2.66361">
        <ele>636.5302734</ele>
        <time>2012-12-23T10:09:55Z</time>
      </trkpt>
      <trkpt lat="44.33648" lon="2.66346">
        <ele>633.6459961</ele>
        <time>2012-12-23T10:09:59Z</time>
      </trkpt>
      <trkpt lat="44.33639" lon="2.66326">
        <ele>631.2429199</ele>
        <time>2012-12-23T10:10:05Z</time>
      </trkpt>
      <trkpt lat="44.33637" lon="2.66305">
        <ele>626.9169922</ele>
        <time>2012-12-23T10:10:10Z</time>
      </trkpt>
      <trkpt lat="44.33638" lon="2.66298">
        <ele>625.9555664</ele>
        <time>2012-12-23T10:10:12Z</time>
      </trkpt>
      <trkpt lat="44.33636" lon="2.66284">
        <ele>623.5524902</ele>
        <time>2012-12-23T10:10:17Z</time>
      </trkpt>
      <trkpt lat="44.3363" lon="2.66268">
        <ele>623.5524902</ele>
        <time>2012-12-23T10:10:22Z</time>
      </trkpt>
      <trkpt lat="44.33625" lon="2.66252">
        <ele>625.4748535</ele>
        <time>2012-12-23T10:10:27Z</time>
      </trkpt>
      <trkpt lat="44.33621" lon="2.66239">
        <ele>625.4748535</ele>
        <time>2012-12-23T10:10:30Z</time>
      </trkpt>
      <trkpt lat="44.3362" lon="2.66225">
        <ele>625.9555664</ele>
        <time>2012-12-23T10:10:34Z</time>
      </trkpt>
      <trkpt lat="44.3362" lon="2.66206">
        <ele>627.8781738</ele>
        <time>2012-12-23T10:10:39Z</time>
      </trkpt>
      <trkpt lat="44.33618" lon="2.66185">
        <ele>628.8395996</ele>
        <time>2012-12-23T10:10:45Z</time>
      </trkpt>
      <trkpt lat="44.33619" lon="2.6617">
        <ele>630.2814941</ele>
        <time>2012-12-23T10:10:50Z</time>
      </trkpt>
      <trkpt lat="44.33619" lon="2.66167">
        <ele>630.762207</ele>
        <time>2012-12-23T10:10:51Z</time>
      </trkpt>
      <trkpt lat="44.33616" lon="2.66159">
        <ele>631.2429199</ele>
        <time>2012-12-23T10:10:53Z</time>
      </trkpt>
      <trkpt lat="44.33618" lon="2.66146">
        <ele>631.7233887</ele>
        <time>2012-12-23T10:10:58Z</time>
      </trkpt>
      <trkpt lat="44.33618" lon="2.66141">
        <ele>633.1652832</ele>
        <time>2012-12-23T10:11:00Z</time>
      </trkpt>
      <trkpt lat="44.33615" lon="2.66125">
        <ele>633.6459961</ele>
        <time>2012-12-23T10:11:06Z</time>
      </trkpt>
      <trkpt lat="44.33614" lon="2.66111">
        <ele>635.5686035</ele>
        <time>2012-12-23T10:11:11Z</time>
      </trkpt>
      <trkpt lat="44.33612" lon="2.66097">
        <ele>637.0107422</ele>
        <time>2012-12-23T10:11:16Z</time>
      </trkpt>
      <trkpt lat="44.3361" lon="2.66084">
        <ele>637.972168</ele>
        <time>2012-12-23T10:11:20Z</time>
      </trkpt>
      <trkpt lat="44.33609" lon="2.66068">
        <ele>637.972168</ele>
        <time>2012-12-23T10:11:25Z</time>
      </trkpt>
      <trkpt lat="44.33609" lon="2.66065">
        <ele>637.4914551</ele>
        <time>2012-12-23T10:11:26Z</time>
      </trkpt>
      <trkpt lat="44.33607" lon="2.66046">
        <ele>638.4528809</ele>
        <time>2012-12-23T10:11:32Z</time>
      </trkpt>
      <trkpt lat="44.33605" lon="2.66022">
        <ele>637.972168</ele>
        <time>2012-12-23T10:11:39Z</time>
      </trkpt>
      <trkpt lat="44.33601" lon="2.66009">
        <ele>636.5302734</ele>
        <time>2012-12-23T10:11:43Z</time>
      </trkpt>
      <trkpt lat="44.336" lon="2.66003">
        <ele>637.0107422</ele>
        <time>2012-12-23T10:11:45Z</time>
      </trkpt>
      <trkpt lat="44.33592" lon="2.65982">
        <ele>637.4914551</ele>
        <time>2012-12-23T10:11:52Z</time>
      </trkpt>
      <trkpt lat="44.33584" lon="2.65965">
        <ele>637.4914551</ele>
        <time>2012-12-23T10:11:58Z</time>
      </trkpt>
      <trkpt lat="44.33578" lon="2.65949">
        <ele>639.4140625</ele>
        <time>2012-12-23T10:12:03Z</time>
      </trkpt>
      <trkpt lat="44.33568" lon="2.65936">
        <ele>639.8947754</ele>
        <time>2012-12-23T10:12:08Z</time>
      </trkpt>
      <trkpt lat="44.33562" lon="2.65925">
        <ele>641.3366699</ele>
        <time>2012-12-23T10:12:13Z</time>
      </trkpt>
      <trkpt lat="44.33556" lon="2.65912">
        <ele>641.8173828</ele>
        <time>2012-12-23T10:12:18Z</time>
      </trkpt>
      <trkpt lat="44.33549" lon="2.65897">
        <ele>643.7399902</ele>
        <time>2012-12-23T10:12:23Z</time>
      </trkpt>
      <trkpt lat="44.33541" lon="2.65881">
        <ele>643.7399902</ele>
        <time>2012-12-23T10:12:29Z</time>
      </trkpt>
      <trkpt lat="44.33535" lon="2.65868">
        <ele>644.2207031</ele>
        <time>2012-12-23T10:12:34Z</time>
      </trkpt>
      <trkpt lat="44.33534" lon="2.65851">
        <ele>645.6625977</ele>
        <time>2012-12-23T10:12:39Z</time>
      </trkpt>
      <trkpt lat="44.33539" lon="2.6584">
        <ele>644.7011719</ele>
        <time>2012-12-23T10:12:44Z</time>
      </trkpt>
      <trkpt lat="44.33545" lon="2.6583">
        <ele>643.7399902</ele>
        <time>2012-12-23T10:12:49Z</time>
      </trkpt>
      <trkpt lat="44.33551" lon="2.65821">
        <ele>642.7788086</ele>
        <time>2012-12-23T10:12:54Z</time>
      </trkpt>
      <trkpt lat="44.33557" lon="2.65812">
        <ele>641.3366699</ele>
        <time>2012-12-23T10:12:59Z</time>
      </trkpt>
      <trkpt lat="44.33562" lon="2.65802">
        <ele>640.3754883</ele>
        <time>2012-12-23T10:13:04Z</time>
      </trkpt>
      <trkpt lat="44.33565" lon="2.6579">
        <ele>644.7011719</ele>
        <time>2012-12-23T10:13:10Z</time>
      </trkpt>
      <trkpt lat="44.33568" lon="2.65781">
        <ele>647.1044922</ele>
        <time>2012-12-23T10:13:16Z</time>
      </trkpt>
      <trkpt lat="44.33574" lon="2.6577">
        <ele>649.5078125</ele>
        <time>2012-12-23T10:13:23Z</time>
      </trkpt>
      <trkpt lat="44.33583" lon="2.65759">
        <ele>650.949707</ele>
        <time>2012-12-23T10:13:29Z</time>
      </trkpt>
      <trkpt lat="44.33592" lon="2.65749">
        <ele>650.949707</ele>
        <time>2012-12-23T10:13:35Z</time>
      </trkpt>
      <trkpt lat="44.33597" lon="2.65741">
        <ele>650.949707</ele>
        <time>2012-12-23T10:13:39Z</time>
      </trkpt>
      <trkpt lat="44.33603" lon="2.65731">
        <ele>652.8725586</ele>
        <time>2012-12-23T10:13:44Z</time>
      </trkpt>
      <trkpt lat="44.3361" lon="2.65723">
        <ele>652.8725586</ele>
        <time>2012-12-23T10:13:49Z</time>
      </trkpt>
      <trkpt lat="44.33611" lon="2.65721">
        <ele>652.8725586</ele>
        <time>2012-12-23T10:13:50Z</time>
      </trkpt>
      <trkpt lat="44.33613" lon="2.65717">
        <ele>656.2370605</ele>
        <time>2012-12-23T10:13:54Z</time>
      </trkpt>
      <trkpt lat="44.33616" lon="2.65718">
        <ele>660.0822754</ele>
        <time>2012-12-23T10:14:00Z</time>
      </trkpt>
      <trkpt lat="44.33621" lon="2.65728">
        <ele>662.005127</ele>
        <time>2012-12-23T10:14:08Z</time>
      </trkpt>
      <trkpt lat="44.33621" lon="2.65729">
        <ele>662.005127</ele>
        <time>2012-12-23T10:14:09Z</time>
      </trkpt>
      <trkpt lat="44.33631" lon="2.65733">
        <ele>665.3696289</ele>
        <time>2012-12-23T10:14:17Z</time>
      </trkpt>
      <trkpt lat="44.33635" lon="2.6573">
        <ele>666.8115234</ele>
        <time>2012-12-23T10:14:21Z</time>
      </trkpt>
      <trkpt lat="44.33648" lon="2.65722">
        <ele>667.7727051</ele>
        <time>2012-12-23T10:14:28Z</time>
      </trkpt>
      <trkpt lat="44.33651" lon="2.6572">
        <ele>668.2536621</ele>
        <time>2012-12-23T10:14:30Z</time>
      </trkpt>
      <trkpt lat="44.33666" lon="2.65712">
        <ele>671.6181641</ele>
        <time>2012-12-23T10:14:39Z</time>
      </trkpt>
      <trkpt lat="44.33668" lon="2.65711">
        <ele>672.098877</ele>
        <time>2012-12-23T10:14:40Z</time>
      </trkpt>
      <trkpt lat="44.33673" lon="2.65707">
        <ele>673.0603027</ele>
        <time>2012-12-23T10:14:43Z</time>
      </trkpt>
      <trkpt lat="44.33683" lon="2.65706">
        <ele>674.9829102</ele>
        <time>2012-12-23T10:14:48Z</time>
      </trkpt>
      <trkpt lat="44.33692" lon="2.65701">
        <ele>677.8666992</ele>
        <time>2012-12-23T10:14:53Z</time>
      </trkpt>
      <trkpt lat="44.33705" lon="2.65698">
        <ele>679.3085938</ele>
        <time>2012-12-23T10:14:59Z</time>
      </trkpt>
      <trkpt lat="44.33722" lon="2.65695">
        <ele>681.2314453</ele>
        <time>2012-12-23T10:15:07Z</time>
      </trkpt>
      <trkpt lat="44.33735" lon="2.65692">
        <ele>681.2314453</ele>
        <time>2012-12-23T10:15:13Z</time>
      </trkpt>
      <trkpt lat="44.33739" lon="2.65691">
        <ele>681.2314453</ele>
        <time>2012-12-23T10:15:15Z</time>
      </trkpt>
      <trkpt lat="44.3375" lon="2.65688">
        <ele>681.7119141</ele>
        <time>2012-12-23T10:15:20Z</time>
      </trkpt>
      <trkpt lat="44.33764" lon="2.6569">
        <ele>682.6733398</ele>
        <time>2012-12-23T10:15:26Z</time>
      </trkpt>
      <trkpt lat="44.33774" lon="2.65692">
        <ele>683.6345215</ele>
        <time>2012-12-23T10:15:30Z</time>
      </trkpt>
      <trkpt lat="44.33788" lon="2.65693">
        <ele>684.5961914</ele>
        <time>2012-12-23T10:15:36Z</time>
      </trkpt>
      <trkpt lat="44.33803" lon="2.65696">
        <ele>686.0380859</ele>
        <time>2012-12-23T10:15:42Z</time>
      </trkpt>
      <trkpt lat="44.33817" lon="2.65703">
        <ele>686.0380859</ele>
        <time>2012-12-23T10:15:48Z</time>
      </trkpt>
      <trkpt lat="44.33827" lon="2.65708">
        <ele>686.0380859</ele>
        <time>2012-12-23T10:15:53Z</time>
      </trkpt>
      <trkpt lat="44.3384" lon="2.65713">
        <ele>687.9606934</ele>
        <time>2012-12-23T10:15:59Z</time>
      </trkpt>
      <trkpt lat="44.33855" lon="2.65718">
        <ele>689.8833008</ele>
        <time>2012-12-23T10:16:05Z</time>
      </trkpt>
      <trkpt lat="44.33866" lon="2.65726">
        <ele>688.9221191</ele>
        <time>2012-12-23T10:16:10Z</time>
      </trkpt>
      <trkpt lat="44.33876" lon="2.65734">
        <ele>687.4799805</ele>
        <time>2012-12-23T10:16:15Z</time>
      </trkpt>
      <trkpt lat="44.33886" lon="2.65744">
        <ele>686.0380859</ele>
        <time>2012-12-23T10:16:20Z</time>
      </trkpt>
      <trkpt lat="44.33896" lon="2.65754">
        <ele>685.557373</ele>
        <time>2012-12-23T10:16:25Z</time>
      </trkpt>
      <trkpt lat="44.33899" lon="2.65759">
        <ele>686.0380859</ele>
        <time>2012-12-23T10:16:27Z</time>
      </trkpt>
      <trkpt lat="44.33908" lon="2.65751">
        <ele>686.5187988</ele>
        <time>2012-12-23T10:16:32Z</time>
      </trkpt>
      <trkpt lat="44.33913" lon="2.65734">
        <ele>686.5187988</ele>
        <time>2012-12-23T10:16:38Z</time>
      </trkpt>
      <trkpt lat="44.33918" lon="2.65719">
        <ele>686.5187988</ele>
        <time>2012-12-23T10:16:43Z</time>
      </trkpt>
      <trkpt lat="44.33921" lon="2.657">
        <ele>686.5187988</ele>
        <time>2012-12-23T10:16:48Z</time>
      </trkpt>
      <trkpt lat="44.33924" lon="2.65683">
        <ele>686.5187988</ele>
        <time>2012-12-23T10:16:53Z</time>
      </trkpt>
      <trkpt lat="44.33927" lon="2.65666">
        <ele>686.9992676</ele>
        <time>2012-12-23T10:16:58Z</time>
      </trkpt>
      <trkpt lat="44.33931" lon="2.65645">
        <ele>688.4414063</ele>
        <time>2012-12-23T10:17:04Z</time>
      </trkpt>
      <trkpt lat="44.33935" lon="2.65631">
        <ele>689.4025879</ele>
        <time>2012-12-23T10:17:08Z</time>
      </trkpt>
      <trkpt lat="44.3394" lon="2.65613">
        <ele>688.9221191</ele>
        <time>2012-12-23T10:17:13Z</time>
      </trkpt>
      <trkpt lat="44.33951" lon="2.65595">
        <ele>688.4414063</ele>
        <time>2012-12-23T10:17:19Z</time>
      </trkpt>
      <trkpt lat="44.33956" lon="2.65582">
        <ele>687.4799805</ele>
        <time>2012-12-23T10:17:23Z</time>
      </trkpt>
      <trkpt lat="44.33964" lon="2.65567">
        <ele>686.5187988</ele>
        <time>2012-12-23T10:17:28Z</time>
      </trkpt>
      <trkpt lat="44.33969" lon="2.65551">
        <ele>686.0380859</ele>
        <time>2012-12-23T10:17:33Z</time>
      </trkpt>
      <trkpt lat="44.33975" lon="2.65536">
        <ele>686.0380859</ele>
        <time>2012-12-23T10:17:38Z</time>
      </trkpt>
      <trkpt lat="44.3398" lon="2.65517">
        <ele>685.0769043</ele>
        <time>2012-12-23T10:17:43Z</time>
      </trkpt>
      <trkpt lat="44.33986" lon="2.65499">
        <ele>684.1154785</ele>
        <time>2012-12-23T10:17:48Z</time>
      </trkpt>
      <trkpt lat="44.33991" lon="2.65482">
        <ele>684.1154785</ele>
        <time>2012-12-23T10:17:53Z</time>
      </trkpt>
      <trkpt lat="44.33998" lon="2.65461">
        <ele>683.6345215</ele>
        <time>2012-12-23T10:17:59Z</time>
      </trkpt>
      <trkpt lat="44.34005" lon="2.65441">
        <ele>683.6345215</ele>
        <time>2012-12-23T10:18:05Z</time>
      </trkpt>
      <trkpt lat="44.34015" lon="2.6542">
        <ele>683.6345215</ele>
        <time>2012-12-23T10:18:11Z</time>
      </trkpt>
      <trkpt lat="44.34021" lon="2.65403">
        <ele>683.1538086</ele>
        <time>2012-12-23T10:18:16Z</time>
      </trkpt>
      <trkpt lat="44.34029" lon="2.65387">
        <ele>683.1538086</ele>
        <time>2012-12-23T10:18:21Z</time>
      </trkpt>
      <trkpt lat="44.34036" lon="2.65372">
        <ele>682.6733398</ele>
        <time>2012-12-23T10:18:26Z</time>
      </trkpt>
      <trkpt lat="44.34042" lon="2.65357">
        <ele>682.192627</ele>
        <time>2012-12-23T10:18:30Z</time>
      </trkpt>
      <trkpt lat="44.34051" lon="2.65343">
        <ele>681.7119141</ele>
        <time>2012-12-23T10:18:35Z</time>
      </trkpt>
      <trkpt lat="44.3406" lon="2.6533">
        <ele>680.2700195</ele>
        <time>2012-12-23T10:18:40Z</time>
      </trkpt>
      <trkpt lat="44.34068" lon="2.65315">
        <ele>680.7507324</ele>
        <time>2012-12-23T10:18:45Z</time>
      </trkpt>
      <trkpt lat="44.34077" lon="2.65296">
        <ele>680.7507324</ele>
        <time>2012-12-23T10:18:51Z</time>
      </trkpt>
      <trkpt lat="44.34084" lon="2.65284">
        <ele>681.2314453</ele>
        <time>2012-12-23T10:18:55Z</time>
      </trkpt>
      <trkpt lat="44.34087" lon="2.65277">
        <ele>680.7507324</ele>
        <time>2012-12-23T10:18:57Z</time>
      </trkpt>
      <trkpt lat="44.34097" lon="2.65266">
        <ele>679.7893066</ele>
        <time>2012-12-23T10:19:02Z</time>
      </trkpt>
      <trkpt lat="44.34106" lon="2.65253">
        <ele>678.3474121</ele>
        <time>2012-12-23T10:19:07Z</time>
      </trkpt>
      <trkpt lat="44.34116" lon="2.6524">
        <ele>677.3862305</ele>
        <time>2012-12-23T10:19:12Z</time>
      </trkpt>
      <trkpt lat="44.34126" lon="2.65227">
        <ele>675.9440918</ele>
        <time>2012-12-23T10:19:17Z</time>
      </trkpt>
      <trkpt lat="44.34135" lon="2.65217">
        <ele>674.9829102</ele>
        <time>2012-12-23T10:19:21Z</time>
      </trkpt>
      <trkpt lat="44.34147" lon="2.65202">
        <ele>674.0214844</ele>
        <time>2012-12-23T10:19:27Z</time>
      </trkpt>
      <trkpt lat="44.34153" lon="2.65197">
        <ele>673.5410156</ele>
        <time>2012-12-23T10:19:30Z</time>
      </trkpt>
      <trkpt lat="44.34165" lon="2.65176">
        <ele>673.5410156</ele>
        <time>2012-12-23T10:19:37Z</time>
      </trkpt>
      <trkpt lat="44.34173" lon="2.65162">
        <ele>673.0603027</ele>
        <time>2012-12-23T10:19:42Z</time>
      </trkpt>
      <trkpt lat="44.34176" lon="2.65142">
        <ele>674.5021973</ele>
        <time>2012-12-23T10:19:47Z</time>
      </trkpt>
      <trkpt lat="44.34174" lon="2.65129">
        <ele>675.4633789</ele>
        <time>2012-12-23T10:19:51Z</time>
      </trkpt>
      <trkpt lat="44.34171" lon="2.65106">
        <ele>675.9440918</ele>
        <time>2012-12-23T10:19:57Z</time>
      </trkpt>
      <trkpt lat="44.3417" lon="2.6509">
        <ele>676.4248047</ele>
        <time>2012-12-23T10:20:01Z</time>
      </trkpt>
      <trkpt lat="44.34168" lon="2.65078">
        <ele>676.9055176</ele>
        <time>2012-12-23T10:20:05Z</time>
      </trkpt>
      <trkpt lat="44.34168" lon="2.65076">
        <ele>676.9055176</ele>
        <time>2012-12-23T10:20:06Z</time>
      </trkpt>
      <trkpt lat="44.34163" lon="2.65063">
        <ele>676.4248047</ele>
        <time>2012-12-23T10:20:11Z</time>
      </trkpt>
      <trkpt lat="44.3416" lon="2.65048">
        <ele>675.4633789</ele>
        <time>2012-12-23T10:20:15Z</time>
      </trkpt>
      <trkpt lat="44.34157" lon="2.65032">
        <ele>674.0214844</ele>
        <time>2012-12-23T10:20:19Z</time>
      </trkpt>
      <trkpt lat="44.34156" lon="2.65021">
        <ele>672.5795898</ele>
        <time>2012-12-23T10:20:22Z</time>
      </trkpt>
      <trkpt lat="44.34154" lon="2.65">
        <ele>669.6958008</ele>
        <time>2012-12-23T10:20:28Z</time>
      </trkpt>
      <trkpt lat="44.34152" lon="2.64982">
        <ele>668.734375</ele>
        <time>2012-12-23T10:20:33Z</time>
      </trkpt>
      <trkpt lat="44.3415" lon="2.6496">
        <ele>667.7727051</ele>
        <time>2012-12-23T10:20:39Z</time>
      </trkpt>
      <trkpt lat="44.34147" lon="2.64939">
        <ele>668.734375</ele>
        <time>2012-12-23T10:20:44Z</time>
      </trkpt>
      <trkpt lat="44.34144" lon="2.64911">
        <ele>669.6958008</ele>
        <time>2012-12-23T10:20:51Z</time>
      </trkpt>
      <trkpt lat="44.34144" lon="2.64887">
        <ele>668.734375</ele>
        <time>2012-12-23T10:20:57Z</time>
      </trkpt>
      <trkpt lat="44.34142" lon="2.64867">
        <ele>668.734375</ele>
        <time>2012-12-23T10:21:02Z</time>
      </trkpt>
      <trkpt lat="44.34141" lon="2.64856">
        <ele>668.734375</ele>
        <time>2012-12-23T10:21:05Z</time>
      </trkpt>
      <trkpt lat="44.34141" lon="2.64841">
        <ele>667.7727051</ele>
        <time>2012-12-23T10:21:09Z</time>
      </trkpt>
      <trkpt lat="44.34138" lon="2.64823">
        <ele>667.2922363</ele>
        <time>2012-12-23T10:21:15Z</time>
      </trkpt>
      <trkpt lat="44.34138" lon="2.64806">
        <ele>664.888916</ele>
        <time>2012-12-23T10:21:20Z</time>
      </trkpt>
      <trkpt lat="44.34136" lon="2.64785">
        <ele>662.4855957</ele>
        <time>2012-12-23T10:21:26Z</time>
      </trkpt>
      <trkpt lat="44.34136" lon="2.64766">
        <ele>660.0822754</ele>
        <time>2012-12-23T10:21:32Z</time>
      </trkpt>
      <trkpt lat="44.34135" lon="2.64748">
        <ele>658.1599121</ele>
        <time>2012-12-23T10:21:38Z</time>
      </trkpt>
      <trkpt lat="44.34131" lon="2.64737">
        <ele>657.6791992</ele>
        <time>2012-12-23T10:21:42Z</time>
      </trkpt>
      <trkpt lat="44.34125" lon="2.6472">
        <ele>658.1599121</ele>
        <time>2012-12-23T10:21:47Z</time>
      </trkpt>
      <trkpt lat="44.34119" lon="2.64708">
        <ele>659.1210938</ele>
        <time>2012-12-23T10:21:52Z</time>
      </trkpt>
      <trkpt lat="44.34112" lon="2.64687">
        <ele>661.0437012</ele>
        <time>2012-12-23T10:21:59Z</time>
      </trkpt>
      <trkpt lat="44.34109" lon="2.6467">
        <ele>661.0437012</ele>
        <time>2012-12-23T10:22:04Z</time>
      </trkpt>
      <trkpt lat="44.34106" lon="2.64654">
        <ele>661.0437012</ele>
        <time>2012-12-23T10:22:09Z</time>
      </trkpt>
      <trkpt lat="44.341" lon="2.64636">
        <ele>662.4855957</ele>
        <time>2012-12-23T10:22:14Z</time>
      </trkpt>
      <trkpt lat="44.34094" lon="2.6462">
        <ele>663.9274902</ele>
        <time>2012-12-23T10:22:19Z</time>
      </trkpt>
      <trkpt lat="44.34089" lon="2.64601">
        <ele>663.9274902</ele>
        <time>2012-12-23T10:22:25Z</time>
      </trkpt>
      <trkpt lat="44.34087" lon="2.64583">
        <ele>663.4470215</ele>
        <time>2012-12-23T10:22:30Z</time>
      </trkpt>
      <trkpt lat="44.34083" lon="2.64567">
        <ele>663.9274902</ele>
        <time>2012-12-23T10:22:35Z</time>
      </trkpt>
      <trkpt lat="44.34078" lon="2.64548">
        <ele>664.4082031</ele>
        <time>2012-12-23T10:22:41Z</time>
      </trkpt>
      <trkpt lat="44.34073" lon="2.64527">
        <ele>664.4082031</ele>
        <time>2012-12-23T10:22:47Z</time>
      </trkpt>
      <trkpt lat="44.3407" lon="2.64509">
        <ele>663.9274902</ele>
        <time>2012-12-23T10:22:52Z</time>
      </trkpt>
      <trkpt lat="44.34068" lon="2.64486">
        <ele>663.9274902</ele>
        <time>2012-12-23T10:22:58Z</time>
      </trkpt>
      <trkpt lat="44.34069" lon="2.64471">
        <ele>663.9274902</ele>
        <time>2012-12-23T10:23:02Z</time>
      </trkpt>
      <trkpt lat="44.34072" lon="2.64449">
        <ele>663.9274902</ele>
        <time>2012-12-23T10:23:08Z</time>
      </trkpt>
      <trkpt lat="44.34074" lon="2.6443">
        <ele>663.9274902</ele>
        <time>2012-12-23T10:23:13Z</time>
      </trkpt>
      <trkpt lat="44.34074" lon="2.64412">
        <ele>662.4855957</ele>
        <time>2012-12-23T10:23:18Z</time>
      </trkpt>
      <trkpt lat="44.3407" lon="2.64396">
        <ele>661.0437012</ele>
        <time>2012-12-23T10:23:23Z</time>
      </trkpt>
      <trkpt lat="44.34067" lon="2.6438">
        <ele>661.5244141</ele>
        <time>2012-12-23T10:23:27Z</time>
      </trkpt>
      <trkpt lat="44.34064" lon="2.64362">
        <ele>661.5244141</ele>
        <time>2012-12-23T10:23:32Z</time>
      </trkpt>
      <trkpt lat="44.34063" lon="2.64344">
        <ele>661.5244141</ele>
        <time>2012-12-23T10:23:38Z</time>
      </trkpt>
      <trkpt lat="44.34062" lon="2.64333">
        <ele>662.005127</ele>
        <time>2012-12-23T10:23:42Z</time>
      </trkpt>
      <trkpt lat="44.34063" lon="2.6433">
        <ele>662.4855957</ele>
        <time>2012-12-23T10:23:43Z</time>
      </trkpt>
      <trkpt lat="44.34061" lon="2.64307">
        <ele>663.4470215</ele>
        <time>2012-12-23T10:23:50Z</time>
      </trkpt>
      <trkpt lat="44.34058" lon="2.64287">
        <ele>664.888916</ele>
        <time>2012-12-23T10:23:56Z</time>
      </trkpt>
      <trkpt lat="44.34055" lon="2.64266">
        <ele>667.2922363</ele>
        <time>2012-12-23T10:24:02Z</time>
      </trkpt>
      <trkpt lat="44.3405" lon="2.64249">
        <ele>668.2536621</ele>
        <time>2012-12-23T10:24:07Z</time>
      </trkpt>
      <trkpt lat="44.34044" lon="2.64233">
        <ele>668.734375</ele>
        <time>2012-12-23T10:24:12Z</time>
      </trkpt>
      <trkpt lat="44.34035" lon="2.64213">
        <ele>669.6958008</ele>
        <time>2012-12-23T10:24:18Z</time>
      </trkpt>
      <trkpt lat="44.34027" lon="2.64198">
        <ele>671.1376953</ele>
        <time>2012-12-23T10:24:23Z</time>
      </trkpt>
      <trkpt lat="44.3402" lon="2.64181">
        <ele>672.098877</ele>
        <time>2012-12-23T10:24:28Z</time>
      </trkpt>
      <trkpt lat="44.3401" lon="2.64158">
        <ele>672.5795898</ele>
        <time>2012-12-23T10:24:35Z</time>
      </trkpt>
      <trkpt lat="44.34003" lon="2.64142">
        <ele>672.5795898</ele>
        <time>2012-12-23T10:24:40Z</time>
      </trkpt>
      <trkpt lat="44.33997" lon="2.64125">
        <ele>673.0603027</ele>
        <time>2012-12-23T10:24:45Z</time>
      </trkpt>
      <trkpt lat="44.33991" lon="2.64108">
        <ele>673.0603027</ele>
        <time>2012-12-23T10:24:50Z</time>
      </trkpt>
      <trkpt lat="44.33985" lon="2.64087">
        <ele>673.0603027</ele>
        <time>2012-12-23T10:24:56Z</time>
      </trkpt>
      <trkpt lat="44.33979" lon="2.64068">
        <ele>672.5795898</ele>
        <time>2012-12-23T10:25:02Z</time>
      </trkpt>
      <trkpt lat="44.33973" lon="2.6405">
        <ele>672.098877</ele>
        <time>2012-12-23T10:25:07Z</time>
      </trkpt>
      <trkpt lat="44.33968" lon="2.64037">
        <ele>671.1376953</ele>
        <time>2012-12-23T10:25:11Z</time>
      </trkpt>
      <trkpt lat="44.33961" lon="2.64019">
        <ele>669.6958008</ele>
        <time>2012-12-23T10:25:16Z</time>
      </trkpt>
      <trkpt lat="44.33956" lon="2.64005">
        <ele>669.2150879</ele>
        <time>2012-12-23T10:25:20Z</time>
      </trkpt>
      <trkpt lat="44.3395" lon="2.63988">
        <ele>668.734375</ele>
        <time>2012-12-23T10:25:25Z</time>
      </trkpt>
      <trkpt lat="44.3394" lon="2.63964">
        <ele>668.734375</ele>
        <time>2012-12-23T10:25:32Z</time>
      </trkpt>
      <trkpt lat="44.33934" lon="2.63947">
        <ele>669.2150879</ele>
        <time>2012-12-23T10:25:37Z</time>
      </trkpt>
      <trkpt lat="44.33927" lon="2.63927">
        <ele>670.1762695</ele>
        <time>2012-12-23T10:25:43Z</time>
      </trkpt>
      <trkpt lat="44.33918" lon="2.63912">
        <ele>670.6569824</ele>
        <time>2012-12-23T10:25:48Z</time>
      </trkpt>
      <trkpt lat="44.33906" lon="2.63914">
        <ele>672.098877</ele>
        <time>2012-12-23T10:25:53Z</time>
      </trkpt>
      <trkpt lat="44.33891" lon="2.63918">
        <ele>672.5795898</ele>
        <time>2012-12-23T10:25:59Z</time>
      </trkpt>
      <trkpt lat="44.33874" lon="2.63919">
        <ele>672.098877</ele>
        <time>2012-12-23T10:26:05Z</time>
      </trkpt>
      <trkpt lat="44.3386" lon="2.63912">
        <ele>671.1376953</ele>
        <time>2012-12-23T10:26:10Z</time>
      </trkpt>
      <trkpt lat="44.33853" lon="2.63895">
        <ele>671.6181641</ele>
        <time>2012-12-23T10:26:15Z</time>
      </trkpt>
      <trkpt lat="44.33851" lon="2.63876">
        <ele>672.5795898</ele>
        <time>2012-12-23T10:26:20Z</time>
      </trkpt>
      <trkpt lat="44.3385" lon="2.63861">
        <ele>673.0603027</ele>
        <time>2012-12-23T10:26:24Z</time>
      </trkpt>
      <trkpt lat="44.3385" lon="2.63833">
        <ele>673.0603027</ele>
        <time>2012-12-23T10:26:31Z</time>
      </trkpt>
      <trkpt lat="44.3385" lon="2.6381">
        <ele>672.098877</ele>
        <time>2012-12-23T10:26:37Z</time>
      </trkpt>
      <trkpt lat="44.33851" lon="2.63788">
        <ele>672.5795898</ele>
        <time>2012-12-23T10:26:43Z</time>
      </trkpt>
      <trkpt lat="44.33852" lon="2.63769">
        <ele>672.5795898</ele>
        <time>2012-12-23T10:26:48Z</time>
      </trkpt>
      <trkpt lat="44.33852" lon="2.63746">
        <ele>671.6181641</ele>
        <time>2012-12-23T10:26:54Z</time>
      </trkpt>
      <trkpt lat="44.33853" lon="2.63726">
        <ele>671.1376953</ele>
        <time>2012-12-23T10:26:59Z</time>
      </trkpt>
      <trkpt lat="44.33853" lon="2.63703">
        <ele>671.6181641</ele>
        <time>2012-12-23T10:27:05Z</time>
      </trkpt>
      <trkpt lat="44.33851" lon="2.63683">
        <ele>671.1376953</ele>
        <time>2012-12-23T10:27:10Z</time>
      </trkpt>
      <trkpt lat="44.33848" lon="2.63662">
        <ele>672.098877</ele>
        <time>2012-12-23T10:27:16Z</time>
      </trkpt>
      <trkpt lat="44.33844" lon="2.63645">
        <ele>672.5795898</ele>
        <time>2012-12-23T10:27:21Z</time>
      </trkpt>
      <trkpt lat="44.33839" lon="2.63627">
        <ele>673.5410156</ele>
        <time>2012-12-23T10:27:26Z</time>
      </trkpt>
      <trkpt lat="44.33835" lon="2.63605">
        <ele>674.5021973</ele>
        <time>2012-12-23T10:27:32Z</time>
      </trkpt>
      <trkpt lat="44.33833" lon="2.63587">
        <ele>675.4633789</ele>
        <time>2012-12-23T10:27:37Z</time>
      </trkpt>
      <trkpt lat="44.3383" lon="2.63569">
        <ele>676.9055176</ele>
        <time>2012-12-23T10:27:42Z</time>
      </trkpt>
      <trkpt lat="44.33827" lon="2.63547">
        <ele>677.3862305</ele>
        <time>2012-12-23T10:27:48Z</time>
      </trkpt>
      <trkpt lat="44.33824" lon="2.63528">
        <ele>676.4248047</ele>
        <time>2012-12-23T10:27:53Z</time>
      </trkpt>
      <trkpt lat="44.33822" lon="2.63508">
        <ele>676.9055176</ele>
        <time>2012-12-23T10:27:58Z</time>
      </trkpt>
      <trkpt lat="44.33819" lon="2.63484">
        <ele>675.9440918</ele>
        <time>2012-12-23T10:28:04Z</time>
      </trkpt>
      <trkpt lat="44.33819" lon="2.6346">
        <ele>674.5021973</ele>
        <time>2012-12-23T10:28:10Z</time>
      </trkpt>
      <trkpt lat="44.33819" lon="2.63432">
        <ele>671.6181641</ele>
        <time>2012-12-23T10:28:17Z</time>
      </trkpt>
      <trkpt lat="44.3382" lon="2.63416">
        <ele>671.1376953</ele>
        <time>2012-12-23T10:28:21Z</time>
      </trkpt>
      <trkpt lat="44.33819" lon="2.63396">
        <ele>669.6958008</ele>
        <time>2012-12-23T10:28:26Z</time>
      </trkpt>
      <trkpt lat="44.33819" lon="2.63376">
        <ele>669.6958008</ele>
        <time>2012-12-23T10:28:31Z</time>
      </trkpt>
      <trkpt lat="44.33819" lon="2.63359">
        <ele>668.734375</ele>
        <time>2012-12-23T10:28:35Z</time>
      </trkpt>
      <trkpt lat="44.3382" lon="2.63339">
        <ele>667.7727051</ele>
        <time>2012-12-23T10:28:40Z</time>
      </trkpt>
      <trkpt lat="44.33819" lon="2.6332">
        <ele>667.2922363</ele>
        <time>2012-12-23T10:28:45Z</time>
      </trkpt>
      <trkpt lat="44.33807" lon="2.63304">
        <ele>667.2922363</ele>
        <time>2012-12-23T10:28:51Z</time>
      </trkpt>
      <trkpt lat="44.33796" lon="2.63286">
        <ele>666.3308105</ele>
        <time>2012-12-23T10:28:57Z</time>
      </trkpt>
      <trkpt lat="44.3379" lon="2.63273">
        <ele>666.8115234</ele>
        <time>2012-12-23T10:29:01Z</time>
      </trkpt>
      <trkpt lat="44.33781" lon="2.63258">
        <ele>666.8115234</ele>
        <time>2012-12-23T10:29:06Z</time>
      </trkpt>
      <trkpt lat="44.33772" lon="2.63243">
        <ele>665.8503418</ele>
        <time>2012-12-23T10:29:11Z</time>
      </trkpt>
      <trkpt lat="44.33764" lon="2.63228">
        <ele>663.9274902</ele>
        <time>2012-12-23T10:29:16Z</time>
      </trkpt>
      <trkpt lat="44.33755" lon="2.6321">
        <ele>662.005127</ele>
        <time>2012-12-23T10:29:22Z</time>
      </trkpt>
      <trkpt lat="44.33751" lon="2.63192">
        <ele>660.5629883</ele>
        <time>2012-12-23T10:29:27Z</time>
      </trkpt>
      <trkpt lat="44.33749" lon="2.63172">
        <ele>660.0822754</ele>
        <time>2012-12-23T10:29:32Z</time>
      </trkpt>
      <trkpt lat="44.33749" lon="2.63148">
        <ele>660.0822754</ele>
        <time>2012-12-23T10:29:38Z</time>
      </trkpt>
      <trkpt lat="44.33749" lon="2.63128">
        <ele>660.0822754</ele>
        <time>2012-12-23T10:29:43Z</time>
      </trkpt>
      <trkpt lat="44.33747" lon="2.63109">
        <ele>660.0822754</ele>
        <time>2012-12-23T10:29:48Z</time>
      </trkpt>
      <trkpt lat="44.33737" lon="2.63102">
        <ele>659.1210938</ele>
        <time>2012-12-23T10:29:52Z</time>
      </trkpt>
      <trkpt lat="44.33718" lon="2.63096">
        <ele>656.7177734</ele>
        <time>2012-12-23T10:29:59Z</time>
      </trkpt>
      <trkpt lat="44.33704" lon="2.6309">
        <ele>655.2758789</ele>
        <time>2012-12-23T10:30:04Z</time>
      </trkpt>
      <trkpt lat="44.33689" lon="2.63086">
        <ele>652.8725586</ele>
        <time>2012-12-23T10:30:09Z</time>
      </trkpt>
      <trkpt lat="44.33674" lon="2.63082">
        <ele>650.949707</ele>
        <time>2012-12-23T10:30:14Z</time>
      </trkpt>
      <trkpt lat="44.33657" lon="2.63077">
        <ele>649.0270996</ele>
        <time>2012-12-23T10:30:20Z</time>
      </trkpt>
      <trkpt lat="44.33643" lon="2.63078">
        <ele>649.0270996</ele>
        <time>2012-12-23T10:30:25Z</time>
      </trkpt>
      <trkpt lat="44.33632" lon="2.63076">
        <ele>648.5463867</ele>
        <time>2012-12-23T10:30:29Z</time>
      </trkpt>
      <trkpt lat="44.33618" lon="2.63069">
        <ele>647.5852051</ele>
        <time>2012-12-23T10:30:34Z</time>
      </trkpt>
      <trkpt lat="44.33604" lon="2.63063">
        <ele>646.6240234</ele>
        <time>2012-12-23T10:30:39Z</time>
      </trkpt>
      <trkpt lat="44.3359" lon="2.63052">
        <ele>645.1818848</ele>
        <time>2012-12-23T10:30:45Z</time>
      </trkpt>
      <trkpt lat="44.33582" lon="2.63036">
        <ele>644.2207031</ele>
        <time>2012-12-23T10:30:50Z</time>
      </trkpt>
      <trkpt lat="44.33579" lon="2.63025">
        <ele>643.7399902</ele>
        <time>2012-12-23T10:30:53Z</time>
      </trkpt>
      <trkpt lat="44.33577" lon="2.63005">
        <ele>644.2207031</ele>
        <time>2012-12-23T10:30:58Z</time>
      </trkpt>
      <trkpt lat="44.33578" lon="2.62981">
        <ele>643.7399902</ele>
        <time>2012-12-23T10:31:04Z</time>
      </trkpt>
      <trkpt lat="44.33576" lon="2.62962">
        <ele>644.2207031</ele>
        <time>2012-12-23T10:31:09Z</time>
      </trkpt>
      <trkpt lat="44.33573" lon="2.62944">
        <ele>644.7011719</ele>
        <time>2012-12-23T10:31:14Z</time>
      </trkpt>
      <trkpt lat="44.33571" lon="2.6293">
        <ele>645.6625977</ele>
        <time>2012-12-23T10:31:18Z</time>
      </trkpt>
      <trkpt lat="44.33581" lon="2.62922">
        <ele>646.1433105</ele>
        <time>2012-12-23T10:31:23Z</time>
      </trkpt>
    </trkseg>
  </trk>
</gpx>